[[{"header":{"parameterUnit":"m.s-1","parameterCategory":1,"la1":31.0,"la2":29.5877,"lo1":-88.7671,"lo2":-86.6584,"dy":0.0162,"dx":0.0185,"nx":115,"ny":88,"refTime":"2024-06-28T18:00:00:Z","depth":0,"parameterNumber":2,"parameterNumberName":"U-component_of_WINDS"},"data":[0.0,0.0,0.0,0.0,0.0,0.0,0.0,0.0,0.0,0.0,0.0,0.0,0.0,0.0,0.0,0.0,0.0,0.0,0.0,0.0,0.0,0.0,0.0,0.0,0.0,0.0,0.0,0.0,0.0,0.0,0.0,0.0,0.0,0.0,0.0,0.0,0.0,0.0,0.0,0.0,0.0,0.0,0.0,0.0,0.0,0.0,0.0,0.0,0.0,0.0,0.0,0.0,0.0,0.0,0.0,0.0,0.0,0.0,0.0,0.0,0.0,0.0,0.0,0.0,0.0,0.0,0.0,0.0,0.0,0.0,0.0,0.0,0.0,0.0,0.0,0.0,0.0,0.0,0.0,0.0,0.0,0.0,0.0,0.0,0.0,0.0,0.0,0.0,0.0,0.0,0.0,0.0,0.0,0.0,0.0,0.0,0.0,0.0,0.0,0.0,0.0,0.0,0.0,0.0,0.0,0.0,0.0,0.0,0.0,0.0,0.0,0.0,0.0,0.0,0.0,0.0,0.0,0.0,0.0,0.0,0.0,0.0,0.0,0.0,0.0,0.0,0.0,0.0,0.0,0.0,0.0,0.0,0.0,0.0,0.0,0.0,0.0,0.0,0.0,0.0,0.0,0.0,0.0,0.0,0.0,0.0,0.0,0.0,0.0,0.0,0.0,0.0,0.0,0.0,0.0,0.0,0.0,0.0,0.0,0.0,0.0,0.0,0.0,0.0,0.0,0.0,0.0,0.0,0.0,0.0,0.0,0.0,0.0,0.0,0.0,0.0,0.0,0.0,0.0,0.0,0.0,0.0,0.0,0.0,0.0,0.0,0.0,0.0,0.0,0.0,0.0,0.0,0.0,0.0,0.0,0.0,0.0,0.0,0.0,0.0,0.0,0.0,0.0,0.0,0.0,0.0,0.0,0.0,0.0,0.0,0.0,0.0,0.0,0.0,0.0,0.0,0.0,0.0,0.0,0.0,0.0,0.0,0.0,0.0,0.0,0.0,0.0,0.0,0.0,0.0,0.0,0.0,0.0,0.0,0.0,0.0,0.0,0.0,0.0,0.0,0.0,0.0,0.0,0.0,0.0,0.0,0.0,0.0,0.0,0.0,0.0,0.0,0.0,0.0,0.0,0.0,0.0,0.0,0.0,0.0,0.0,0.0,0.0,0.0,0.0,0.0,0.0,0.0,0.0,0.0,0.0,0.0,0.0,0.0,0.0,0.0,0.0,0.0,0.0,0.0,0.0,0.0,0.0,0.0,0.0,0.0,0.0,0.0,0.0,0.0,0.0,0.0,0.0,0.0,0.0,0.0,0.0,0.0,0.0,0.0,0.0,0.0,0.0,0.0,0.0,0.0,0.0,0.0,0.0,0.0,0.0,0.0,0.0,0.0,0.0,0.0,0.0,0.0,0.0,0.0,0.0,0.0,0.0,0.0,0.0,0.0,0.0,0.0,0.0,0.0,0.0,0.0,0.0,0.0,0.0,0.0,0.0,0.0,0.0,0.0,0.0,0.0,0.0,0.0,0.0,0.0,0.0,0.0,0.0,0.0,0.0,0.0,0.0,0.0,0.0,0.0,0.0,0.0,0.0,0.0,0.0,0.0,0.0,0.0,0.0,0.0,0.0,0.0,0.0,0.0,0.0,0.0,0.0,0.0,0.0,0.0,0.0,0.0,0.0,0.0,0.0,0.0,0.0,0.0,0.0,0.0,0.0,0.0,0.0,0.0,0.0,0.0,0.0,0.0,0.0,0.0,0.0,0.0,0.0,0.0,0.0,0.0,0.0,0.0,0.0,0.0,0.0,0.0,0.0,0.0,0.0,0.0,0.0,0.0,0.0,0.0,0.0,0.0,0.0,0.0,0.0,0.0,0.0,0.0,0.0,0.0,0.0,0.0,0.0,0.0,0.0,0.0,0.0,0.0,0.0,0.0,0.0,0.0,0.0,0.0,0.0,0.0,0.0,0.0,0.0,0.0,0.0,0.0,0.0,0.0,0.0,0.0,0.0,0.0,0.0,0.0,0.0,0.0,0.0,0.0,0.0,0.0,0.0,0.0,0.0,0.0,0.0,0.0,0.0,0.0,0.0,0.0,0.0,0.0,0.0,0.0,0.0,0.0,0.0,0.0,0.0,0.0,0.0,0.0,0.0,0.0,0.0,0.0,0.0,0.0,0.0,0.0,0.0,0.0,0.0,0.0,0.0,0.0,0.0,0.0,0.0,0.0,0.0,0.0,0.0,0.0,0.0,0.0,0.0,0.0,0.0,0.0,0.0,0.0,0.0,0.0,0.0,0.0,0.0,0.0,0.0,0.0,0.0,0.0,0.0,0.0,0.0,0.0,0.0,0.0,0.0,0.0,0.0,0.0,0.0,0.0,0.0,0.0,0.0,0.0,0.0,0.0,0.0,0.0,0.0,0.0,0.0,0.0,0.0,0.0,0.0,0.0,0.0,0.0,0.0,0.0,0.0,0.0,0.0,0.0,0.0,0.0,0.0,0.0,0.0,0.0,0.0,0.0,0.0,0.0,0.0,0.0,0.0,0.0,0.0,0.0,0.0,0.0,0.0,0.0,0.0,0.0,0.0,0.0,0.0,0.0,0.0,0.0,0.0,0.0,0.0,0.0,0.0,0.0,0.0,0.0,0.0,0.0,0.0,0.0,0.0,0.0,0.0,0.0,0.0,0.0,0.0,0.0,0.0,0.0,0.0,0.0,0.0,0.0,0.0,0.0,0.0,0.0,0.0,0.0,0.0,0.0,0.0,0.0,0.0,0.0,0.0,0.0,0.0,0.0,0.0,0.0,0.0,0.0,0.0,0.0,0.0,0.0,0.0,0.0,0.0,0.0,0.0,0.0,0.0,0.0,0.0,0.0,0.0,0.0,0.0,0.0,0.0,0.0,0.0,0.0,0.0,0.0,0.0,0.0,0.0,0.0,0.0,0.0,0.0,0.0,0.0,0.0,0.0,0.0,0.0,0.0,0.0,0.0,0.0,0.0,0.0,0.0,0.0,0.0,0.0,0.0,0.0,0.0,0.0,0.0,0.0,0.0,0.0,0.0,0.0,0.0,0.0,0.0,0.0,0.0,0.0,0.0,0.0,0.0,0.0,0.0,0.0,0.0,0.0,0.0,0.0,0.0,0.0,0.0,0.0,0.0,0.0,0.0,0.0,0.0,0.0,0.0,0.0,0.0,0.0,0.0,0.0,0.0,0.0,0.0,0.0,0.0,0.0,0.0,0.0,0.0,0.0,0.0,0.0,0.0,0.0,0.0,0.0,0.0,0.0,0.0,0.0,0.0,0.0,0.0,0.0,0.0,0.0,0.0,0.0,0.0,0.0,0.0,0.0,0.0,0.0,0.0,0.0,0.0,0.0,0.0,0.0,0.0,0.0,0.0,0.0,0.0,0.0,0.0,0.0,0.0,0.0,0.0,0.0,0.0,0.0,0.0,0.0,0.0,0.0,0.0,0.0,0.0,0.0,0.0,0.0,0.0,0.0,0.0,0.0,0.0,0.0,0.0,0.0,0.0,0.0,0.0,0.0,0.0,0.0,0.0,0.0,0.0,0.0,0.0,0.0,0.0,0.0,0.0,0.0,0.0,0.0,0.0,0.0,0.0,0.0,0.0,0.0,0.0,0.0,0.0,0.0,0.0,0.0,0.0,0.0,0.0,0.0,0.0,0.0,0.0,0.0,0.0,0.0,0.0,0.0,0.0,0.0,0.0,0.0,0.0,0.0,0.0,0.0,0.0,0.0,0.0,0.0,0.0,0.0,0.0,0.0,0.0,0.0,0.0,0.0,0.0,0.0,0.0,0.0,0.0,0.0,0.0,0.0,0.0,0.0,0.0,0.0,0.0,0.0,0.0,0.0,0.0,0.0,0.0,0.0,0.0,0.0,0.0,0.0,0.0,0.0,0.0,0.0,0.0,0.0,0.0,0.0,0.0,0.0,0.0,0.0,0.0,0.0,0.0,0.0,0.0,0.0,0.0,0.0,0.0,0.0,0.0,0.0,0.0,0.0,0.0,0.0,0.0,0.0,0.0,0.0,0.0,0.0,0.0,0.0,0.0,0.0,0.0,0.0,0.0,0.0,0.0,0.0,0.0,0.0,0.0,0.0,0.0,0.0,0.0,0.0,0.0,0.0,0.0,0.0,0.0,0.0,0.0,0.0,0.0,0.0,0.0,0.0,0.0,0.0,0.0,0.0,0.0,0.0,0.0,0.0,0.0,0.0,0.0,0.0,0.0,0.0,0.0,0.0,0.0,0.0,0.0,0.0,0.0,-0.9888,0.0,0.0,0.0,0.0,0.0,0.0,0.0,0.0,0.0,0.0,0.0,0.0,0.0,0.0,0.0,0.0,0.0,0.0,0.0,0.0,0.0,0.0,0.0,0.0,0.0,0.0,0.0,0.0,0.0,0.0,0.0,0.0,0.0,0.0,0.0,0.0,0.0,0.0,0.0,0.0,0.0,0.0,0.0,0.0,0.0,0.0,0.0,0.0,0.0,0.0,0.0,0.0,0.0,0.0,0.0,0.0,0.0,0.0,0.0,0.0,0.0,0.0,0.0,0.0,0.0,0.0,0.0,0.0,0.0,0.0,0.0,0.0,0.0,0.0,0.0,0.0,0.0,0.0,0.0,0.0,0.0,0.0,0.0,0.0,0.0,0.0,0.0,0.0,0.0,0.0,0.0,0.0,0.0,0.0,0.0,0.0,0.0,0.0,0.0,0.0,0.0,0.0,0.0,0.0,0.0,0.0,0.0,0.0,0.0,0.0,-0.9796,-0.9796,-0.9857,-0.9888,-0.9888,0.0,0.0,0.0,0.0,0.0,0.0,0.0,0.0,0.0,0.0,0.0,0.0,0.0,0.0,0.0,0.0,0.0,0.0,0.0,0.0,0.0,0.0,0.0,0.0,0.0,0.0,0.0,0.0,0.0,0.0,0.0,0.0,0.0,0.0,0.0,0.0,0.0,0.0,0.0,0.0,0.0,0.0,0.0,0.0,0.0,0.0,0.0,0.0,0.0,0.0,0.0,0.0,0.0,0.0,0.0,0.0,0.0,0.0,0.0,0.0,0.0,0.0,0.0,0.0,0.0,0.0,0.0,0.0,0.0,0.0,0.0,0.0,0.0,0.0,0.0,0.0,0.0,0.0,0.0,0.0,0.0,0.0,0.0,0.0,0.0,0.0,0.0,0.0,0.0,0.0,0.0,0.0,0.0,0.0,0.0,0.0,0.0,0.0,0.0,0.0,0.0,0.0,0.0,0.0,0.0,0.0,0.0,0.0,0.0,0.0,0.0,0.0,-1.0238,-1.0169,-1.0172,0.0,0.0,0.0,0.0,0.0,0.0,0.0,0.0,0.0,0.0,0.0,0.0,0.0,0.0,0.0,0.0,0.0,0.0,0.0,0.0,0.0,0.0,0.0,0.0,0.0,0.0,0.0,0.0,0.0,0.0,0.0,0.0,0.0,0.0,0.0,0.0,0.0,0.0,0.0,0.0,0.0,0.0,0.0,0.0,0.0,0.0,0.0,0.0,0.0,0.0,0.0,0.0,0.0,0.0,0.0,0.0,0.0,0.0,0.0,0.0,0.0,0.0,0.0,0.0,0.0,0.0,0.0,0.0,0.0,0.0,0.0,0.0,0.0,0.0,0.0,0.0,0.0,0.0,0.0,0.0,0.0,0.0,0.0,0.0,0.0,0.0,0.0,0.0,0.0,0.0,0.0,0.0,0.0,0.0,0.0,0.0,0.0,0.0,0.0,0.0,0.0,0.0,0.0,0.0,0.0,0.0,0.0,0.0,0.0,0.0,-1.0593,-1.2002,-1.1367,0.0,-1.0989,0.0,0.0,0.0,0.0,0.0,0.0,0.0,0.0,0.0,0.0,0.0,0.0,0.0,0.0,0.0,0.0,0.0,0.0,0.0,0.0,0.0,0.0,0.0,0.0,0.0,0.0,0.0,0.0,0.0,0.0,0.0,0.0,0.0,0.0,0.0,0.0,0.0,0.0,0.0,0.0,0.0,0.0,0.0,0.0,0.0,0.0,0.0,0.0,0.0,0.0,0.0,0.0,0.0,0.0,0.0,0.0,0.0,0.0,0.0,0.0,0.0,0.0,0.0,0.0,0.0,0.0,0.0,0.0,0.0,0.0,0.0,0.0,0.0,0.0,0.0,0.0,0.0,0.0,0.0,0.0,0.0,0.0,0.0,0.0,0.0,0.0,0.0,0.0,0.0,0.0,0.0,0.0,0.0,0.0,0.0,0.0,0.0,0.0,0.0,0.0,0.0,0.0,0.0,0.0,0.0,0.0,0.0,0.0,0.0,0.0,0.0,-1.229,-1.1974,-1.1352,0.0,0.0,0.0,0.0,0.0,0.0,0.0,0.0,0.0,0.0,0.0,0.0,0.0,0.0,0.0,0.0,0.0,0.0,0.0,0.0,0.0,0.0,0.0,0.0,0.0,0.0,0.0,0.0,0.0,0.0,0.0,0.0,0.0,0.0,0.0,0.0,0.0,0.0,0.0,0.0,0.0,0.0,0.0,0.0,0.0,0.0,0.0,0.0,0.0,0.0,0.0,0.0,0.0,0.0,0.0,0.0,0.0,0.0,0.0,0.0,0.0,0.0,0.0,0.0,0.0,0.0,0.0,0.0,0.0,0.0,0.0,0.0,0.0,0.0,0.0,0.0,0.0,0.0,0.0,0.0,0.0,0.0,0.0,0.0,0.0,0.0,0.0,0.0,0.0,0.0,0.0,0.0,0.0,0.0,0.0,0.0,0.0,0.0,0.0,0.0,0.0,0.0,0.0,0.0,0.0,0.0,0.0,0.0,0.0,0.0,-1.1849,0.0,-1.2541,-1.2375,-1.1498,-0.9856,0.0,0.0,0.0,0.0,0.0,0.0,0.0,0.0,0.0,0.0,0.0,0.0,0.0,0.0,0.0,0.0,0.0,0.0,0.0,0.0,0.0,0.0,0.0,0.0,0.0,0.0,0.0,0.0,0.0,0.0,0.0,0.0,0.0,0.0,0.0,0.0,0.0,0.0,0.0,0.0,0.0,0.0,0.0,0.0,0.0,0.0,0.0,0.0,0.0,0.0,0.0,0.0,0.0,0.0,0.0,0.0,0.0,0.0,0.0,0.0,0.0,0.0,0.0,0.0,0.0,0.0,0.0,0.0,0.0,0.0,0.0,0.0,0.0,0.0,0.0,0.0,0.0,0.0,0.0,0.0,0.0,0.0,0.0,0.0,0.0,0.0,0.0,0.0,0.0,0.0,0.0,0.0,0.0,0.0,0.0,0.0,0.0,0.0,0.0,0.0,0.0,0.0,0.0,0.0,0.0,0.0,0.0,0.0,0.0,-1.2838,-1.2483,-1.3216,-1.2581,-1.145,0.0,0.0,0.0,0.0,0.0,0.0,0.0,0.0,0.0,0.0,0.0,0.0,0.0,0.0,0.0,0.0,0.0,0.0,0.0,0.0,0.0,0.0,0.0,0.0,0.0,0.0,0.0,0.0,0.0,0.0,0.0,0.0,0.0,0.0,0.0,0.0,0.0,0.0,0.0,0.0,0.0,0.0,0.0,0.0,0.0,0.0,0.0,0.0,0.0,0.0,0.0,0.0,0.0,0.0,0.0,0.0,0.0,0.0,0.0,0.0,0.0,0.0,0.0,0.0,0.0,0.0,0.0,0.0,0.0,0.0,0.0,0.0,0.0,0.0,0.0,0.0,0.0,0.0,0.0,0.0,0.0,0.0,0.0,0.0,0.0,0.0,0.0,0.0,0.0,0.0,0.0,0.0,0.0,0.0,0.0,0.0,0.0,0.0,0.0,0.0,0.0,0.0,0.0,0.0,0.0,0.0,0.0,0.0,0.0,-1.1382,-1.1888,-1.2764,0.0,-1.2364,-1.0876,0.0,0.0,0.0,0.0,0.0,0.0,0.0,0.0,0.0,0.0,0.0,0.0,0.0,0.0,0.0,0.0,0.0,0.0,0.0,0.0,0.0,0.0,0.0,0.0,0.0,0.0,0.0,0.0,0.0,0.0,0.0,0.0,0.0,0.0,0.0,0.0,0.0,0.0,0.0,0.0,0.0,0.0,0.0,0.0,0.0,0.0,0.0,0.0,0.0,0.0,0.0,0.0,0.0,0.0,0.0,0.0,0.0,0.0,0.0,0.0,0.0,0.0,0.0,0.0,0.0,0.0,0.0,0.0,0.0,0.0,0.0,0.0,0.0,0.0,0.0,0.0,0.0,0.0,0.0,0.0,0.0,0.0,0.0,0.0,0.0,0.0,0.0,0.0,0.0,0.0,0.0,0.0,0.0,0.0,0.0,0.0,0.0,0.0,0.0,0.0,0.0,0.0,0.0,0.0,0.0,0.0,0.0,0.0,0.0,-1.0841,0.0,-1.3311,0.0,-1.2308,-1.0564,0.0,0.0,0.0,0.0,0.0,0.0,0.0,0.0,0.0,0.0,0.0,0.0,0.0,0.0,0.0,0.0,0.0,0.0,0.0,0.0,0.0,0.0,0.0,0.0,0.0,0.0,0.0,0.0,0.0,0.0,0.0,0.0,0.0,0.0,0.0,0.0,0.0,0.0,0.0,0.0,0.0,0.0,0.0,0.0,0.0,0.0,0.0,0.0,0.0,0.0,0.0,0.0,0.0,0.0,0.0,0.0,0.0,0.0,0.0,0.0,0.0,0.0,0.0,0.0,0.0,0.0,0.0,0.0,0.0,0.0,0.0,0.0,0.0,0.0,0.0,0.0,0.0,0.0,0.0,0.0,0.0,0.0,0.0,0.0,0.0,0.0,0.0,0.0,0.0,0.0,0.0,0.0,0.0,0.0,0.0,0.0,0.0,0.0,0.0,0.0,0.0,0.0,0.0,0.0,0.0,0.0,0.0,0.0,-1.0757,-1.3013,-1.3919,-1.3971,-1.3243,-1.2439,-1.055,0.0,0.0,0.0,0.0,0.0,0.0,0.0,0.0,0.0,0.0,0.0,0.0,0.0,0.0,0.0,0.0,0.0,0.0,0.0,0.0,0.0,0.0,0.0,0.0,0.0,0.0,0.0,0.0,0.0,0.0,0.0,0.0,0.0,0.0,0.0,0.0,0.0,0.0,0.0,0.0,0.0,0.0,0.0,0.0,0.0,0.0,0.0,0.0,0.0,0.0,0.0,0.0,0.0,0.0,0.0,0.0,0.0,0.0,0.0,0.0,0.0,0.0,0.0,0.0,0.0,0.0,0.0,0.0,0.0,0.0,0.0,0.0,0.0,0.0,0.0,0.0,0.0,0.0,0.0,0.0,0.0,0.0,0.0,0.0,0.0,0.0,0.0,0.0,0.0,0.0,0.0,0.0,0.0,0.0,0.0,0.0,0.0,0.0,0.0,0.0,0.0,0.0,0.0,0.0,0.0,0.0,0.0,0.0,0.0,-1.1472,-1.2372,-1.3255,-1.3969,-1.1728,-1.0494,0.0,0.0,0.0,0.0,0.0,0.0,0.0,0.0,0.0,0.0,0.0,0.0,0.0,0.0,0.0,0.0,0.0,0.0,0.0,0.0,0.0,0.0,0.0,0.0,0.0,0.0,0.0,0.0,0.0,0.0,0.0,0.0,0.0,0.0,0.0,0.0,0.0,0.0,0.0,0.0,0.0,0.0,0.0,0.0,0.0,0.0,0.0,0.0,0.0,0.0,0.0,0.0,0.0,0.0,0.0,0.0,0.0,0.0,0.0,0.0,0.0,0.0,0.0,0.0,0.0,0.0,0.0,0.0,0.0,0.0,0.0,0.0,0.0,0.0,0.0,0.0,0.0,0.0,0.0,0.0,0.0,0.0,0.0,0.0,0.0,0.0,0.0,0.0,0.0,0.0,0.0,0.0,0.0,0.0,0.0,0.0,0.0,0.0,0.0,0.0,0.0,0.0,0.0,0.0,0.0,0.0,0.0,0.0,0.0,-1.1729,-1.2852,-1.3666,-1.409,-1.2133,-1.0956,-1.0638,0.0,0.0,0.0,0.0,0.0,0.0,0.0,0.0,0.0,0.0,0.0,0.0,0.0,0.0,0.0,0.0,0.0,0.0,0.0,0.0,0.0,0.0,0.0,0.0,0.0,0.0,0.0,0.0,0.0,0.0,0.0,0.0,0.0,0.0,0.0,0.0,0.0,0.0,0.0,0.0,0.0,0.0,0.0,0.0,0.0,0.0,0.0,0.0,0.0,0.0,0.0,0.0,0.0,0.0,0.0,0.0,0.0,0.0,0.0,0.0,0.0,0.0,0.0,0.0,0.0,0.0,0.0,0.0,0.0,0.0,0.0,0.0,0.0,0.0,0.0,0.0,0.0,0.0,0.0,0.0,0.0,0.0,0.0,0.0,0.0,0.0,0.0,0.0,0.0,0.0,0.0,0.0,0.0,0.0,0.0,0.0,0.0,0.0,0.0,0.0,0.0,0.0,0.0,0.0,0.0,0.0,0.0,0.0,-1.3373,-1.5052,-1.5184,-1.3717,-1.3462,-1.1879,0.0,0.0,0.0,0.0,0.0,0.0,0.0,0.0,0.0,0.0,0.0,0.0,0.0,0.0,0.0,0.0,0.0,0.0,0.0,0.0,0.0,0.0,0.0,0.0,0.0,0.0,0.0,0.0,0.0,0.0,0.0,0.0,0.0,0.0,0.0,0.0,0.0,0.0,0.0,0.0,0.0,0.0,0.0,0.0,0.0,0.0,0.0,0.0,0.0,0.0,0.0,0.0,0.0,0.0,0.0,0.0,0.0,0.0,0.0,0.0,0.0,0.0,0.0,0.0,0.0,0.0,0.0,0.0,0.0,0.0,0.0,0.0,0.0,0.0,0.0,0.0,0.0,0.0,0.0,0.0,0.0,0.0,0.0,0.0,0.0,0.0,0.0,0.0,0.0,0.0,0.0,0.0,0.0,0.0,0.0,0.0,0.0,0.0,0.0,0.0,0.0,0.0,0.0,0.0,0.0,0.0,0.0,0.0,0.0,-1.4376,-1.6398,-1.7049,-1.6043,-1.4294,-1.2909,0.0,0.0,0.0,0.0,0.0,0.0,0.0,0.0,0.0,0.0,0.0,0.0,0.0,0.0,0.0,0.0,0.0,0.0,0.0,0.0,0.0,0.0,0.0,0.0,0.0,0.0,0.0,0.0,0.0,0.0,0.0,0.0,0.0,0.0,0.0,0.0,0.0,0.0,0.0,0.0,0.0,0.0,0.0,0.0,0.0,0.0,0.0,0.0,0.0,0.0,0.0,0.0,0.0,0.0,0.0,0.0,0.0,0.0,0.0,0.0,0.0,0.0,0.0,0.0,0.0,0.0,0.0,0.0,0.0,0.0,0.0,0.0,0.0,0.0,0.0,0.0,0.0,0.0,0.0,0.0,0.0,0.0,0.0,0.0,0.0,0.0,0.0,0.0,0.0,0.0,0.0,0.0,0.0,0.0,0.0,0.0,0.0,0.0,0.0,0.0,0.0,0.0,0.0,0.0,0.0,0.0,0.0,0.0,-1.4147,-1.5137,-1.7415,-1.8245,-1.7483,-1.5754,-1.3961,0.0,0.0,0.0,0.0,0.0,0.0,0.0,0.0,0.0,0.0,0.0,0.0,0.0,0.0,0.0,0.0,0.0,0.0,0.0,0.0,0.0,0.0,0.0,0.0,0.0,0.0,0.0,0.0,0.0,0.0,0.0,0.0,0.0,0.0,0.0,0.0,0.0,0.0,0.0,0.0,0.0,0.0,0.0,0.0,0.0,0.0,0.0,0.0,0.0,0.0,0.0,0.0,0.0,0.0,0.0,0.0,0.0,0.0,0.0,0.0,0.0,0.0,0.0,0.0,0.0,0.0,0.0,0.0,0.0,0.0,0.0,0.0,0.0,0.0,0.0,0.0,0.0,0.0,0.0,0.0,0.0,0.0,0.0,0.0,0.0,0.0,0.0,0.0,0.0,0.0,0.0,0.0,0.0,0.0,0.0,0.0,0.0,0.0,0.0,0.0,0.0,0.0,0.0,0.0,0.0,0.0,0.0,0.0,-1.4879,-1.5722,-1.8057,-1.8909,-1.8115,-1.7236,-1.4903,0.0,0.0,0.0,0.0,0.0,0.0,0.0,0.0,0.0,0.0,0.0,0.0,0.0,0.0,0.0,0.0,0.0,0.0,0.0,0.0,0.0,0.0,0.0,0.0,0.0,0.0,0.0,0.0,0.0,0.0,0.0,0.0,0.0,0.0,0.0,0.0,0.0,0.0,0.0,0.0,0.0,0.0,0.0,0.0,0.0,0.0,0.0,0.0,0.0,0.0,0.0,0.0,0.0,0.0,0.0,0.0,0.0,0.0,0.0,0.0,0.0,0.0,0.0,0.0,0.0,0.0,0.0,0.0,0.0,0.0,0.0,0.0,0.0,0.0,0.0,0.0,0.0,0.0,0.0,0.0,0.0,0.0,0.0,0.0,0.0,0.0,0.0,0.0,0.0,0.0,0.0,0.0,0.0,0.0,0.0,0.0,0.0,0.0,0.0,0.0,0.0,0.0,0.0,0.0,0.0,0.0,0.0,0.0,-1.4796,-1.5707,-1.7957,-1.8813,-1.8115,-1.6599,-1.4757,0.0,0.0,0.0,0.0,0.0,0.0,0.0,0.0,0.0,0.0,0.0,0.0,0.0,0.0,0.0,0.0,0.0,0.0,0.0,0.0,0.0,0.0,0.0,0.0,0.0,0.0,0.0,0.0,0.0,0.0,0.0,0.0,0.0,0.0,0.0,0.0,0.0,0.0,0.0,0.0,0.0,0.0,0.0,0.0,0.0,0.0,0.0,0.0,-1.0961,0.0,0.0,0.0,0.0,0.0,0.0,0.0,0.0,0.0,0.0,0.0,0.0,0.0,0.0,0.0,0.0,0.0,0.0,0.0,0.0,0.0,0.0,0.0,0.0,0.0,0.0,0.0,0.0,0.0,0.0,0.0,0.0,0.0,0.0,0.0,0.0,0.0,0.0,0.0,0.0,0.0,0.0,0.0,0.0,0.0,0.0,0.0,0.0,0.0,0.0,0.0,0.0,0.0,0.0,0.0,0.0,0.0,0.0,0.0,-1.5534,-1.6725,-1.8348,-1.8986,-1.8537,-1.6933,-1.5067,0.0,0.0,0.0,0.0,0.0,0.0,0.0,0.0,0.0,0.0,0.0,0.0,0.0,0.0,0.0,0.0,0.0,0.0,0.0,0.0,0.0,0.0,0.0,0.0,0.0,0.0,0.0,0.0,0.0,0.0,0.0,0.0,0.0,0.0,0.0,0.0,0.0,0.0,0.0,0.0,0.0,0.0,0.0,0.0,0.0,0.0,0.0,0.0,0.0,0.0,0.0,0.0,0.0,0.0,0.0,0.0,0.0,0.0,0.0,0.0,0.0,0.0,0.0,0.0,0.0,0.0,0.0,0.0,0.0,0.0,0.0,0.0,0.0,0.0,0.0,0.0,0.0,0.0,0.0,0.0,0.0,0.0,0.0,0.0,0.0,0.0,0.0,0.0,0.0,0.0,0.0,0.0,0.0,0.0,0.0,0.0,0.0,0.0,0.0,0.0,0.0,0.0,0.0,0.0,0.0,0.0,0.0,-1.4703,-1.6219,-1.768,-1.8737,-1.9165,-1.8913,-1.7482,-1.5461,-1.2926,0.0,0.0,0.0,0.0,0.0,0.0,0.0,0.0,0.0,0.0,0.0,0.0,0.0,0.0,0.0,0.0,0.0,0.0,0.0,0.0,0.0,0.0,0.0,0.0,0.0,0.0,0.0,0.0,0.0,0.0,0.0,0.0,0.0,0.0,0.0,0.0,0.0,0.0,-0.8939,-0.9649,0.0,0.0,0.0,0.0,0.0,0.0,0.0,0.0,-1.2265,0.0,0.0,0.0,0.0,0.0,0.0,0.0,0.0,0.0,0.0,0.0,0.0,0.0,0.0,0.0,0.0,0.0,0.0,0.0,0.0,0.0,0.0,0.0,0.0,0.0,0.0,0.0,0.0,0.0,0.0,0.0,0.0,0.0,0.0,0.0,0.0,0.0,0.0,0.0,0.0,0.0,0.0,0.0,0.0,0.0,0.0,0.0,0.0,0.0,0.0,0.0,0.0,0.0,0.0,0.0,0.0,-1.3183,-1.4074,-1.5302,-1.6874,-1.8368,-1.8795,-1.8108,-1.7192,-1.5477,-1.2943,0.0,0.0,0.0,0.0,0.0,0.0,0.0,0.0,0.0,0.0,0.0,0.0,0.0,0.0,0.0,0.0,0.0,0.0,0.0,0.0,0.0,0.0,0.0,0.0,0.0,0.0,0.0,0.0,0.0,0.0,0.0,0.0,0.0,0.0,0.0,0.0,0.0,0.0,0.0,-1.1229,-1.1762,0.0,0.0,0.0,0.0,0.0,0.0,0.0,0.0,-1.2998,0.0,0.0,0.0,0.0,0.0,0.0,0.0,0.0,0.0,0.0,0.0,0.0,0.0,0.0,0.0,0.0,0.0,0.0,0.0,0.0,0.0,0.0,0.0,0.0,0.0,0.0,0.0,0.0,0.0,0.0,0.0,0.0,0.0,0.0,0.0,0.0,0.0,0.0,0.0,0.0,0.0,0.0,0.0,0.0,0.0,0.0,0.0,0.0,0.0,0.0,0.0,0.0,0.0,0.0,0.0,-1.3198,-1.4747,-1.6124,-1.7318,-1.8488,-1.8715,-1.7916,-1.6722,-1.5049,0.0,0.0,0.0,0.0,0.0,0.0,0.0,0.0,0.0,0.0,0.0,0.0,0.0,0.0,0.0,0.0,0.0,0.0,0.0,0.0,0.0,0.0,0.0,0.0,0.0,0.0,0.0,0.0,0.0,0.0,0.0,0.0,0.0,0.0,0.0,0.0,0.0,0.0,0.0,0.0,-1.1563,-1.21,-1.2095,0.0,0.0,0.0,0.0,0.0,0.0,-1.3993,-1.406,0.0,0.0,0.0,0.0,0.0,0.0,0.0,0.0,0.0,0.0,0.0,0.0,0.0,0.0,0.0,0.0,0.0,0.0,0.0,0.0,0.0,0.0,0.0,0.0,0.0,0.0,0.0,0.0,0.0,0.0,0.0,0.0,0.0,0.0,0.0,0.0,0.0,0.0,0.0,0.0,0.0,0.0,0.0,0.0,0.0,0.0,0.0,0.0,0.0,0.0,0.0,0.0,0.0,0.0,0.0,-1.2992,-1.527,-1.6849,-1.7645,-1.8597,-1.8642,-1.7664,-1.6425,-1.4745,0.0,0.0,0.0,0.0,0.0,0.0,0.0,0.0,0.0,0.0,0.0,0.0,0.0,0.0,0.0,0.0,0.0,0.0,0.0,0.0,0.0,0.0,0.0,0.0,0.0,0.0,0.0,0.0,0.0,0.0,0.0,0.0,0.0,0.0,0.0,0.0,0.0,0.0,0.0,0.0,0.0,-1.2792,-1.2729,-1.318,0.0,0.0,0.0,0.0,-1.4569,-1.5023,0.0,0.0,0.0,0.0,0.0,0.0,0.0,0.0,0.0,0.0,0.0,0.0,0.0,0.0,0.0,0.0,0.0,0.0,0.0,0.0,0.0,0.0,0.0,0.0,0.0,0.0,0.0,0.0,0.0,0.0,0.0,0.0,0.0,0.0,0.0,0.0,0.0,0.0,0.0,0.0,0.0,0.0,0.0,0.0,0.0,0.0,0.0,0.0,0.0,0.0,0.0,0.0,0.0,0.0,0.0,0.0,-1.2104,-1.4415,-1.6028,-1.6856,-1.8316,-1.8389,-1.6902,-1.6657,-1.504,0.0,0.0,0.0,0.0,0.0,0.0,0.0,0.0,0.0,0.0,0.0,0.0,0.0,0.0,0.0,0.0,0.0,0.0,0.0,0.0,0.0,0.0,0.0,0.0,0.0,0.0,0.0,0.0,0.0,0.0,0.0,0.0,0.0,0.0,0.0,0.0,0.0,0.0,0.0,0.0,0.0,-1.5203,-1.518,-1.4666,-1.4753,0.0,0.0,-1.536,-1.7417,-1.7354,0.0,0.0,0.0,0.0,0.0,0.0,0.0,0.0,0.0,0.0,0.0,0.0,0.0,0.0,0.0,0.0,0.0,0.0,0.0,0.0,0.0,0.0,0.0,0.0,0.0,0.0,0.0,0.0,0.0,0.0,0.0,0.0,0.0,0.0,0.0,0.0,0.0,0.0,0.0,0.0,0.0,0.0,0.0,0.0,0.0,0.0,0.0,0.0,0.0,0.0,0.0,0.0,0.0,0.0,0.0,-1.1587,-1.1983,-1.4725,-1.636,-1.6719,-1.7818,-1.788,-1.672,-1.5388,-1.3694,0.0,0.0,0.0,0.0,0.0,0.0,0.0,0.0,0.0,0.0,0.0,0.0,0.0,0.0,0.0,0.0,0.0,0.0,0.0,0.0,0.0,0.0,0.0,0.0,0.0,0.0,0.0,0.0,0.0,0.0,0.0,0.0,0.0,0.0,0.0,0.0,0.0,0.0,0.0,0.0,0.0,0.0,-1.6169,-1.634,0.0,0.0,0.0,-1.7326,-1.7479,0.0,0.0,0.0,0.0,0.0,0.0,0.0,0.0,0.0,0.0,0.0,0.0,0.0,0.0,0.0,0.0,0.0,0.0,0.0,0.0,0.0,0.0,0.0,0.0,0.0,0.0,0.0,0.0,0.0,0.0,0.0,0.0,0.0,0.0,0.0,0.0,0.0,0.0,0.0,0.0,0.0,0.0,0.0,0.0,0.0,0.0,0.0,0.0,0.0,0.0,0.0,0.0,0.0,0.0,0.0,0.0,0.0,-1.2202,-1.5135,-1.678,-1.701,-1.7581,-1.7495,-1.6616,-1.4496,0.0,0.0,0.0,0.0,0.0,0.0,0.0,0.0,0.0,0.0,0.0,0.0,0.0,0.0,0.0,0.0,0.0,0.0,0.0,0.0,0.0,0.0,0.0,0.0,0.0,0.0,0.0,-0.4336,0.0,0.0,0.0,0.0,0.0,0.0,0.0,0.0,0.0,0.0,0.0,0.0,0.0,0.0,-1.6203,-1.7092,-1.7831,-1.8186,0.0,0.0,-1.9141,-1.7963,-1.8825,-1.8875,0.0,0.0,0.0,0.0,0.0,0.0,0.0,0.0,0.0,0.0,0.0,0.0,0.0,0.0,0.0,0.0,0.0,0.0,0.0,0.0,0.0,0.0,0.0,0.0,0.0,0.0,0.0,0.0,0.0,0.0,0.0,0.0,0.0,0.0,0.0,0.0,0.0,0.0,0.0,0.0,0.0,0.0,0.0,0.0,0.0,0.0,0.0,0.0,0.0,0.0,0.0,0.0,0.0,0.0,0.0,-1.2889,-1.532,-1.6998,-1.7782,-1.7863,-1.7422,-1.643,-1.4872,-1.3157,0.0,0.0,0.0,0.0,0.0,0.0,0.0,0.0,0.0,0.0,0.0,0.0,0.0,0.0,0.0,0.0,0.0,0.0,0.0,0.0,0.0,0.0,0.0,0.0,0.0,0.0,0.0,0.0,0.0,0.0,0.0,0.0,0.0,0.0,0.0,0.0,0.0,0.0,0.0,0.0,0.0,-1.711,-1.8475,-1.8874,-1.9519,0.0,0.0,-2.0216,-2.0173,-2.0254,-1.9562,-1.7303,0.0,0.0,0.0,0.0,0.0,0.0,0.0,0.0,0.0,0.0,0.0,0.0,0.0,0.0,0.0,0.0,0.0,0.0,0.0,0.0,0.0,0.0,0.0,0.0,0.0,0.0,0.0,0.0,0.0,0.0,0.0,0.0,0.0,0.0,0.0,0.0,0.0,0.0,0.0,0.0,0.0,0.0,0.0,0.0,0.0,0.0,0.0,0.0,0.0,0.0,0.0,0.0,0.0,-1.2059,-1.2837,-1.5271,-1.6921,-1.765,-1.7153,-1.6677,-1.6284,-1.4226,-1.2536,0.0,0.0,0.0,0.0,0.0,0.0,0.0,0.0,0.0,0.0,0.0,0.0,0.0,0.0,0.0,0.0,0.0,0.0,0.0,0.0,0.0,0.0,0.0,0.0,0.0,0.0,0.0,0.0,-0.6489,-0.6959,-0.8113,0.0,0.0,0.0,0.0,0.0,0.0,0.0,0.0,0.0,0.0,-1.842,-1.957,-2.0219,0.0,0.0,-2.1651,-2.1616,-2.1143,-2.107,-2.0466,-1.8655,-1.7699,0.0,0.0,0.0,0.0,0.0,0.0,0.0,0.0,0.0,0.0,0.0,0.0,0.0,0.0,0.0,0.0,0.0,0.0,0.0,0.0,0.0,0.0,0.0,0.0,0.0,0.0,0.0,0.0,0.0,0.0,0.0,0.0,0.0,0.0,0.0,0.0,0.0,0.0,0.0,0.0,0.0,0.0,0.0,0.0,0.0,0.0,0.0,0.0,0.0,0.0,0.0,0.0,-1.2088,-1.3109,-1.5307,-1.6907,-1.7835,-1.6773,-1.6149,-1.5993,-1.3702,-1.2032,0.0,0.0,0.0,0.0,0.0,0.0,0.0,0.0,0.0,0.0,0.0,0.0,0.0,0.0,0.0,0.0,0.0,0.0,0.0,0.0,0.0,0.0,0.0,0.0,0.0,0.0,0.0,0.0,-0.7448,-0.7897,-0.867,0.0,0.0,0.0,0.0,0.0,0.0,0.0,0.0,0.0,0.0,-1.9227,-2.0381,-2.1305,-2.1941,-2.2147,-2.2668,-2.2678,-2.164,-2.1696,-2.1261,-1.9473,0.0,0.0,0.0,0.0,0.0,0.0,0.0,0.0,0.0,0.0,0.0,0.0,0.0,0.0,0.0,0.0,0.0,0.0,0.0,0.0,0.0,0.0,0.0,0.0,0.0,0.0,0.0,0.0,0.0,0.0,-0.7265,0.0,0.0,0.0,0.0,0.0,0.0,0.0,0.0,0.0,0.0,0.0,0.0,0.0,0.0,0.0,0.0,0.0,0.0,0.0,0.0,0.0,0.0,0.0,-1.3765,-1.5433,-1.7002,-1.8361,-1.6985,-1.6028,-1.5684,-1.3504,-1.1874,-1.0929,0.0,0.0,0.0,0.0,0.0,0.0,0.0,0.0,0.0,0.0,0.0,0.0,0.0,0.0,0.0,0.0,0.0,0.0,0.0,0.0,0.0,0.0,0.0,0.0,0.0,0.0,-0.697,-0.789,-0.8571,0.0,0.0,0.0,0.0,0.0,0.0,0.0,0.0,0.0,0.0,-1.7567,-1.9368,-2.0862,-2.2001,-2.2896,-2.3595,-2.3732,-2.3243,-2.1776,-2.2156,-2.1895,0.0,0.0,0.0,0.0,0.0,0.0,0.0,0.0,0.0,0.0,0.0,0.0,0.0,0.0,0.0,0.0,0.0,0.0,0.0,0.0,0.0,0.0,0.0,0.0,0.0,0.0,0.0,-0.838,-0.8318,0.0,0.0,0.0,0.0,0.0,0.0,0.0,0.0,0.0,0.0,0.0,-1.2405,-1.2698,0.0,0.0,0.0,0.0,0.0,0.0,0.0,0.0,0.0,0.0,0.0,0.0,-1.2134,-1.3728,-1.5427,-1.6941,-1.8216,-1.6756,-1.582,-1.5547,-1.3798,-1.2223,-1.0939,0.0,0.0,0.0,0.0,0.0,0.0,0.0,0.0,0.0,0.0,0.0,0.0,0.0,0.0,0.0,0.0,0.0,0.0,0.0,0.0,0.0,0.0,0.0,0.0,0.0,-0.6993,0.0,0.0,0.0,0.0,0.0,0.0,0.0,0.0,0.0,0.0,0.0,-1.6225,-1.74,-1.9349,-2.0893,-2.1557,-2.2401,-2.3046,0.0,0.0,0.0,0.0,0.0,0.0,0.0,0.0,0.0,0.0,0.0,0.0,0.0,0.0,-2.0489,-1.7344,-1.6351,-1.6224,-1.6971,0.0,0.0,0.0,0.0,0.0,0.0,0.0,0.0,0.0,0.0,0.0,0.0,0.0,0.0,-0.9936,0.0,-1.0089,0.0,0.0,0.0,0.0,0.0,0.0,0.0,0.0,-1.2697,-1.3558,-1.3829,-1.4169,-1.4245,0.0,-1.3719,-1.253,0.0,0.0,0.0,0.0,0.0,0.0,0.0,0.0,-1.2559,-1.4113,-1.5748,-1.7085,-1.8004,-1.6541,-1.5617,-1.5416,-1.3663,-1.2257,-1.1312,-0.9865,-0.8967,0.0,0.0,0.0,0.0,0.0,0.0,0.0,0.0,0.0,0.0,0.0,0.0,0.0,0.0,0.0,0.0,0.0,0.0,0.0,0.0,0.0,0.0,0.0,-0.7581,0.0,0.0,0.0,0.0,0.0,0.0,0.0,0.0,0.0,-1.5208,-1.6427,-1.7691,-1.8924,-2.0535,-2.1668,-2.1864,0.0,0.0,0.0,0.0,0.0,0.0,0.0,-2.2178,-2.2504,-2.1929,-2.1518,-2.186,-2.2579,-2.3003,-2.2625,0.0,0.0,-1.9704,-1.8707,-1.8527,-1.921,-1.8869,-1.8708,-1.9515,-1.9612,-1.9555,0.0,0.0,0.0,0.0,0.0,0.0,0.0,0.0,-1.0336,-1.0825,0.0,-1.1439,0.0,0.0,0.0,0.0,0.0,-1.194,0.0,0.0,-1.4967,-1.5887,-1.5854,-1.5523,-1.5722,-1.6362,-1.6301,-1.5565,-1.4131,-1.1941,0.0,0.0,0.0,0.0,0.0,0.0,-1.3311,-1.4898,-1.6329,-1.7382,-1.7926,-1.6368,-1.5416,-1.5162,-1.316,-1.2042,-1.1942,-1.0583,-0.9507,-0.8765,-0.7942,0.0,0.0,0.0,0.0,0.0,0.0,0.0,0.0,0.0,0.0,0.0,0.0,0.0,0.0,0.0,0.0,0.0,0.0,0.0,0.0,-0.7239,0.0,0.0,0.0,0.0,0.0,0.0,0.0,0.0,0.0,0.0,-1.591,-1.7058,-1.8526,-2.0195,0.0,0.0,0.0,0.0,-2.3084,-2.3063,-2.3075,-2.2821,-2.208,-2.2575,-2.2873,-2.2416,0.0,0.0,-2.265,-2.3185,-2.3386,-2.2517,-2.2988,-2.353,-2.3537,-2.2252,-2.1587,-2.2134,-2.1044,-2.0332,-2.0938,-2.1018,-2.0888,-1.3221,0.0,0.0,0.0,0.0,-1.1604,-1.197,-1.294,-1.2482,-1.2424,-1.2665,-1.2602,0.0,0.0,0.0,0.0,0.0,0.0,-1.3032,-1.3476,-1.5076,-1.5937,-1.6116,-1.6484,-1.661,-1.6519,-1.6003,-1.5642,-1.5369,-1.4219,-1.2543,-1.0485,0.0,0.0,0.0,0.0,-1.382,-1.5282,-1.6356,-1.7188,-1.776,-1.629,-1.4918,-1.3775,-1.3135,-1.253,-1.2017,-1.1089,-1.0243,-0.9507,-0.8205,0.0,0.0,0.0,0.0,0.0,0.0,0.0,0.0,0.0,0.0,0.0,0.0,0.0,0.0,0.0,0.0,0.0,0.0,0.0,-0.7414,-0.7813,-0.8452,0.0,0.0,0.0,0.0,0.0,0.0,0.0,0.0,0.0,-1.8577,-1.9604,-2.0412,0.0,0.0,-2.2131,-2.219,-2.2374,-2.253,-2.2533,0.0,0.0,0.0,-2.2342,-2.2394,-2.2785,-2.3238,-2.3466,-2.337,-2.3545,-2.3542,-2.3014,-2.3229,-2.3448,-2.3226,-2.2991,-2.2782,-2.2838,-2.2494,-2.2239,-2.2471,-2.2476,-2.2426,-1.6108,-1.4924,-1.3737,-1.347,-1.38,-1.3591,-1.4022,-1.4873,-1.4447,-1.4337,-1.4434,-1.4361,-1.3674,-1.2547,-1.242,0.0,0.0,0.0,-1.4557,-1.5188,-1.6247,-1.6824,-1.7015,-1.751,-1.7634,-1.7357,-1.6672,-1.6412,-1.6554,-1.5967,-1.4543,-1.2405,0.0,0.0,-1.2224,-1.3502,-1.4771,-1.5977,-1.676,-1.734,-1.7684,-1.6215,-1.4676,-1.3176,-1.3093,-1.2886,-1.2447,-1.1453,-1.0691,-1.0235,-0.8786,-0.8192,0.0,0.0,0.0,0.0,0.0,0.0,0.0,0.0,0.0,0.0,0.0,-0.4855,0.0,0.0,0.0,0.0,-0.6565,-0.8523,-0.9072,-0.9408,0.0,0.0,0.0,0.0,0.0,0.0,0.0,-1.6678,-1.7831,-1.8973,-2.0314,-2.1143,-2.1634,-2.1639,-2.2009,-2.2305,-2.2305,0.0,-2.2305,-2.2305,-2.2432,-2.2533,-2.2538,-2.2272,-2.2267,-2.2844,-2.311,-2.3307,-2.3444,-2.3435,-2.3365,-2.3226,-2.3268,-2.3277,-2.3082,-2.3144,-2.3187,-2.3132,-2.3098,-2.3098,-2.3098,-2.3098,-2.3098,-1.8846,-1.8379,-1.6072,-1.5102,-1.515,-1.5914,-1.6213,-1.6228,-1.622,-1.6367,-1.6585,-1.6407,-1.5551,-1.4268,-1.3786,0.0,-1.5964,-1.6334,-1.6912,-1.7706,-1.8072,-1.8206,-1.8176,-1.8462,-1.8575,-1.8489,-1.7915,-1.7638,-1.7669,-1.7308,-1.6463,-1.5209,-1.4759,-1.4527,-1.4512,-1.5194,-1.5988,-1.6848,-1.7406,-1.7639,-1.7566,-1.6102,-1.4629,-1.3242,-1.3067,-1.3002,-1.2969,-1.1602,-1.0799,-1.0766,-0.944,-0.8693,-0.8674,0.0,0.0,0.0,0.0,0.0,0.0,0.0,0.0,0.0,0.0,0.0,0.0,0.0,0.0,0.0,-0.8986,0.0,-1.098,-1.1516,0.0,0.0,0.0,-1.3612,-1.5333,-1.6306,-1.7411,-1.8922,0.0,0.0,-2.1283,0.0,-2.2305,-2.2305,-2.2305,-2.2305,-2.2305,-2.2305,-2.2305,-2.2305,-2.2305,-2.2305,-2.2333,-2.2296,-2.2368,-2.2655,-2.279,-2.2933,-2.3035,-2.3061,-2.3036,-2.3033,-2.3074,-2.3082,-2.307,-2.3061,-2.3098,-2.3074,-2.3077,-2.3098,-2.3098,-2.3098,-2.3098,-1.8423,-1.8269,-1.7921,-1.7634,-1.7395,-1.7317,-1.7314,-1.7321,-1.7314,-1.7368,-1.7416,-1.7377,-1.7149,-1.6825,-1.6687,-1.6858,-1.7258,-1.7366,-1.7516,-1.7736,-1.8305,-1.8308,-1.7864,-1.8406,-1.8408,-1.7939,-1.7741,-1.793,-1.8426,-1.8348,-1.836,-1.8423,-1.7798,-1.6666,-1.5169,-1.581,-1.657,-1.7329,-1.7481,-1.7274,-1.6711,-1.5778,-1.4859,-1.397,-1.2853,-1.2265,-1.2232,-1.084,-1.0076,-1.0029,-0.9087,-0.8604,-0.8683,-0.7897,0.0,0.0,0.0,0.0,0.0,0.0,0.0,0.0,0.0,-0.6338,-0.6391,0.0,-0.6993,0.0,-1.0355,-1.3039,-1.1916,-1.1999,0.0,0.0,-1.426,-1.5179,-1.7842,-1.807,-1.8685,-2.0454,-2.0979,-2.141,-2.198,-2.2186,-2.2305,-2.2305,-2.2305,-2.2305,-2.2305,-2.2305,-2.2305,-2.2305,-2.2305,-2.2305,-2.2305,-2.2305,-2.2369,-2.258,-2.2664,-2.2691,-2.273,-2.2884,-2.2923,-2.2725,-2.2906,-2.297,-2.272,-2.2885,-2.3033,-2.2923,-2.3008,-2.3098,-2.3098,-2.3098,-2.3098,-1.9042,-1.8888,-1.9073,-1.903,-1.8858,-1.8665,-1.8605,-1.8597,-1.858,-1.8416,-1.8117,-1.7817,-1.787,-1.8132,-1.8147,-1.8304,-1.8573,-1.8597,-1.8597,-1.8603,-1.8979,-1.8942,-1.8603,-1.8972,-1.8942,-1.8597,-1.8274,-1.8345,-1.8685,-1.8708,-1.8862,-1.9189,-1.8731,-1.7909,-1.679,-1.684,-1.71,-1.7478,-1.7486,-1.7142,-1.6412,-1.5674,-1.4942,-1.421,-1.3102,-1.2489,-1.2472,-1.1379,-1.0617,-1.0278,-0.9506,-0.8908,-0.8552,-0.8122,-0.796,0.0,0.0,0.0,0.0,0.0,0.0,0.0,0.0,0.0,0.0,0.0,-0.8877,-0.8829,-1.3114,-1.527,-1.3787,-1.4394,-1.5324,-1.6409,-1.6404,-1.7194,-1.9386,-1.9492,-1.9993,-2.1505,-2.1684,-2.1837,-2.2245,-2.2305,-2.2305,-2.2305,-2.2305,-2.2305,-2.2305,-2.2305,-2.2305,-2.2305,-2.2305,-2.2305,-2.2305,-2.2268,-2.2288,-2.2388,-2.2348,-2.2315,-2.2434,-2.2532,-2.258,-2.2525,-2.276,-2.2906,-2.2685,-2.2803,-2.2957,-2.2948,-2.2948,-2.3008,-2.3095,-2.3098,-2.3098,-1.9987,-1.9715,-1.9715,-1.9715,-1.9715,-1.9715,-1.9715,-1.9715,-1.9715,-1.9378,-1.8782,-1.8164,-1.8207,-1.8735,-1.8768,-1.9073,-1.9621,-1.9672,-1.9715,-1.9715,-1.9715,-1.9715,-1.9715,-1.9715,-1.9715,-1.9685,-1.9099,-1.8854,-1.8885,-1.8897,-1.8931,-1.9012,-1.8814,-1.8727,-1.8754,-1.8025,-1.7577,-1.7486,-1.7486,-1.7191,-1.6544,-1.5823,-1.5085,-1.4352,-1.3531,-1.3052,-1.2935,-1.224,-1.1554,-1.0902,-1.0242,-0.9416,-0.8422,-0.8573,-0.9174,0.0,-0.9004,0.0,0.0,0.0,0.0,0.0,0.0,0.0,0.0,-0.9922,-1.1231,-1.2609,-1.5973,-1.747,-1.5988,-1.7273,-1.823,-1.8346,-1.8578,-1.9194,-2.0281,-2.0675,-2.1218,-2.2192,-2.2305,-2.2305,-2.2305,-2.2305,-2.2305,-2.2305,-2.2305,-2.2305,-2.2305,-2.2305,-2.2305,-2.2305,-2.2305,-2.2305,-2.2305,-2.2257,-2.2205,-2.216,-2.2069,-2.2001,-2.2212,-2.2169,-2.2198,-2.2407,-2.2646,-2.2769,-2.2721,-2.2742,-2.2859,-2.2948,-2.2872,-2.2881,-2.3049,-2.3098,-2.3098,-1.9904,-1.9715,-1.9715,-1.9715,-1.9715,-1.9715,-1.9715,-1.9715,-1.9715,-1.9615,-1.947,-1.902,-1.8896,-1.9038,-1.9023,-1.9096,-1.9232,-1.9556,-1.9715,-1.9715,-1.9715,-1.9715,-1.9715,-1.9715,-1.9715,-1.97,-1.958,-1.9647,-1.9928,-1.9926,-2.0221,-2.0772,-2.0175,-1.9999,-2.0207,0.0,0.0,0.0,-1.7486,-1.7428,-1.7283,-1.6578,-1.5831,-1.5093,-1.3806,0.0,-1.2224,-1.1495,-1.0964,-1.0662,-1.0415,0.0,0.0,0.0,0.0,0.0,0.0,0.0,0.0,0.0,0.0,0.0,-1.0545,-1.0364,-1.053,-1.21,-1.3484,-1.4397,-1.6305,-1.7417,-1.7254,-1.7797,-1.843,-1.9025,-1.9382,-1.9994,-2.0977,-2.1387,-2.1791,-2.2234,-2.2305,-2.2305,-2.2305,-2.2305,-2.2305,-2.2305,-2.2305,-2.2305,-2.2305,-2.2305,-2.2305,-2.2305,-2.2305,-2.2305,-2.2305,-2.2282,-2.2192,-2.2081,-2.203,-2.1963,-2.1928,-2.2036,-2.2088,-2.2198,-2.2526,-2.2668,-2.2328,-2.2531,-2.2773,-2.2646,-2.2712,-2.2868,-2.3049,-2.3098,-2.3098,-1.9797,0.0,-1.9715,-1.9715,0.0,-1.9715,-1.9715,-1.9715,-1.9715,-1.9715,-1.9682,-1.949,-1.9398,-1.9417,-1.9398,-1.9288,-1.9113,-1.9317,-1.9284,-1.9117,-1.9303,-1.9398,-1.9402,-1.9617,-1.9715,-1.9715,-1.9715,-1.9782,-1.9962,-2.0319,-2.0688,-2.1055,-2.0656,-2.0531,-2.0644,-1.9234,-1.8187,-1.7506,-1.7486,-1.7486,-1.747,-1.6785,-1.6213,-1.5806,0.0,0.0,0.0,0.0,0.0,0.0,0.0,0.0,0.0,0.0,0.0,-1.08,-1.0593,-1.0386,-1.0258,-1.0806,-1.1384,-1.1954,-1.2254,-1.237,-1.2211,-1.2635,-1.3521,-1.5031,-1.6987,-1.8092,-1.7939,-1.8696,-1.9377,-1.9758,-2.0087,-2.0576,-2.1204,-2.1593,-2.193,-2.2231,-2.2305,-2.2305,-2.2305,-2.2305,-2.2305,-2.2305,-2.2305,-2.2305,-2.2305,-2.2305,-2.2305,-2.2305,-2.2305,-2.2282,-2.2262,-2.2186,-2.211,-2.1978,-2.192,-2.1876,-2.1804,-2.1899,-2.1984,-2.2104,-2.2409,-2.2561,-2.2399,-2.2492,-2.2649,-2.2648,-2.2645,-2.2764,-2.3024,-2.3098,-2.3098,-1.9718,-1.9715,-1.9715,-1.9715,-1.9715,-1.9715,-1.9715,-1.9715,0.0,0.0,0.0,-1.9548,-1.9537,-1.9581,-1.9504,-1.9354,-1.9094,-1.9183,-1.8993,-1.8623,-1.9037,-1.9157,-1.9113,-1.9527,-1.9715,-1.9715,-1.9715,-1.9718,-1.9793,-2.041,-2.0753,-2.0862,-2.0821,-2.0792,-2.0605,-1.9366,-1.8348,-1.771,-1.7561,-1.7486,-1.7478,-1.6898,-1.6536,-1.6395,-1.5222,-1.4534,-1.4394,-1.368,-1.3001,-1.238,-1.2019,-1.1584,-1.1018,-1.0614,-1.0894,-1.1898,-1.1483,-1.1398,-1.1954,-1.2392,-1.2606,-1.2482,-1.3466,-1.3981,-1.3828,-1.2895,-1.3302,-1.5624,-1.7817,-1.8924,-1.8525,-1.9549,-2.0314,-2.039,-2.0687,-2.1015,-2.1363,-2.1685,-2.2005,-2.2254,-2.2305,-2.2305,-2.2305,-2.2305,-2.2305,-2.2305,-2.2305,-2.2305,-2.2305,-2.2305,-2.2305,-2.2305,-2.2305,-2.2291,-2.2225,-2.2129,-2.2007,-2.1934,-2.1884,-2.1811,-2.1796,-2.1789,-2.1869,-2.2004,-2.2265,-2.2373,-2.2373,-2.2424,-2.2559,-2.271,-2.2648,-2.2659,-2.299,-2.3098,-2.3098,-1.9744,-1.9715,-1.9715,-1.9715,-1.9715,-1.9715,-1.9715,-1.9715,-1.9715,-1.9715,-1.9672,-1.8966,-1.8853,-1.9157,-1.8815,-1.8834,-1.9113,-1.9472,-1.9417,0.0,-1.942,-1.9428,-1.9131,-1.9501,-1.9715,-1.9715,-1.9715,-1.9854,-2.0112,-2.0233,-2.0597,-2.1151,-2.1227,-2.1036,-2.0657,-1.9863,-1.908,-1.8373,-1.7789,-1.7486,-1.7486,-1.7395,-1.703,-1.6428,-1.6204,-1.579,-1.5151,-1.4435,-1.3918,-1.3622,-1.2846,-1.2158,-1.1702,-1.1618,-1.1961,-1.2815,-1.2669,-1.2807,-1.3436,-1.3578,-1.3588,-1.3608,-1.4253,-1.4893,-1.5382,-1.4291,-1.4648,-1.7242,-1.8512,-1.9229,-1.9483,-1.9959,-2.0399,-2.067,-2.1023,-2.137,-2.1653,-2.1997,-2.224,-2.2291,-2.2305,-2.2305,-2.2305,-2.2305,-2.2305,-2.2305,-2.2305,-2.2305,-2.2305,-2.2305,-2.2305,-2.2305,-2.2305,-2.2296,-2.2268,-2.2217,-2.2106,-2.2007,-2.1943,-2.1855,-2.1804,-2.1789,-2.1825,-2.1863,-2.2056,-2.2113,-2.1982,-2.2237,-2.2468,-2.2578,-2.2635,-2.2808,-2.3057,-2.3098,-2.3098,-1.9726,-1.9715,-1.9715,-1.9715,-1.9715,-1.9715,-1.9715,-1.9664,-1.9464,-1.9501,-1.9628,-1.9079,-1.8924,-1.9075,-1.8898,-1.881,-1.8777,-1.9206,-1.9154,-1.8822,-1.918,-1.9269,-1.915,-1.9534,-1.9715,-1.9715,-1.9715,-1.9864,-2.0191,-2.0421,-2.0787,-2.1277,-2.1472,-2.1277,-2.0713,-2.0379,-1.9851,-1.908,-1.8038,-1.7486,-1.7486,-1.7486,-1.7341,-1.7001,-1.6636,-1.6246,-1.5898,-1.5191,-1.4667,-1.4403,-1.3884,-1.3429,-1.3073,-1.2953,-1.3069,-1.3443,-1.3398,-1.3643,-1.4283,-1.467,-1.472,-1.4419,-1.5276,-1.5997,-1.637,-1.5763,-1.6014,-1.7514,-1.8888,-1.9718,-1.9718,-2.0071,-2.0381,-2.0518,-2.0982,-2.1346,-2.1562,-2.2005,-2.2305,-2.2305,-2.2305,-2.2305,-2.2305,-2.2305,-2.2305,-2.2305,-2.2305,-2.2305,-2.2305,-2.2305,-2.2305,-2.2305,-2.2305,-2.2282,-2.2231,-2.2157,-2.2061,-2.1955,-2.1899,-2.1848,-2.1804,-2.1789,-2.1832,-2.194,-2.2039,-2.2059,-2.1956,-2.224,-2.2448,-2.2517,-2.2659,-2.2859,-2.3045,-2.3098,-2.3098,-1.9715,-1.9715,-1.9715,-1.9715,-1.9715,-1.9715,-1.9715,-1.9664,-1.9276,-1.9288,-1.949,-1.915,-1.9064,-1.9225,-1.915,-1.8974,-1.8827,-1.9087,-1.9019,-1.8707,-1.9049,-1.9195,-1.915,-1.9508,-1.9715,-1.9715,-1.9715,-1.9864,-2.0208,-2.0588,-2.103,-2.1402,-2.1678,-2.1514,-2.0967,-2.0785,-2.042,-1.9805,-1.8452,-1.7715,-1.771,-1.7577,-1.7486,-1.7453,-1.6948,-1.6644,-1.6611,-1.5868,-1.5307,-1.5046,-1.4646,-1.4299,-1.4108,-1.3807,-1.3752,-1.3969,-1.3969,-1.4259,-1.4975,-1.5521,-1.5603,-1.52,-1.6053,-1.6724,-1.6935,-1.6855,-1.7139,-1.8014,-1.9414,-2.0158,-1.995,-2.0106,-2.0348,-2.0512,-2.0974,-2.1377,-2.1539,-2.1988,-2.2305,-2.2305,-2.2305,-2.2305,-2.2305,-2.2305,-2.2305,-2.2305,-2.2305,-2.2305,-2.2305,-2.2305,-2.2305,-2.2305,-2.2305,-2.2276,-2.2197,-2.2098,-2.1992,-2.1928,-2.184,-2.1804,-2.1789,-2.1789,-2.184,-2.1984,-2.2004,-2.201,-2.2054,-2.2237,-2.2397,-2.2467,-2.2656,-2.2859,-2.3049,-2.3098,-2.3098,-1.9715,-1.9715,-1.9715,-1.9715,-1.9715,-1.9715,-1.9715,-1.9661,-1.9269,-1.912,-1.9165,-1.8753,-1.8966,-1.9537,-1.925,-1.9225,-1.9519,-1.9628,-1.9428,-1.9113,-1.9446,-1.9464,-1.9169,-1.9501,-1.9715,-1.9715,-1.9715,-1.9889,-2.0208,-2.0613,-2.1119,-2.1676,-2.1789,-2.1764,-2.163,-2.1042,-2.0669,-2.0577,-1.9164,-1.8398,-1.8369,-1.7818,-1.7486,-1.7486,-1.7428,-1.7407,-1.7317,-1.6411,-1.5824,-1.5717,-1.4762,-1.4147,-1.4068,-1.3528,-1.3645,-1.4603,-1.4498,-1.4745,-1.5596,-1.5776,-1.5899,-1.6062,-1.6324,-1.6746,-1.7212,-1.7104,-1.7817,-1.9346,-2.0097,-2.027,-2.0227,-2.027,-2.051,-2.0974,-2.1222,-2.1532,-2.202,-2.2276,-2.2305,-2.2305,-2.2305,-2.2305,-2.2305,-2.2305,-2.2305,-2.2305,-2.2305,-2.2305,-2.2305,-2.2305,-2.2305,-2.2305,-2.2305,-2.2276,-2.2205,-2.2083,-2.1978,-2.1905,-2.184,-2.1804,-2.1789,-2.1789,-2.1819,-2.1855,-2.1855,-2.1846,-2.1882,-2.199,-2.2251,-2.2476,-2.266,-2.2863,-2.3049,-2.3098,-2.3098,-1.9715,-1.9715,-1.9715,-1.9715,-1.9715,-1.9715,-1.9715,-1.9654,-1.928,-1.9225,-1.9347,-1.8796,-1.87,-1.8959,-1.8815,-1.8966,-1.9336,-1.9592,-1.9636,-1.9457,-1.9628,-1.9617,-1.949,-1.9617,-1.9715,-1.9715,-1.9715,-1.9864,-2.0243,-2.0795,-2.134,-2.1744,-2.1789,-2.1789,-2.1756,-2.1497,-2.1356,-2.1315,-2.0323,-1.9581,-1.9085,-1.8062,-1.7486,-1.7474,-1.7309,-1.7212,-1.7154,-1.6615,-1.6228,-1.6072,-1.5606,-1.5258,-1.5116,-1.4842,-1.4886,-1.5349,-1.5304,-1.5387,-1.5784,-1.6136,-1.6306,-1.6275,-1.7275,-1.7948,-1.801,-1.8036,-1.8695,-1.9908,-2.027,-2.0287,-2.0287,-2.0287,-2.0416,-2.0712,-2.1039,-2.1408,-2.1668,-2.2063,-2.2305,-2.2305,-2.2305,-2.2305,-2.2305,-2.2305,-2.2305,-2.2305,-2.2305,-2.2305,-2.2305,-2.2305,-2.2305,-2.2296,-2.2268,-2.2234,-2.2191,-2.2063,-2.1949,-2.1905,-2.184,-2.1789,-2.1789,-2.1789,-2.1789,-2.1789,-2.1789,-2.1789,-2.1796,-2.1961,-2.2186,-2.2439,-2.276,-2.3003,-2.3086,-2.3098,-2.3098,-1.9715,-1.9715,-1.9715,-1.9715,-1.9715,-1.9715,-1.9715,-1.9661,-1.928,-1.9262,-1.9453,-1.8796,-1.8572,-1.8669,-1.8655,-1.8829,-1.9146,-1.9501,-1.9715,-1.9715,-1.9715,-1.9715,-1.9715,-1.9715,-1.9715,-1.9715,-1.9715,-1.995,-2.037,-2.0828,-2.1331,-2.173,-2.1789,-2.1789,-2.1789,-2.1789,-2.1789,-2.1738,-2.1066,-2.0439,-1.9775,-1.8438,-1.7621,-1.7496,-1.7187,-1.7005,-1.7005,-1.6686,-1.6402,-1.6202,-1.6127,-1.6004,-1.5827,-1.5814,-1.5814,-1.5829,-1.5964,-1.6039,-1.6039,-1.663,-1.6968,-1.7052,-1.824,-1.8885,-1.8834,-1.9027,-1.9471,-1.9993,-2.0235,-2.0287,-2.0287,-2.0287,-2.0331,-2.045,-2.0958,-2.1315,-2.1486,-2.1959,-2.2305,-2.2305,-2.2305,-2.2305,-2.2305,-2.2305,-2.2305,-2.2305,-2.2305,-2.2305,-2.2355,-2.2465,-2.2617,-2.258,-2.2674,-2.2582,-2.2255,-2.2017,-2.1928,-2.1878,-2.1834,-2.1789,-2.1789,-2.1789,-2.1789,-2.1789,-2.1789,-2.1796,-2.1796,-2.1947,-2.2167,-2.2485,-2.2808,-2.304,-2.3095,-2.3095,-2.3095,-1.9715,-1.9715,-1.9715,-1.9715,-1.9715,-1.9715,-1.9715,-1.9682,-1.9306,-1.9139,-1.9124,-1.8681,-1.87,-1.9045,-1.9,-1.9071,-1.9157,-1.9527,-1.9715,-1.9715,-1.9715,-1.9715,-1.9715,-1.9715,-1.9715,-1.9715,-1.9715,-2.0048,-2.0696,-2.068,-2.1015,-2.1759,-2.1789,-2.1789,-2.1789,-2.1789,-2.1789,-2.1715,-2.1133,-2.0685,-2.0442,-1.8974,-1.7985,-1.7579,-1.7175,-1.6955,-1.6922,-1.6501,-1.6211,-1.6203,-1.5961,-1.5835,-1.5814,-1.5814,-1.5814,-1.5918,-1.6338,-1.6659,-1.6726,-1.7279,-1.7869,-1.8438,-1.8808,-1.9123,-1.9334,-1.9791,-2.0003,-1.978,-2.0123,-2.0287,-2.0287,-2.0287,-2.0416,-2.0678,-2.1055,-2.1416,-2.1723,-2.2034,-2.2276,-2.2305,-2.2305,-2.2305,-2.2305,-2.2305,-2.2305,-2.2319,-2.2319,-2.2319,-2.2412,-2.2868,-2.3207,-2.3304,-2.3508,-2.3632,-2.2392,-2.2293,-2.2127,-2.1998,-2.2068,-2.1831,-2.1797,-2.1789,-2.1789,-2.1789,-2.1789,-2.1796,-2.1817,-2.1949,-2.2178,-2.2458,-2.2734,-2.294,-2.3049,-2.3024,-2.3036,-1.9715,-1.9715,-1.9715,-1.9715,-1.9715,-1.9715,-1.9715,-1.9682,-1.9556,-1.9483,-1.9373,-1.8796,-1.8726,-1.9108,-1.8822,-1.9011,-1.9472,-1.9628,-1.9715,-1.9715,-1.9715,-1.9715,-1.9715,-1.9715,-1.9715,-1.9715,-1.9715,-2.0083,-2.072,-2.0761,-2.1071,-2.1676,-2.1789,-2.1789,-2.1789,-2.1789,-2.1789,-2.1756,-2.1499,-2.1182,-2.0735,-2.0083,-1.9267,-1.8153,-1.706,-1.6485,-1.6485,-1.6128,-1.5948,-1.5933,-1.5848,-1.5814,-1.5814,-1.5814,-1.6181,-1.6892,-1.6809,-1.6875,-1.7339,-1.7968,-1.844,-1.8712,-1.9303,-1.9657,-1.9813,-2.0103,-2.0235,-2.0141,-2.02,-2.0287,-2.0287,-2.0287,-2.0331,-2.0503,-2.095,-2.1346,-2.1547,-2.1961,-2.2305,-2.2305,-2.2305,-2.2305,-2.2305,-2.2305,-2.2305,-2.2302,-2.2438,-2.2494,-2.2499,-2.3071,-2.3644,-2.3477,-2.3786,-2.4018,-2.3554,-2.3316,-2.3162,-2.2716,-2.2485,-2.2195,-2.2062,-2.1847,-2.1797,-2.1783,-2.1783,-2.173,-2.1721,-2.172,-2.1984,-2.2273,-2.2567,-2.2807,-2.2977,-2.2974,-2.299,-1.9715,-1.9715,-1.9715,-1.9715,-1.9715,-1.9715,-1.9715,-1.9715,-1.9715,-1.9715,-1.9592,-1.9117,-1.9049,-1.9225,-1.9011,-1.9147,-1.9679,-1.9715,-1.9715,-1.9715,-1.9715,-1.9715,-1.9715,-1.9715,-1.9754,-1.9864,-1.9952,-2.0342,-2.0885,-2.0918,-2.1222,-2.1766,-2.1789,-2.1789,-2.1789,-2.1789,-2.1789,-2.1789,-2.1789,-2.1547,-2.1069,-2.0724,-2.0121,-1.9053,-1.7648,-1.6691,-1.6359,-1.618,-1.5971,-1.5836,-1.5814,-1.5814,-1.5821,-1.6188,-1.678,-1.7542,-1.7488,-1.7525,-1.8012,-1.8633,-1.9034,-1.9074,-1.9605,-1.9998,-2.0058,-2.0208,-2.0287,-2.0287,-2.0287,-2.0287,-2.0287,-2.0287,-2.0287,-2.0382,-2.091,-2.13,-2.1338,-2.1907,-2.2251,-2.2319,-2.2305,-2.2305,-2.2305,-2.2305,-2.2431,-2.2592,-2.2823,-2.2883,-2.3107,-2.3737,-2.4273,-2.4064,-2.4634,-2.4946,-2.4805,-2.4721,-2.41,-2.3586,-2.2882,-2.2568,-2.2268,-2.2028,-2.1791,-2.1761,-2.1716,-2.1671,-2.1609,-2.1584,-2.1777,-2.2051,-2.2339,-2.259,-2.276,-2.2923,-2.2971,-1.9715,-1.9715,-1.9715,-1.9715,-1.9715,-1.9715,-1.9715,-1.9715,-1.9715,-1.9715,-1.969,-1.9617,-1.953,-1.9639,-1.953,-1.9646,-1.9697,-1.9715,-1.9715,-1.9715,-1.9715,-1.9715,-1.9715,-1.9715,-1.9871,-2.0156,-2.0455,-2.082,-2.1214,-2.1158,-2.1346,-2.1721,-2.1789,-2.1789,-2.1789,-2.1789,-2.1789,-2.1789,-2.1789,-2.1756,-2.1668,-2.0891,-2.035,-2.0051,-1.8933,-1.778,-1.6734,-1.6696,-1.6488,-1.6001,-1.5933,-1.5844,-1.6114,-1.6937,-1.7684,-1.79,-1.8319,-1.862,-1.8755,-1.9288,-1.9613,-1.9682,-1.9887,-2.0025,-2.0071,-2.021,-2.0287,-2.0287,-2.0287,-2.0287,-2.0287,-2.0339,-2.0321,-2.0365,-2.0934,-2.1339,-2.1447,-2.1951,-2.2363,-2.2302,-2.2305,-2.2305,-2.2305,-2.2305,-2.2524,-2.3086,-2.3339,-2.3566,-2.4098,-2.4823,-2.5357,-2.5355,-2.5547,-2.578,-2.5985,-2.6053,-2.5193,-2.4365,-2.3537,-2.294,-2.2591,-2.2278,-2.182,-2.1701,-2.1542,-2.1481,-2.1418,-2.1424,-2.1635,-2.1913,-2.2169,-2.2528,-2.2937,-2.3167,-2.3015,-1.9715,-1.9715,-1.9715,-1.9715,-1.9715,-1.9715,-1.9715,-1.9715,-1.9715,-1.9715,-1.9661,-1.9417,-1.9446,-1.9574,-1.9428,-1.9446,-1.969,-1.9715,-1.9715,-1.9715,-1.9715,-1.9715,-1.9715,-1.9715,-1.9864,-2.0216,-2.0571,-2.0934,-2.1222,-2.1261,-2.1433,-2.1721,-2.1789,-2.1789,-2.1789,-2.1789,-2.1789,-2.1789,-2.1789,-2.1789,-2.1774,-2.1266,-2.0757,-2.0253,-1.9797,-1.9018,-1.7798,-1.7515,-1.7318,-1.7079,-1.7109,-1.7109,-1.7199,-1.7482,-1.8117,-1.8912,-1.8799,-1.8934,-1.9356,-1.9565,-1.9708,-1.9762,-1.9902,-1.9998,-2.0043,-2.02,-2.0287,-2.0287,-2.0287,-2.0287,-2.0321,-2.0518,-2.0543,-2.0329,-2.095,-2.1424,-2.1509,-2.2003,-2.2316,-2.2319,-2.2305,-2.2305,-2.2305,-2.2305,-2.266,-2.3314,-2.3598,-2.3969,-2.451,-2.5323,-2.5622,-2.5447,-2.5966,-2.6338,-2.624,-2.6136,-2.5647,-2.4961,-2.4224,-2.324,-2.2835,-2.2455,-2.199,-2.1541,-2.1403,-2.1294,-2.123,-2.1277,-2.1461,-2.1758,-2.2026,-2.2581,-2.3294,-2.3488,-2.3423,-1.9715,-1.9715,-1.9715,-1.9715,-1.9715,-1.9715,-1.9715,-1.9715,-1.9715,-1.9715,-1.9654,-1.9446,-1.9453,-1.961,-1.9428,-1.9472,-1.9697,-1.9715,-1.9715,-1.9715,-1.9715,-1.9715,-1.978,-2.0013,-2.0222,-2.0479,-2.0934,-2.1269,-2.1472,-2.1479,-2.1602,-2.1766,-2.1789,-2.1789,-2.1789,-2.1789,-2.1789,-2.1789,-2.1789,-2.1736,-2.1602,-2.1402,-2.1012,-2.0487,-2.0271,-1.9794,-1.8967,-1.8625,-1.8199,-1.787,-1.7923,-1.7968,-1.7781,-1.8164,-1.8829,-1.9368,-1.9368,-1.9271,-1.9663,-1.97,-1.9751,-1.9823,-1.9919,-2.0033,-2.0121,-2.0245,-2.0287,-2.0287,-2.0287,-2.0287,-2.0339,-2.0603,-2.0686,-2.0518,-2.1174,-2.1653,-2.1855,-2.2155,-2.2358,-2.2344,-2.2316,-2.2305,-2.2305,-2.2617,-2.2995,-2.3657,-2.42,-2.4703,-2.5199,-2.58,-2.5798,-2.5807,-2.6056,-2.6235,-2.6205,-2.6103,-2.5987,-2.5482,-2.492,-2.3827,-2.3027,-2.2625,-2.2191,-2.1486,-2.1175,-2.1063,-2.0982,-2.095,-2.1063,-2.1458,-2.2054,-2.2766,-2.3482,-2.395,-2.396,-1.9715,-1.9715,-1.9715,-1.9715,-1.9715,-1.9715,-1.9715,-1.9715,-1.9715,-1.9715,-1.9708,-1.9672,-1.9672,-1.9715,-1.9646,-1.9679,-1.9715,-1.9715,-1.9715,-1.9715,-1.9715,-1.9715,-1.9787,-2.0359,-2.0678,-2.0836,-2.1409,-2.173,-2.173,-2.1736,-2.1789,-2.1789,-2.1789,-2.1789,-2.1789,-2.1789,-2.1789,-2.1789,-2.1759,-2.1602,-2.1316,-2.1206,-2.1039,-2.069,-2.0322,-2.006,-1.9901,-1.9627,-1.9016,-1.811,-1.8476,-1.8498,-1.8214,-1.9024,-1.9625,-1.969,-1.9693,-1.9655,-1.9708,-1.9715,-1.978,-1.9919,-1.998,-2.0086,-2.021,-2.027,-2.0287,-2.0287,-2.0287,-2.0287,-2.0363,-2.0662,-2.086,-2.0999,-2.1538,-2.2058,-2.2484,-2.246,-2.2399,-2.2372,-2.2338,-2.2305,-2.2338,-2.2877,-2.3594,-2.4313,-2.498,-2.5584,-2.6135,-2.6345,-2.6411,-2.6366,-2.6245,-2.6208,-2.6203,-2.6161,-2.5994,-2.5444,-2.5106,-2.4536,-2.3358,-2.2842,-2.2353,-2.165,-2.1214,-2.1019,-2.1049,-2.1225,-2.1416,-2.1883,-2.2505,-2.3104,-2.3516,-2.3912,-2.4088,-1.9715,-1.9715,-1.9715,-1.9715,-1.9715,-1.9715,-1.9715,-1.9715,-1.9715,-1.9715,-1.9715,-1.9715,-1.9715,-1.9715,-1.9715,-1.9715,-1.9715,-1.9715,-1.9715,-1.9715,-1.9715,-1.9715,-1.9851,-2.0444,-2.0819,-2.0925,-2.1463,-2.1789,-2.1789,-2.1789,-2.1789,-2.1789,-2.1789,-2.1789,-2.1789,-2.1789,-2.1789,-2.1753,-2.1541,-2.1418,-2.123,-2.0746,-2.0447,-2.0336,-2.0015,-1.9846,-1.9836,-1.9762,-1.9585,-1.9266,-1.9316,-1.9386,-1.9159,-1.9498,-1.9715,-1.9715,-1.9715,-1.9715,-1.9715,-1.9715,-1.9762,-1.9848,-1.9962,-2.0043,-2.0133,-2.0245,-2.0287,-2.0287,-2.0287,-2.0287,-2.039,-2.0828,-2.1331,-2.192,-2.1992,-2.2101,-2.2382,-2.2419,-2.2386,-2.2347,-2.231,-2.2319,-2.2468,-2.2995,-2.3727,-2.4438,-2.5186,-2.5839,-2.6387,-2.652,-2.6443,-2.6355,-2.6251,-2.6231,-2.6212,-2.6185,-2.5925,-2.5315,-2.5164,-2.531,-2.4115,-2.3132,-2.2562,-2.1887,-2.1801,-2.1633,-2.195,-2.2233,-2.2419,-2.237,-2.2595,-2.3009,-2.3298,-2.3638,-2.3755,-1.9715,-1.9715,-1.9715,-1.9715,-1.9715,-1.9715,-1.9715,-1.9715,-1.9715,-1.9715,-1.9715,-1.9715,-1.9715,-1.9715,-1.9715,-1.9715,-1.9715,-1.9715,-1.9715,-1.9744,-1.9854,-1.9917,-2.0102,-2.0663,-2.1006,-2.1071,-2.1548,-2.1759,-2.1789,-2.1789,-2.1789,-2.1789,-2.1789,-2.1789,-2.1789,-2.1789,-2.1789,-2.173,-2.1464,-2.1254,-2.1055,-2.0505,-2.0164,-2.0015,-1.979,-1.9715,-1.9715,-1.9715,-1.9715,-1.97,-1.9708,-1.9715,-1.9715,-1.9715,-1.9715,-1.9715,-1.9715,-1.9715,-1.9715,-1.9718,-1.9787,-1.9891,-1.9998,-2.008,-2.0168,-2.0252,-2.0287,-2.0287,-2.0287,-2.0287,-2.0416,-2.0934,-2.163,-2.2226,-2.226,-2.2251,-2.2492,-2.2487,-2.2432,-2.2377,-2.233,-2.2358,-2.2483,-2.3277,-2.399,-2.4674,-2.5539,-2.6042,-2.6462,-2.6443,-2.639,-2.6302,-2.6248,-2.6212,-2.613,-2.6104,-2.6015,-2.542,-2.5141,-2.5368,-2.4604,-2.3465,-2.2936,-2.2471,-2.2374,-2.2453,-2.2816,-2.2955,-2.2675,-2.2654,-2.2736,-2.2969,-2.3349,-2.35,-2.3569,-1.9715,-1.9715,-1.9715,-1.9715,-1.9715,-1.9715,-1.9715,-1.9715,-1.9715,-1.9715,-1.9715,-1.9715,-1.9715,-1.9715,-1.9715,-1.9715,-1.9715,-1.9715,-1.9715,-1.9826,-2.0032,-2.0267,-2.0353,-2.0926,-2.1222,-2.1309,-2.1632,-2.1774,-2.1789,-2.1789,-2.1789,-2.1789,-2.1789,-2.1789,-2.1789,-2.1789,-2.1789,-2.1721,-2.1456,-2.1151,-2.0852,-2.0429,-2.0077,-1.9815,-1.9744,-1.9715,-1.9715,-1.9715,-1.9715,-1.9715,-1.9715,-1.9715,-1.9715,-1.9715,-1.9715,-1.9715,-1.9715,-1.9715,-1.9715,-1.9751,-1.9823,-1.9937,-2.0035,-2.015,-2.0227,-2.027,-2.0287,-2.0287,-2.0314,-2.045,-2.0678,-2.1135,-2.1691,-2.2271,-2.2424,-2.2525,-2.2619,-2.2574,-2.2487,-2.2474,-2.238,-2.2446,-2.2856,-2.3631,-2.4502,-2.4619,-2.5478,-2.6116,-2.6387,-2.6408,-2.6337,-2.6247,-2.6194,-2.6158,-2.6076,-2.5985,-2.5877,-2.5592,-2.5263,-2.5152,-2.4692,-2.3851,-2.3382,-2.3081,-2.3207,-2.3408,-2.3724,-2.3603,-2.3312,-2.3145,-2.3357,-2.3509,-2.3659,-2.3614,-2.3629,-1.9715,-1.9715,-1.9715,-1.9715,-1.9715,-1.9715,-1.9715,-1.9715,-1.9715,-1.9715,-1.9715,-1.9715,-1.9715,-1.9715,-1.9715,-1.9715,-1.9715,-1.9715,-1.9715,-1.9797,-2.0385,-2.0637,-2.0753,-2.1127,-2.1301,-2.1394,-2.1648,-2.1797,-2.1789,-2.1789,-2.1789,-2.1789,-2.1789,-2.1789,-2.1789,-2.1789,-2.1789,-2.1744,-2.148,-2.1127,-2.0778,-2.0412,-2.0042,-1.9744,-1.9715,-1.9715,-1.9715,-1.9715,-1.9715,-1.9715,-1.9715,-1.9715,-1.9715,-1.9715,-1.9715,-1.9715,-1.9715,-1.9715,-1.9715,-1.9726,-1.9762,-1.9848,-1.9965,-2.0061,-2.0133,-2.0262,-2.0304,-2.0339,-2.052,-2.0901,-2.1308,-2.1579,-2.193,-2.2262,-2.241,-2.2451,-2.252,-2.252,-2.2451,-2.2377,-2.2372,-2.2386,-2.2453,-2.3342,-2.4107,-2.4599,-2.5305,-2.6064,-2.6295,-2.6383,-2.6293,-2.6212,-2.6094,-2.604,-2.5924,-2.5803,-2.5645,-2.5543,-2.5294,-2.5115,-2.4631,-2.4373,-2.3941,-2.3964,-2.4182,-2.44,-2.4618,-2.4799,-2.4622,-2.4314,-2.386,-2.3704,-2.3613,-2.3614,-2.3845,-1.9715,-1.9715,-1.9715,-1.9715,-1.9715,-1.9715,-1.9715,-1.9715,-1.9715,-1.9715,-1.9715,-1.9715,-1.9715,-1.9715,-1.9715,-1.9715,-1.9715,-1.9715,-1.9715,-1.9887,-2.0427,-2.0786,-2.0942,-2.1285,-2.1549,-2.1563,-2.17,-2.1789,-2.1789,-2.1789,-2.1789,-2.1789,-2.1789,-2.1789,-2.1789,-2.1789,-2.1789,-2.1738,-2.1464,-2.1135,-2.0794,-2.0412,-2.0025,-1.9772,-1.9715,-1.9715,-1.9715,-1.9715,-1.9715,-1.9715,-1.9715,-1.9715,-1.9715,-1.9715,-1.9715,-1.9715,-1.9715,-1.9715,-1.9715,-1.9744,-1.978,-1.9812,-1.9919,-2.0018,-2.0143,-2.0298,-2.0469,-2.057,-2.0853,-2.1245,-2.173,-2.1825,-2.2032,-2.2299,-2.241,-2.246,-2.2487,-2.2474,-2.2432,-2.2358,-2.2344,-2.2506,-2.2834,-2.3313,-2.4123,-2.4807,-2.542,-2.6142,-2.6463,-2.6512,-2.6293,-2.615,-2.6011,-2.5875,-2.576,-2.5602,-2.5402,-2.5286,-2.5151,-2.5053,-2.4851,-2.4719,-2.4582,-2.4706,-2.4857,-2.5244,-2.546,-2.5672,-2.5495,-2.4685,-2.4089,-2.375,-2.3491,-2.3452,-2.3871,-1.9715,-1.9715,-1.9715,-1.9715,-1.9715,-1.9715,-1.9715,-1.9715,-1.9715,-1.9715,-1.9715,-1.9715,-1.9715,-1.9715,-1.9715,-1.9715,-1.9715,-1.9715,-1.9715,-1.9823,-2.0461,-2.0769,-2.0958,-2.1402,-2.1753,-2.1789,-2.1789,-2.1789,-2.1789,-2.1789,-2.1789,-2.1789,-2.1789,-2.1789,-2.1789,-2.1789,-2.1789,-2.1753,-2.1556,-2.1262,-2.0958,-2.0605,-2.0267,-1.9882,-1.9843,-1.9772,-1.9744,-1.9715,-1.9715,-1.9715,-1.9715,-1.9715,-1.9715,-1.9715,-1.9715,-1.9715,-1.9715,-1.9715,-1.9708,-1.9744,-1.978,-1.9797,-1.9983,-2.0088,-2.0212,-2.0487,-2.0696,-2.086,-2.1095,-2.1494,-2.1842,-2.1959,-2.212,-2.2321,-2.2441,-2.2482,-2.246,-2.2405,-2.2386,-2.2408,-2.238,-2.2474,-2.2761,-2.3196,-2.4137,-2.4991,-2.5568,-2.6081,-2.639,-2.6598,-2.6357,-2.6134,-2.5989,-2.5654,-2.5489,-2.5405,-2.5201,-2.5151,-2.5025,-2.5005,-2.5005,-2.4906,-2.488,-2.5269,-2.5501,-2.5811,-2.6098,-2.6286,-2.5838,-2.4908,-2.4616,-2.4596,-2.409,-2.3388,-2.3939,-1.9715,-1.9715,-1.9715,-1.9715,-1.9715,-1.9715,-1.9715,-1.9715,-1.9715,-1.9715,-1.9715,-1.9715,-1.9715,-1.9715,-1.9715,-1.9715,-1.9715,-1.9715,-1.9715,-1.9833,-2.0435,-2.0802,-2.0942,-2.1463,-2.1774,-2.1789,-2.1789,-2.1789,-2.1789,-2.1789,-2.1789,-2.1789,-2.1789,-2.1789,-2.1789,-2.1789,-2.1789,-2.1789,-2.1685,-2.1487,-2.1206,-2.0998,-2.0697,-2.0181,-2.0102,-1.9962,-1.9772,-1.9733,-1.9715,-1.9715,-1.9715,-1.9715,-1.9715,-1.9715,-1.9715,-1.9715,-1.9715,-1.9715,-1.9708,-1.9715,-1.9726,-1.98,-2.0048,-2.0291,-2.0436,-2.0787,-2.0999,-2.1071,-2.134,-2.173,-2.2157,-2.2172,-2.2231,-2.2324,-2.2358,-2.238,-2.2358,-2.2399,-2.2419,-2.2501,-2.2468,-2.2455,-2.2766,-2.3045,-2.3623,-2.4302,-2.4845,-2.5465,-2.5957,-2.6269,-2.642,-2.6219,-2.602,-2.5586,-2.5174,-2.5135,-2.5045,-2.5064,-2.5005,-2.5005,-2.5005,-2.5005,-2.5138,-2.5338,-2.5734,-2.6105,-2.6402,-2.6725,-2.6396,-2.5622,-2.5562,-2.5545,-2.4721,-2.3948,-2.4319,-1.9715,-1.9715,-1.9715,-1.9715,-1.9715,-1.9715,-1.9715,-1.9715,-1.9715,-1.9715,-1.9715,-1.9715,-1.9715,-1.9715,-1.9715,-1.9715,-1.9733,-1.9715,-1.9715,-1.9869,-2.0426,-2.081,-2.0901,-2.1502,-2.173,-2.1789,-2.1789,-2.1789,-2.1789,-2.1789,-2.1789,-2.1789,-2.1789,-2.1789,-2.1789,-2.1789,-2.1789,-2.1789,-2.1774,-2.1648,-2.1309,-2.1175,-2.0811,-2.0605,-2.0302,-2.0122,-1.9972,-1.9754,-1.9708,-1.9715,-1.9715,-1.9715,-1.9715,-1.9733,-1.9715,-1.9715,-1.9715,-1.9715,-1.9715,-1.9715,-1.9715,-1.9747,-2.0085,-2.0309,-2.053,-2.0918,-2.1363,-2.1602,-2.1708,-2.2034,-2.2268,-2.2305,-2.2305,-2.2324,-2.2391,-2.2465,-2.2533,-2.2632,-2.2663,-2.2663,-2.252,-2.256,-2.2764,-2.3007,-2.3214,-2.3633,-2.4152,-2.4779,-2.5449,-2.5813,-2.6109,-2.5964,-2.5701,-2.5427,-2.5076,-2.5045,-2.5005,-2.5005,-2.5005,-2.5005,-2.5005,-2.5005,-2.5037,-2.515,-2.5639,-2.6149,-2.6581,-2.6841,-2.6566,-2.6359,-2.6113,-2.5762,-2.5062,-2.4721,-2.4991,-1.9715,-1.9715,-1.9715,-1.9715,-1.9715,-1.9715,-1.9715,-1.9715,-1.9715,-1.9715,-1.9715,-1.9715,-1.9715,-1.9733,-1.979,-1.9854,-1.9889,-1.9957,-1.9993,-2.0125,-2.062,-2.0917,-2.1087,-2.1425,-2.1789,-2.1789,-2.1789,-2.1789,-2.1789,-2.1789,-2.1789,-2.1789,-2.1789,-2.1789,-2.1789,-2.1789,-2.1789,-2.1789,-2.1789,-2.1648,-2.1402,-2.1087,-2.0893,-2.0836,-2.0438,-2.0199,-2.0129,-1.998,-1.9782,-1.9754,-1.9762,-1.9764,-1.9718,-1.9772,-1.9772,-1.9726,-1.9715,-1.9718,-1.979,-1.9726,-1.9797,-2.0023,-2.0189,-2.0378,-2.0713,-2.1261,-2.1773,-2.2189,-2.2291,-2.226,-2.2305,-2.2305,-2.2338,-2.2422,-2.2542,-2.2667,-2.2769,-2.2863,-2.2906,-2.2816,-2.2619,-2.2663,-2.2863,-2.2872,-2.3059,-2.3185,-2.3693,-2.4263,-2.4888,-2.527,-2.5503,-2.5452,-2.5312,-2.5166,-2.5005,-2.5025,-2.5005,-2.5005,-2.5005,-2.5005,-2.5005,-2.5005,-2.5037,-2.506,-2.5454,-2.5972,-2.6462,-2.6883,-2.6757,-2.661,-2.6408,-2.6204,-2.5902,-2.5471,-2.5393,-1.9715,-1.9715,-1.9715,-1.9715,-1.9715,-1.9715,-1.9715,-1.9715,-1.9715,-1.9715,-1.9715,-1.9715,-1.9708,-1.9808,-2.005,-2.0326,-2.0529,-2.057,-2.0544,-2.0604,-2.0974,-2.1183,-2.1277,-2.1625,-2.1774,-2.1789,-2.1789,-2.1789,-2.1789,-2.1789,-2.1789,-2.1789,-2.1789,-2.1789,-2.1789,-2.1789,-2.1789,-2.1789,-2.1789,-2.1759,-2.1693,-2.1394,-2.1262,-2.1071,-2.0663,-2.0285,-2.0285,-2.0181,-2.0042,-1.98,-2.0023,-1.998,-1.9818,-1.9997,-1.9927,-1.9808,-1.9744,-1.9821,-2.0015,-1.9952,-2.0038,-2.0418,-2.067,-2.0885,-2.119,-2.1554,-2.1995,-2.2254,-2.2305,-2.2305,-2.2305,-2.2302,-2.2419,-2.2528,-2.2601,-2.2786,-2.2935,-2.3124,-2.3173,-2.3173,-2.3026,-2.2935,-2.2976,-2.2914,-2.2881,-2.3004,-2.3231,-2.3786,-2.4387,-2.4821,-2.517,-2.5204,-2.5166,-2.5025,-2.4926,-2.4946,-2.4918,-2.4946,-2.4938,-2.4938,-2.4906,-2.4906,-2.4946,-2.508,-2.5424,-2.5736,-2.6202,-2.6556,-2.6815,-2.6932,-2.6837,-2.6963,-2.7092,-2.6575,-2.5799,-1.9736,-1.9715,-1.9715,-1.9715,-1.9715,-1.9715,-1.9715,-1.9715,-1.9715,-1.9715,-1.9715,-1.9715,-1.9808,-2.0058,-2.0385,-2.0629,-2.0786,-2.0835,-2.0819,-2.0901,-2.1159,-2.1301,-2.1379,-2.1632,-2.1789,-2.1789,-2.1789,-2.1789,-2.1789,-2.1789,-2.1789,-2.1789,-2.1789,-2.1789,-2.1759,-2.1789,-2.1789,-2.1789,-2.1789,-2.1789,-2.1759,-2.1678,-2.158,-2.1556,-2.1063,-2.0738,-2.0563,-2.0538,-2.0336,-2.0137,-2.0351,-2.0241,-2.0005,-2.0206,-2.0572,-2.0934,-2.0513,-2.0309,-2.0224,-2.0266,-2.052,-2.0737,-2.099,-2.1238,-2.1577,-2.1823,-2.2064,-2.2226,-2.2296,-2.2305,-2.2352,-2.2446,-2.256,-2.2659,-2.2795,-2.3022,-2.3212,-2.3344,-2.3448,-2.3457,-2.3422,-2.3271,-2.3091,-2.2969,-2.2872,-2.2863,-2.2886,-2.3113,-2.3869,-2.4613,-2.4924,-2.5131,-2.5076,-2.4974,-2.4894,-2.4854,-2.4779,-2.4779,-2.4751,-2.4751,-2.4738,-2.4759,-2.4819,-2.4846,-2.4974,-2.5387,-2.5906,-2.6367,-2.6749,-2.703,-2.7315,-2.7204,-2.7075,-2.6644,-2.6135,-1.9843,-1.9715,-1.9715,-1.9715,-1.9715,-1.9715,-1.9715,-1.9715,-1.9715,-1.9715,-1.9744,-1.9818,-2.0067,-2.0455,-2.0795,-2.0982,-2.1071,-2.1039,-2.1039,-2.1159,-2.1277,-2.141,-2.1518,-2.1706,-2.1789,-2.1789,-2.1789,-2.1789,-2.1789,-2.1789,-2.1783,-2.1761,-2.1723,-2.1693,-2.1685,-2.1708,-2.1746,-2.1789,-2.1789,-2.1789,-2.1774,-2.1676,-2.17,-2.1624,-2.1418,-2.1119,-2.0966,-2.0933,-2.0721,-2.0513,-2.0712,-2.0621,-2.0241,-2.0605,-2.1127,-2.1409,-2.1206,-2.0901,-2.0713,-2.0663,-2.0868,-2.1079,-2.1238,-2.1541,-2.1797,-2.1943,-2.1992,-2.2141,-2.2175,-2.2229,-2.2358,-2.2533,-2.2729,-2.2914,-2.3118,-2.3348,-2.3529,-2.3497,-2.3538,-2.3575,-2.3529,-2.3457,-2.3283,-2.3051,-2.2897,-2.2777,-2.2693,-2.2625,-2.3324,-2.4265,-2.4662,-2.4887,-2.4918,-2.4846,-2.4786,-2.4726,-2.4678,-2.463,-2.4602,-2.4602,-2.463,-2.463,-2.467,-2.467,-2.4718,-2.5219,-2.5842,-2.6279,-2.6716,-2.7056,-2.7272,-2.7014,-2.6782,-2.6454,-2.6581,-2.0093,-1.9715,-1.9715,-1.9715,-1.9715,-1.9715,-1.9715,-1.9715,-1.9715,-1.9708,-1.979,-2.0067,-2.0589,-2.1055,-2.123,-2.1418,-2.1676,-2.1721,-2.1654,-2.1646,-2.1751,-2.17,-2.1721,-2.1736,-2.1789,-2.1789,-2.1774,-2.1759,-2.1774,-2.1715,-2.1686,-2.165,-2.1664,-2.1503,-2.1495,-2.1617,-2.1731,-2.1783,-2.1789,-2.1789,-2.1706,-2.1609,-2.1556,-2.1616,-2.1269,-2.0966,-2.1246,-2.1254,-2.1119,-2.0795,-2.1071,-2.1143,-2.0861,-2.1047,-2.1487,-2.1639,-2.1685,-2.1402,-2.1222,-2.1023,-2.115,-2.1517,-2.173,-2.1731,-2.1867,-2.1844,-2.1903,-2.2028,-2.211,-2.2203,-2.236,-2.2552,-2.285,-2.304,-2.3235,-2.3392,-2.3492,-2.3424,-2.3477,-2.363,-2.3597,-2.3454,-2.3345,-2.3119,-2.2952,-2.2812,-2.2719,-2.2669,-2.3092,-2.3883,-2.4326,-2.4579,-2.4664,-2.4666,-2.4638,-2.4597,-2.4577,-2.4549,-2.4508,-2.4528,-2.4569,-2.4561,-2.4549,-2.467,-2.4791,-2.5277,-2.5721,-2.613,-2.6564,-2.7056,-2.7237,-2.7083,-2.7049,-2.6937,-2.722,-1.9922,-1.9715,-1.9715,-1.9715,-1.9715,-1.9715,-1.9715,-1.9715,-1.9715,-1.9836,-2.0032,-2.0621,-2.1015,-2.1293,-2.1541,-2.167,-2.1789,-2.1789,-2.1789,-2.1789,-2.1789,-2.1789,-2.1789,-2.1789,-2.1789,-2.1759,-2.1723,-2.1679,-2.1664,-2.1617,-2.1418,-2.1388,-2.158,-2.1663,-2.1663,-2.1602,-2.1708,-2.1776,-2.1789,-2.1789,-2.1774,-2.1706,-2.167,-2.1715,-2.1646,-2.134,-2.1348,-2.1509,-2.1355,-2.1285,-2.1441,-2.1417,-2.1371,-2.1509,-2.1631,-2.1766,-2.1789,-2.1723,-2.1639,-2.1448,-2.1547,-2.1646,-2.1789,-2.1797,-2.1837,-2.1812,-2.1857,-2.1966,-2.2152,-2.2324,-2.2396,-2.2712,-2.3024,-2.316,-2.3304,-2.3447,-2.347,-2.3409,-2.3389,-2.3515,-2.3449,-2.333,-2.324,-2.3139,-2.3009,-2.2877,-2.277,-2.2764,-2.3099,-2.3457,-2.3887,-2.4334,-2.4465,-2.4556,-2.4544,-2.4523,-2.4495,-2.4475,-2.4426,-2.4446,-2.4467,-2.4434,-2.4434,-2.4609,-2.489,-2.537,-2.5756,-2.5997,-2.647,-2.7072,-2.7299,-2.728,-2.7297,-2.7315,-2.7621,-2.0003,-1.9861,-1.9736,-1.9715,-1.9715,-1.9715,-1.9715,-1.9715,-1.9715,-1.9977,-2.0412,-2.095,-2.1301,-2.1488,-2.167,-2.1766,-2.1789,-2.1789,-2.1789,-2.1789,-2.1789,-2.1759,-2.1761,-2.1731,-2.167,-2.1663,-2.1641,-2.1596,-2.1496,-2.1457,-2.1379,-2.1387,-2.1533,-2.1646,-2.1463,-2.1579,-2.1639,-2.1716,-2.1738,-2.1759,-2.1774,-2.1789,-2.1766,-2.1789,-2.1744,-2.1661,-2.1563,-2.1648,-2.1663,-2.1579,-2.1639,-2.1759,-2.1774,-2.1789,-2.1789,-2.1797,-2.1776,-2.1776,-2.1789,-2.1789,-2.1789,-2.1789,-2.1789,-2.1789,-2.1789,-2.1804,-2.184,-2.1992,-2.2274,-2.2501,-2.2515,-2.282,-2.3082,-2.3205,-2.3369,-2.3499,-2.3464,-2.3418,-2.3374,-2.3392,-2.3286,-2.317,-2.3071,-2.2967,-2.2803,-2.2597,-2.2301,-2.2351,-2.2668,-2.3042,-2.3439,-2.39,-2.4306,-2.4389,-2.4449,-2.4421,-2.4413,-2.4392,-2.4343,-2.433,-2.433,-2.4351,-2.45,-2.4747,-2.5091,-2.5481,-2.5854,-2.6208,-2.6666,-2.7161,-2.7274,-2.7338,-2.7315,-2.7338,-2.7615,-2.0512,-2.0156,-1.9861,-1.9744,-1.9744,-1.9715,-1.9715,-1.9708,-1.9744,-2.0108,-2.0654,-2.086,-2.1214,-2.1632,-2.1744,-2.1789,-2.1789,-2.1789,-2.1789,-2.1789,-2.1789,-2.1708,-2.1656,-2.161,-2.158,-2.1411,-2.1411,-2.1426,-2.1309,-2.1425,-2.141,-2.1348,-2.1417,-2.1486,-2.0934,-2.1063,-2.1309,-2.1566,-2.161,-2.1693,-2.1753,-2.1759,-2.1753,-2.1715,-2.1753,-2.17,-2.1693,-2.1738,-2.1753,-2.173,-2.1723,-2.1768,-2.1776,-2.1744,-2.1744,-2.1768,-2.1679,-2.1694,-2.1766,-2.1789,-2.1774,-2.1789,-2.1789,-2.1789,-2.1789,-2.1811,-2.1868,-2.2041,-2.2398,-2.2619,-2.2764,-2.2923,-2.3095,-2.3217,-2.336,-2.3404,-2.3357,-2.3313,-2.3235,-2.3214,-2.3102,-2.2974,-2.2881,-2.2773,-2.2591,-2.231,-2.1903,-2.199,-2.243,-2.2843,-2.3336,-2.3777,-2.4271,-2.43,-2.4359,-2.4338,-2.431,-2.4289,-2.4289,-2.4289,-2.4418,-2.4553,-2.4739,-2.4942,-2.5299,-2.5727,-2.61,-2.6469,-2.6892,-2.7234,-2.732,-2.7352,-2.7338,-2.7445,-2.7766,-2.0303,-2.0216,-2.0368,-2.0258,-2.0032,-1.9808,-1.9715,-1.9762,-1.9935,-2.0189,-2.0479,-2.0877,-2.1214,-2.1487,-2.1706,-2.1789,-2.1789,-2.1789,-2.1789,-2.1789,-2.1789,-2.1783,-2.1716,-2.1603,-2.1535,-2.145,-2.1403,-2.127,-2.1167,-2.1285,-2.1143,-2.1031,-2.119,-2.1285,-2.1417,-2.1548,-2.1654,-2.1723,-2.1723,-2.1723,-2.1671,-2.1664,-2.161,-2.1519,-2.1634,-2.1694,-2.1694,-2.1738,-2.1774,-2.1744,-2.1708,-2.1664,-2.1664,-2.1641,-2.1617,-2.1678,-2.1657,-2.1709,-2.1686,-2.1656,-2.1716,-2.1753,-2.1774,-2.1774,-2.1789,-2.1789,-2.1905,-2.2175,-2.2598,-2.2782,-2.2842,-2.2974,-2.3098,-2.3111,-2.3184,-2.3156,-2.3119,-2.3061,-2.3015,-2.301,-2.2947,-2.2889,-2.2816,-2.2649,-2.2463,-2.2501,-2.2217,-2.2434,-2.284,-2.3125,-2.3494,-2.3921,-2.4297,-2.4279,-2.4289,-2.4289,-2.4289,-2.4289,-2.4289,-2.4289,-2.4459,-2.4699,-2.502,-2.5264,-2.5612,-2.5977,-2.6427,-2.6825,-2.7048,-2.7274,-2.7412,-2.7502,-2.7526,-2.7725,-2.8051,-2.0277,-2.0404,-2.0538,-2.0538,-2.0353,-2.0032,-1.9818,-1.9747,-1.9935,-2.0077,-2.0319,-2.0853,-2.1198,-2.1371,-2.1632,-2.1789,-2.1789,-2.1789,-2.1789,-2.1789,-2.1789,-2.17,-2.1617,-2.1534,-2.1372,-2.1341,-2.123,-2.1087,-2.0998,-2.1006,-2.1023,-2.1023,-2.0925,-2.1175,-2.141,-2.1472,-2.1425,-2.1441,-2.1472,-2.1503,-2.152,-2.1535,-2.155,-2.1527,-2.1573,-2.1672,-2.165,-2.1672,-2.1708,-2.1624,-2.1556,-2.1496,-2.1481,-2.1511,-2.1488,-2.1534,-2.1549,-2.1549,-2.1442,-2.1481,-2.1557,-2.1709,-2.1739,-2.1753,-2.1774,-2.1789,-2.1986,-2.2304,-2.2782,-2.2902,-2.2932,-2.3057,-2.3061,-2.3061,-2.3036,-2.302,-2.3008,-2.2961,-2.2898,-2.2893,-2.2871,-2.2812,-2.2751,-2.2537,-2.2341,-2.2482,-2.2597,-2.2905,-2.3181,-2.3389,-2.3574,-2.3912,-2.4248,-2.4281,-2.4289,-2.4289,-2.4289,-2.4289,-2.4289,-2.4289,-2.4541,-2.4787,-2.5176,-2.5612,-2.6013,-2.6427,-2.6857,-2.7182,-2.7241,-2.7397,-2.7627,-2.7678,-2.7716,-2.7963,-2.8286,-2.0436,-2.072,-2.0379,-2.0496,-2.0712,-2.0402,-2.004,-1.9733,-1.9772,-1.996,-2.0206,-2.0646,-2.103,-2.1317,-2.1639,-2.1789,-2.1783,-2.1774,-2.1759,-2.1759,-2.1753,-2.1579,-2.1433,-2.1333,-2.1222,-2.1063,-2.0949,-2.0974,-2.0852,-2.0982,-2.1135,-2.1175,-2.1023,-2.1135,-2.1151,-2.1111,-2.1087,-2.123,-2.1277,-2.1317,-2.1341,-2.1442,-2.1434,-2.1426,-2.1527,-2.1549,-2.1542,-2.155,-2.1472,-2.1387,-2.1293,-2.1301,-2.1333,-2.1426,-2.1379,-2.1333,-2.1277,-2.1262,-2.1206,-2.1294,-2.138,-2.152,-2.155,-2.1649,-2.1768,-2.1834,-2.2023,-2.2368,-2.2812,-2.2923,-2.302,-2.3033,-2.3045,-2.302,-2.2995,-2.2982,-2.2961,-2.2923,-2.2855,-2.2829,-2.2808,-2.2764,-2.2699,-2.2523,-2.23,-2.2662,-2.2849,-2.3028,-2.329,-2.3506,-2.3673,-2.3722,-2.404,-2.4258,-2.4289,-2.4289,-2.4289,-2.4289,-2.4289,-2.433,-2.4574,-2.4859,-2.5272,-2.5742,-2.6383,-2.6817,-2.7046,-2.7191,-2.7266,-2.7465,-2.7683,-2.784,-2.7869,-2.8147,-2.8425,-2.0429,-2.0803,-2.0926,-2.1039,-2.1095,-2.0771,-2.0283,-1.98,-2.0204,-2.0308,-1.9899,-2.0778,-2.1095,-2.1006,-2.1533,-2.1744,-2.1753,-2.1709,-2.1664,-2.1664,-2.1671,-2.1503,-2.1364,-2.127,-2.1151,-2.103,-2.0933,-2.0892,-2.0835,-2.0958,-2.095,-2.0909,-2.0949,-2.0949,-2.0925,-2.0852,-2.099,-2.1119,-2.1183,-2.1167,-2.1159,-2.1254,-2.1206,-2.1198,-2.1301,-2.1324,-2.1325,-2.1372,-2.1309,-2.1285,-2.1191,-2.1143,-2.1159,-2.1071,-2.0958,-2.099,-2.1119,-2.1254,-2.1143,-2.1127,-2.1191,-2.1246,-2.127,-2.1572,-2.1751,-2.1936,-2.2075,-2.2467,-2.2769,-2.2893,-2.2953,-2.297,-2.297,-2.2944,-2.2919,-2.2906,-2.2872,-2.2842,-2.2786,-2.2764,-2.2751,-2.2668,-2.2624,-2.2362,-2.2237,-2.2734,-2.3068,-2.3201,-2.3441,-2.3659,-2.3817,-2.3879,-2.3987,-2.4251,-2.4289,-2.4289,-2.4289,-2.4289,-2.4289,-2.4343,-2.4546,-2.4871,-2.5329,-2.587,-2.6504,-2.6858,-2.707,-2.7168,-2.7266,-2.745,-2.7663,-2.7869,-2.8075,-2.8351,-2.8596,-2.0216,-2.0588,-2.0966,-2.1159,-2.1277,-2.1222,-2.0787,-2.03,-2.0604,-2.052,-2.0272,-2.0942,-2.1191,-2.1135,-2.1548,-2.1789,-2.1789,-2.1738,-2.1701,-2.1686,-2.1612,-2.1457,-2.134,-2.1222,-2.1103,-2.0998,-2.0901,-2.0826,-2.081,-2.081,-2.0819,-2.0835,-2.081,-2.081,-2.0819,-2.0835,-2.0893,-2.1006,-2.1079,-2.1055,-2.1055,-2.1055,-2.0998,-2.0966,-2.1079,-2.1127,-2.1111,-2.1183,-2.1183,-2.1127,-2.099,-2.0974,-2.0958,-2.086,-2.0819,-2.0868,-2.0958,-2.1039,-2.0982,-2.0966,-2.1006,-2.1047,-2.1055,-2.1378,-2.1758,-2.2038,-2.226,-2.2552,-2.2712,-2.2838,-2.2877,-2.2881,-2.2881,-2.2859,-2.2833,-2.2808,-2.2777,-2.2747,-2.2733,-2.2712,-2.2663,-2.2593,-2.2428,-2.2169,-2.2091,-2.2427,-2.2804,-2.3109,-2.3472,-2.3858,-2.404,-2.412,-2.4174,-2.4289,-2.4289,-2.4289,-2.4289,-2.4289,-2.4289,-2.4385,-2.4566,-2.504,-2.5649,-2.6148,-2.6632,-2.6891,-2.7103,-2.7168,-2.7256,-2.7448,-2.7663,-2.7931,-2.8219,-2.8558,-2.877,-1.9917,-2.025,-2.0663,-2.1079,-2.1363,-2.1648,-2.1417,-2.0925,-2.0934,-2.0836,-2.086,-2.1175,-2.1324,-2.1309,-2.1639,-2.1774,-2.1783,-2.1761,-2.1716,-2.1774,-2.1657,-2.1481,-2.1285,-2.1159,-2.1071,-2.0901,-2.081,-2.081,-2.081,-2.081,-2.081,-2.081,-2.081,-2.081,-2.081,-2.081,-2.0851,-2.0884,-2.0901,-2.0892,-2.0901,-2.0966,-2.1079,-2.1071,-2.1127,-2.1167,-2.1087,-2.1039,-2.099,-2.0876,-2.0811,-2.0811,-2.0811,-2.0811,-2.0819,-2.0819,-2.0868,-2.0868,-2.0868,-2.0868,-2.0933,-2.0942,-2.0925,-2.1292,-2.169,-2.198,-2.2189,-2.2525,-2.2725,-2.2773,-2.2799,-2.2825,-2.2816,-2.2803,-2.279,-2.2764,-2.2751,-2.2725,-2.2712,-2.2663,-2.2553,-2.2499,-2.2477,-2.2251,-2.2382,-2.2415,-2.2738,-2.3161,-2.3514,-2.4045,-2.4151,-2.4289,-2.4289,-2.4289,-2.4289,-2.4289,-2.4289,-2.4289,-2.431,-2.448,-2.4719,-2.5329,-2.6039,-2.6453,-2.6825,-2.6957,-2.7111,-2.7168,-2.7231,-2.7405,-2.7636,-2.7982,-2.8321,-2.8651,-2.886,-1.9899,-2.026,-2.0909,-2.1371,-2.167,-2.1759,-2.1715,-2.1555,-2.1555,-2.1261,-2.0982,-2.1355,-2.1541,-2.1402,-2.1654,-2.1789,-2.1783,-2.1731,-2.1649,-2.1664,-2.162,-2.1473,-2.1238,-2.1206,-2.1071,-2.0901,-2.081,-2.081,-2.081,-2.081,-2.081,-2.081,-2.081,-2.081,-2.081,-2.081,-2.081,-2.081,-2.081,-2.081,-2.0835,-2.0835,-2.0892,-2.0909,-2.0933,-2.0949,-2.0901,-2.0884,-2.0868,-2.0819,-2.0819,-2.0819,-2.0802,-2.081,-2.081,-2.081,-2.081,-2.081,-2.081,-2.081,-2.0851,-2.086,-2.0917,-2.1285,-2.1593,-2.1796,-2.2081,-2.2462,-2.2685,-2.272,-2.2733,-2.2747,-2.276,-2.2738,-2.2738,-2.2738,-2.2738,-2.2725,-2.2712,-2.2602,-2.2468,-2.2441,-2.2426,-2.2503,-2.2669,-2.2956,-2.3356,-2.37,-2.387,-2.4212,-2.4197,-2.4289,-2.4289,-2.4289,-2.4289,-2.4289,-2.4289,-2.4343,-2.4385,-2.4614,-2.491,-2.566,-2.641,-2.67,-2.7007,-2.7096,-2.7127,-2.711,-2.7198,-2.7359,-2.7665,-2.8029,-2.8286,-2.8596,-2.8806,-1.9818,-2.0067,-2.0771,-2.1277,-2.1587,-2.173,-2.1789,-2.1789,-2.1789,-2.1609,-2.1308,-2.1601,-2.1685,-2.1526,-2.1715,-2.1789,-2.1774,-2.1739,-2.1708,-2.1686,-2.1596,-2.1504,-2.1388,-2.1238,-2.1103,-2.0949,-2.0835,-2.081,-2.081,-2.081,-2.081,-2.081,-2.081,-2.081,-2.081,-2.081,-2.081,-2.081,-2.081,-2.081,-2.081,-2.081,-2.081,-2.081,-2.081,-2.081,-2.081,-2.081,-2.081,-2.081,-2.081,-2.081,-2.081,-2.081,-2.081,-2.081,-2.081,-2.081,-2.081,-2.081,-2.0819,-2.0827,-2.099,-2.1371,-2.1683,-2.1913,-2.2195,-2.2543,-2.2672,-2.2712,-2.2712,-2.2725,-2.2725,-2.2725,-2.2725,-2.2725,-2.2725,-2.2712,-2.2699,-2.2672,-2.2544,-2.2454,-2.24,-2.2266,-2.2536,-2.3179,-2.3622,-2.3877,-2.4119,-2.431,-2.4289,-2.431,-2.431,-2.4289,-2.4289,-2.4289,-2.4289,-2.4364,-2.4467,-2.5079,-2.5596,-2.6202,-2.6758,-2.6982,-2.7138,-2.7153,-2.7184,-2.7159,-2.7175,-2.7305,-2.7686,-2.8097,-2.8325,-2.8549,-2.8806,-1.9729,-1.9871,-2.0512,-2.0982,-2.1324,-2.1654,-2.1789,-2.1789,-2.1789,-2.1789,-2.1736,-2.1759,-2.1789,-2.1789,-2.1789,-2.1789,-2.1789,-2.1768,-2.1766,-2.173,-2.1634,-2.1511,-2.1388,-2.1262,-2.1111,-2.0974,-2.0868,-2.0835,-2.081,-2.081,-2.081,-2.081,-2.081,-2.081,-2.081,-2.081,-2.081,-2.081,-2.081,-2.081,-2.081,-2.081,-2.081,-2.081,-2.081,-2.081,-2.081,-2.081,-2.081,-2.081,-2.081,-2.081,-2.081,-2.081,-2.081,-2.081,-2.081,-2.081,-2.081,-2.081,-2.0844,-2.0917,-2.1167,-2.1456,-2.1773,-2.2044,-2.2343,-2.2521,-2.265,-2.2712,-2.2712,-2.2712,-2.2712,-2.2712,-2.2712,-2.2712,-2.2712,-2.2699,-2.2685,-2.2681,-2.2546,-2.2425,-2.2447,-2.2297,-2.2674,-2.3321,-2.3708,-2.3906,-2.4094,-2.4225,-2.4302,-2.433,-2.4338,-2.431,-2.431,-2.4323,-2.4343,-2.4495,-2.4703,-2.5503,-2.6202,-2.6598,-2.6932,-2.7161,-2.7274,-2.725,-2.7266,-2.7266,-2.729,-2.7282,-2.7713,-2.8116,-2.8259,-2.8498,-2.883,-1.9846,-2.0154,-2.0613,-2.0982,-2.1317,-2.1654,-2.1789,-2.1789,-2.1789,-2.1789,-2.1789,-2.1789,-2.1789,-2.1789,-2.1789,-2.1789,-2.1789,-2.1789,-2.1789,-2.1759,-2.1657,-2.1511,-2.1364,-2.123,-2.1023,-2.0909,-2.0835,-2.0819,-2.081,-2.081,-2.081,-2.081,-2.081,-2.081,-2.081,-2.081,-2.081,-2.081,-2.081,-2.081,-2.081,-2.081,-2.081,-2.081,-2.081,-2.081,-2.081,-2.081,-2.081,-2.081,-2.081,-2.081,-2.081,-2.081,-2.081,-2.081,-2.081,-2.081,-2.081,-2.0868,-2.0917,-2.1135,-2.1379,-2.1623,-2.1913,-2.2155,-2.2415,-2.261,-2.2712,-2.2712,-2.2712,-2.2712,-2.2712,-2.2712,-2.2712,-2.2712,-2.2712,-2.2677,-2.265,-2.2479,-2.229,-2.2483,-2.2841,-2.2873,-2.3133,-2.3715,-2.4194,-2.4342,-2.4256,-2.4297,-2.4398,-2.4439,-2.4487,-2.4338,-2.431,-2.4426,-2.4467,-2.4609,-2.4954,-2.577,-2.6394,-2.6774,-2.7086,-2.725,-2.7315,-2.7299,-2.7315,-2.7315,-2.7315,-2.7376,-2.7777,-2.812,-2.825,-2.8451,-2.8791]},{"header":{"parameterUnit":"m.s-1","parameterCategory":1,"la1":31.0,"la2":29.5877,"lo1":-88.7671,"lo2":-86.6584,"dy":0.0162,"dx":0.0185,"nx":115,"ny":88,"refTime":"2024-06-28T18:00:00:Z","depth":0,"parameterNumber":3,"parameterNumberName":"V-component_of_WINDS"},"data":[0.0,0.0,0.0,0.0,0.0,0.0,0.0,0.0,0.0,0.0,0.0,0.0,0.0,0.0,0.0,0.0,0.0,0.0,0.0,0.0,0.0,0.0,0.0,0.0,0.0,0.0,0.0,0.0,0.0,0.0,0.0,0.0,0.0,0.0,0.0,0.0,0.0,0.0,0.0,0.0,0.0,0.0,0.0,0.0,0.0,0.0,0.0,0.0,0.0,0.0,0.0,0.0,0.0,0.0,0.0,0.0,0.0,0.0,0.0,0.0,0.0,0.0,0.0,0.0,0.0,0.0,0.0,0.0,0.0,0.0,0.0,0.0,0.0,0.0,0.0,0.0,0.0,0.0,0.0,0.0,0.0,0.0,0.0,0.0,0.0,0.0,0.0,0.0,0.0,0.0,0.0,0.0,0.0,0.0,0.0,0.0,0.0,0.0,0.0,0.0,0.0,0.0,0.0,0.0,0.0,0.0,0.0,0.0,0.0,0.0,0.0,0.0,0.0,0.0,0.0,0.0,0.0,0.0,0.0,0.0,0.0,0.0,0.0,0.0,0.0,0.0,0.0,0.0,0.0,0.0,0.0,0.0,0.0,0.0,0.0,0.0,0.0,0.0,0.0,0.0,0.0,0.0,0.0,0.0,0.0,0.0,0.0,0.0,0.0,0.0,0.0,0.0,0.0,0.0,0.0,0.0,0.0,0.0,0.0,0.0,0.0,0.0,0.0,0.0,0.0,0.0,0.0,0.0,0.0,0.0,0.0,0.0,0.0,0.0,0.0,0.0,0.0,0.0,0.0,0.0,0.0,0.0,0.0,0.0,0.0,0.0,0.0,0.0,0.0,0.0,0.0,0.0,0.0,0.0,0.0,0.0,0.0,0.0,0.0,0.0,0.0,0.0,0.0,0.0,0.0,0.0,0.0,0.0,0.0,0.0,0.0,0.0,0.0,0.0,0.0,0.0,0.0,0.0,0.0,0.0,0.0,0.0,0.0,0.0,0.0,0.0,0.0,0.0,0.0,0.0,0.0,0.0,0.0,0.0,0.0,0.0,0.0,0.0,0.0,0.0,0.0,0.0,0.0,0.0,0.0,0.0,0.0,0.0,0.0,0.0,0.0,0.0,0.0,0.0,0.0,0.0,0.0,0.0,0.0,0.0,0.0,0.0,0.0,0.0,0.0,0.0,0.0,0.0,0.0,0.0,0.0,0.0,0.0,0.0,0.0,0.0,0.0,0.0,0.0,0.0,0.0,0.0,0.0,0.0,0.0,0.0,0.0,0.0,0.0,0.0,0.0,0.0,0.0,0.0,0.0,0.0,0.0,0.0,0.0,0.0,0.0,0.0,0.0,0.0,0.0,0.0,0.0,0.0,0.0,0.0,0.0,0.0,0.0,0.0,0.0,0.0,0.0,0.0,0.0,0.0,0.0,0.0,0.0,0.0,0.0,0.0,0.0,0.0,0.0,0.0,0.0,0.0,0.0,0.0,0.0,0.0,0.0,0.0,0.0,0.0,0.0,0.0,0.0,0.0,0.0,0.0,0.0,0.0,0.0,0.0,0.0,0.0,0.0,0.0,0.0,0.0,0.0,0.0,0.0,0.0,0.0,0.0,0.0,0.0,0.0,0.0,0.0,0.0,0.0,0.0,0.0,0.0,0.0,0.0,0.0,0.0,0.0,0.0,0.0,0.0,0.0,0.0,0.0,0.0,0.0,0.0,0.0,0.0,0.0,0.0,0.0,0.0,0.0,0.0,0.0,0.0,0.0,0.0,0.0,0.0,0.0,0.0,0.0,0.0,0.0,0.0,0.0,0.0,0.0,0.0,0.0,0.0,0.0,0.0,0.0,0.0,0.0,0.0,0.0,0.0,0.0,0.0,0.0,0.0,0.0,0.0,0.0,0.0,0.0,0.0,0.0,0.0,0.0,0.0,0.0,0.0,0.0,0.0,0.0,0.0,0.0,0.0,0.0,0.0,0.0,0.0,0.0,0.0,0.0,0.0,0.0,0.0,0.0,0.0,0.0,0.0,0.0,0.0,0.0,0.0,0.0,0.0,0.0,0.0,0.0,0.0,0.0,0.0,0.0,0.0,0.0,0.0,0.0,0.0,0.0,0.0,0.0,0.0,0.0,0.0,0.0,0.0,0.0,0.0,0.0,0.0,0.0,0.0,0.0,0.0,0.0,0.0,0.0,0.0,0.0,0.0,0.0,0.0,0.0,0.0,0.0,0.0,0.0,0.0,0.0,0.0,0.0,0.0,0.0,0.0,0.0,0.0,0.0,0.0,0.0,0.0,0.0,0.0,0.0,0.0,0.0,0.0,0.0,0.0,0.0,0.0,0.0,0.0,0.0,0.0,0.0,0.0,0.0,0.0,0.0,0.0,0.0,0.0,0.0,0.0,0.0,0.0,0.0,0.0,0.0,0.0,0.0,0.0,0.0,0.0,0.0,0.0,0.0,0.0,0.0,0.0,0.0,0.0,0.0,0.0,0.0,0.0,0.0,0.0,0.0,0.0,0.0,0.0,0.0,0.0,0.0,0.0,0.0,0.0,0.0,0.0,0.0,0.0,0.0,0.0,0.0,0.0,0.0,0.0,0.0,0.0,0.0,0.0,0.0,0.0,0.0,0.0,0.0,0.0,0.0,0.0,0.0,0.0,0.0,0.0,0.0,0.0,0.0,0.0,0.0,0.0,0.0,0.0,0.0,0.0,0.0,0.0,0.0,0.0,0.0,0.0,0.0,0.0,0.0,0.0,0.0,0.0,0.0,0.0,0.0,0.0,0.0,0.0,0.0,0.0,0.0,0.0,0.0,0.0,0.0,0.0,0.0,0.0,0.0,0.0,0.0,0.0,0.0,0.0,0.0,0.0,0.0,0.0,0.0,0.0,0.0,0.0,0.0,0.0,0.0,0.0,0.0,0.0,0.0,0.0,0.0,0.0,0.0,0.0,0.0,0.0,0.0,0.0,0.0,0.0,0.0,0.0,0.0,0.0,0.0,0.0,0.0,0.0,0.0,0.0,0.0,0.0,0.0,0.0,0.0,0.0,0.0,0.0,0.0,0.0,0.0,0.0,0.0,0.0,0.0,0.0,0.0,0.0,0.0,0.0,0.0,0.0,0.0,0.0,0.0,0.0,0.0,0.0,0.0,0.0,0.0,0.0,0.0,0.0,0.0,0.0,0.0,0.0,0.0,0.0,0.0,0.0,0.0,0.0,0.0,0.0,0.0,0.0,0.0,0.0,0.0,0.0,0.0,0.0,0.0,0.0,0.0,0.0,0.0,0.0,0.0,0.0,0.0,0.0,0.0,0.0,0.0,0.0,0.0,0.0,0.0,0.0,0.0,0.0,0.0,0.0,0.0,0.0,0.0,0.0,0.0,0.0,0.0,0.0,0.0,0.0,0.0,0.0,0.0,0.0,0.0,0.0,0.0,0.0,0.0,0.0,0.0,0.0,0.0,0.0,0.0,0.0,0.0,0.0,0.0,0.0,0.0,0.0,0.0,0.0,0.0,0.0,0.0,0.0,0.0,0.0,0.0,0.0,0.0,0.0,0.0,0.0,0.0,0.0,0.0,0.0,0.0,0.0,0.0,0.0,0.0,0.0,0.0,0.0,0.0,0.0,0.0,0.0,0.0,0.0,0.0,0.0,0.0,0.0,0.0,0.0,0.0,0.0,0.0,0.0,0.0,0.0,0.0,0.0,0.0,0.0,0.0,0.0,0.0,0.0,0.0,0.0,0.0,0.0,0.0,0.0,0.0,0.0,0.0,0.0,0.0,0.0,0.0,0.0,0.0,0.0,0.0,0.0,0.0,0.0,0.0,0.0,0.0,0.0,0.0,0.0,0.0,0.0,0.0,0.0,0.0,0.0,0.0,0.0,0.0,0.0,0.0,0.0,0.0,0.0,0.0,0.0,0.0,0.0,0.0,0.0,0.0,0.0,0.0,0.0,0.0,0.0,0.0,0.0,0.0,0.0,0.0,0.0,0.0,0.0,0.0,0.0,0.0,0.0,0.0,0.0,0.0,0.0,0.0,0.0,0.0,0.0,0.0,0.0,0.0,0.0,0.0,0.0,0.0,0.0,0.0,0.0,0.0,0.0,0.0,0.0,0.0,0.0,0.0,0.0,0.0,0.0,0.0,0.0,0.0,0.0,0.0,0.0,0.0,0.0,0.0,0.0,0.0,0.0,0.0,0.0,0.0,0.0,0.0,0.0,0.0,0.0,0.0,0.0,0.0,0.0,0.0,0.0,0.0,0.0,0.0,0.0,0.0,0.0,0.0,0.0,-0.2824,0.0,0.0,0.0,0.0,0.0,0.0,0.0,0.0,0.0,0.0,0.0,0.0,0.0,0.0,0.0,0.0,0.0,0.0,0.0,0.0,0.0,0.0,0.0,0.0,0.0,0.0,0.0,0.0,0.0,0.0,0.0,0.0,0.0,0.0,0.0,0.0,0.0,0.0,0.0,0.0,0.0,0.0,0.0,0.0,0.0,0.0,0.0,0.0,0.0,0.0,0.0,0.0,0.0,0.0,0.0,0.0,0.0,0.0,0.0,0.0,0.0,0.0,0.0,0.0,0.0,0.0,0.0,0.0,0.0,0.0,0.0,0.0,0.0,0.0,0.0,0.0,0.0,0.0,0.0,0.0,0.0,0.0,0.0,0.0,0.0,0.0,0.0,0.0,0.0,0.0,0.0,0.0,0.0,0.0,0.0,0.0,0.0,0.0,0.0,0.0,0.0,0.0,0.0,0.0,0.0,0.0,0.0,0.0,0.0,0.0,-0.303,-0.2995,-0.2896,-0.2859,-0.2859,0.0,0.0,0.0,0.0,0.0,0.0,0.0,0.0,0.0,0.0,0.0,0.0,0.0,0.0,0.0,0.0,0.0,0.0,0.0,0.0,0.0,0.0,0.0,0.0,0.0,0.0,0.0,0.0,0.0,0.0,0.0,0.0,0.0,0.0,0.0,0.0,0.0,0.0,0.0,0.0,0.0,0.0,0.0,0.0,0.0,0.0,0.0,0.0,0.0,0.0,0.0,0.0,0.0,0.0,0.0,0.0,0.0,0.0,0.0,0.0,0.0,0.0,0.0,0.0,0.0,0.0,0.0,0.0,0.0,0.0,0.0,0.0,0.0,0.0,0.0,0.0,0.0,0.0,0.0,0.0,0.0,0.0,0.0,0.0,0.0,0.0,0.0,0.0,0.0,0.0,0.0,0.0,0.0,0.0,0.0,0.0,0.0,0.0,0.0,0.0,0.0,0.0,0.0,0.0,0.0,0.0,0.0,0.0,0.0,0.0,0.0,0.0,-0.302,-0.2976,-0.2965,0.0,0.0,0.0,0.0,0.0,0.0,0.0,0.0,0.0,0.0,0.0,0.0,0.0,0.0,0.0,0.0,0.0,0.0,0.0,0.0,0.0,0.0,0.0,0.0,0.0,0.0,0.0,0.0,0.0,0.0,0.0,0.0,0.0,0.0,0.0,0.0,0.0,0.0,0.0,0.0,0.0,0.0,0.0,0.0,0.0,0.0,0.0,0.0,0.0,0.0,0.0,0.0,0.0,0.0,0.0,0.0,0.0,0.0,0.0,0.0,0.0,0.0,0.0,0.0,0.0,0.0,0.0,0.0,0.0,0.0,0.0,0.0,0.0,0.0,0.0,0.0,0.0,0.0,0.0,0.0,0.0,0.0,0.0,0.0,0.0,0.0,0.0,0.0,0.0,0.0,0.0,0.0,0.0,0.0,0.0,0.0,0.0,0.0,0.0,0.0,0.0,0.0,0.0,0.0,0.0,0.0,0.0,0.0,0.0,0.0,-0.3125,-0.3527,-0.33,0.0,-0.3164,0.0,0.0,0.0,0.0,0.0,0.0,0.0,0.0,0.0,0.0,0.0,0.0,0.0,0.0,0.0,0.0,0.0,0.0,0.0,0.0,0.0,0.0,0.0,0.0,0.0,0.0,0.0,0.0,0.0,0.0,0.0,0.0,0.0,0.0,0.0,0.0,0.0,0.0,0.0,0.0,0.0,0.0,0.0,0.0,0.0,0.0,0.0,0.0,0.0,0.0,0.0,0.0,0.0,0.0,0.0,0.0,0.0,0.0,0.0,0.0,0.0,0.0,0.0,0.0,0.0,0.0,0.0,0.0,0.0,0.0,0.0,0.0,0.0,0.0,0.0,0.0,0.0,0.0,0.0,0.0,0.0,0.0,0.0,0.0,0.0,0.0,0.0,0.0,0.0,0.0,0.0,0.0,0.0,0.0,0.0,0.0,0.0,0.0,0.0,0.0,0.0,0.0,0.0,0.0,0.0,0.0,0.0,0.0,0.0,0.0,0.0,-0.3655,-0.3519,-0.3349,0.0,0.0,0.0,0.0,0.0,0.0,0.0,0.0,0.0,0.0,0.0,0.0,0.0,0.0,0.0,0.0,0.0,0.0,0.0,0.0,0.0,0.0,0.0,0.0,0.0,0.0,0.0,0.0,0.0,0.0,0.0,0.0,0.0,0.0,0.0,0.0,0.0,0.0,0.0,0.0,0.0,0.0,0.0,0.0,0.0,0.0,0.0,0.0,0.0,0.0,0.0,0.0,0.0,0.0,0.0,0.0,0.0,0.0,0.0,0.0,0.0,0.0,0.0,0.0,0.0,0.0,0.0,0.0,0.0,0.0,0.0,0.0,0.0,0.0,0.0,0.0,0.0,0.0,0.0,0.0,0.0,0.0,0.0,0.0,0.0,0.0,0.0,0.0,0.0,0.0,0.0,0.0,0.0,0.0,0.0,0.0,0.0,0.0,0.0,0.0,0.0,0.0,0.0,0.0,0.0,0.0,0.0,0.0,0.0,0.0,-0.3793,0.0,-0.3969,-0.3813,-0.3543,-0.3131,0.0,0.0,0.0,0.0,0.0,0.0,0.0,0.0,0.0,0.0,0.0,0.0,0.0,0.0,0.0,0.0,0.0,0.0,0.0,0.0,0.0,0.0,0.0,0.0,0.0,0.0,0.0,0.0,0.0,0.0,0.0,0.0,0.0,0.0,0.0,0.0,0.0,0.0,0.0,0.0,0.0,0.0,0.0,0.0,0.0,0.0,0.0,0.0,0.0,0.0,0.0,0.0,0.0,0.0,0.0,0.0,0.0,0.0,0.0,0.0,0.0,0.0,0.0,0.0,0.0,0.0,0.0,0.0,0.0,0.0,0.0,0.0,0.0,0.0,0.0,0.0,0.0,0.0,0.0,0.0,0.0,0.0,0.0,0.0,0.0,0.0,0.0,0.0,0.0,0.0,0.0,0.0,0.0,0.0,0.0,0.0,0.0,0.0,0.0,0.0,0.0,0.0,0.0,0.0,0.0,0.0,0.0,0.0,0.0,-0.4499,-0.439,-0.4631,-0.4286,-0.3789,0.0,0.0,0.0,0.0,0.0,0.0,0.0,0.0,0.0,0.0,0.0,0.0,0.0,0.0,0.0,0.0,0.0,0.0,0.0,0.0,0.0,0.0,0.0,0.0,0.0,0.0,0.0,0.0,0.0,0.0,0.0,0.0,0.0,0.0,0.0,0.0,0.0,0.0,0.0,0.0,0.0,0.0,0.0,0.0,0.0,0.0,0.0,0.0,0.0,0.0,0.0,0.0,0.0,0.0,0.0,0.0,0.0,0.0,0.0,0.0,0.0,0.0,0.0,0.0,0.0,0.0,0.0,0.0,0.0,0.0,0.0,0.0,0.0,0.0,0.0,0.0,0.0,0.0,0.0,0.0,0.0,0.0,0.0,0.0,0.0,0.0,0.0,0.0,0.0,0.0,0.0,0.0,0.0,0.0,0.0,0.0,0.0,0.0,0.0,0.0,0.0,0.0,0.0,0.0,0.0,0.0,0.0,0.0,0.0,-0.3989,-0.4108,-0.4473,0.0,-0.4197,-0.3626,0.0,0.0,0.0,0.0,0.0,0.0,0.0,0.0,0.0,0.0,0.0,0.0,0.0,0.0,0.0,0.0,0.0,0.0,0.0,0.0,0.0,0.0,0.0,0.0,0.0,0.0,0.0,0.0,0.0,0.0,0.0,0.0,0.0,0.0,0.0,0.0,0.0,0.0,0.0,0.0,0.0,0.0,0.0,0.0,0.0,0.0,0.0,0.0,0.0,0.0,0.0,0.0,0.0,0.0,0.0,0.0,0.0,0.0,0.0,0.0,0.0,0.0,0.0,0.0,0.0,0.0,0.0,0.0,0.0,0.0,0.0,0.0,0.0,0.0,0.0,0.0,0.0,0.0,0.0,0.0,0.0,0.0,0.0,0.0,0.0,0.0,0.0,0.0,0.0,0.0,0.0,0.0,0.0,0.0,0.0,0.0,0.0,0.0,0.0,0.0,0.0,0.0,0.0,0.0,0.0,0.0,0.0,0.0,0.0,-0.3879,0.0,-0.4714,0.0,-0.4268,-0.3663,0.0,0.0,0.0,0.0,0.0,0.0,0.0,0.0,0.0,0.0,0.0,0.0,0.0,0.0,0.0,0.0,0.0,0.0,0.0,0.0,0.0,0.0,0.0,0.0,0.0,0.0,0.0,0.0,0.0,0.0,0.0,0.0,0.0,0.0,0.0,0.0,0.0,0.0,0.0,0.0,0.0,0.0,0.0,0.0,0.0,0.0,0.0,0.0,0.0,0.0,0.0,0.0,0.0,0.0,0.0,0.0,0.0,0.0,0.0,0.0,0.0,0.0,0.0,0.0,0.0,0.0,0.0,0.0,0.0,0.0,0.0,0.0,0.0,0.0,0.0,0.0,0.0,0.0,0.0,0.0,0.0,0.0,0.0,0.0,0.0,0.0,0.0,0.0,0.0,0.0,0.0,0.0,0.0,0.0,0.0,0.0,0.0,0.0,0.0,0.0,0.0,0.0,0.0,0.0,0.0,0.0,0.0,0.0,-0.4022,-0.4849,-0.5101,-0.5102,-0.4902,-0.4543,-0.3905,0.0,0.0,0.0,0.0,0.0,0.0,0.0,0.0,0.0,0.0,0.0,0.0,0.0,0.0,0.0,0.0,0.0,0.0,0.0,0.0,0.0,0.0,0.0,0.0,0.0,0.0,0.0,0.0,0.0,0.0,0.0,0.0,0.0,0.0,0.0,0.0,0.0,0.0,0.0,0.0,0.0,0.0,0.0,0.0,0.0,0.0,0.0,0.0,0.0,0.0,0.0,0.0,0.0,0.0,0.0,0.0,0.0,0.0,0.0,0.0,0.0,0.0,0.0,0.0,0.0,0.0,0.0,0.0,0.0,0.0,0.0,0.0,0.0,0.0,0.0,0.0,0.0,0.0,0.0,0.0,0.0,0.0,0.0,0.0,0.0,0.0,0.0,0.0,0.0,0.0,0.0,0.0,0.0,0.0,0.0,0.0,0.0,0.0,0.0,0.0,0.0,0.0,0.0,0.0,0.0,0.0,0.0,0.0,0.0,-0.4476,-0.461,-0.4841,-0.5136,-0.4182,-0.3716,0.0,0.0,0.0,0.0,0.0,0.0,0.0,0.0,0.0,0.0,0.0,0.0,0.0,0.0,0.0,0.0,0.0,0.0,0.0,0.0,0.0,0.0,0.0,0.0,0.0,0.0,0.0,0.0,0.0,0.0,0.0,0.0,0.0,0.0,0.0,0.0,0.0,0.0,0.0,0.0,0.0,0.0,0.0,0.0,0.0,0.0,0.0,0.0,0.0,0.0,0.0,0.0,0.0,0.0,0.0,0.0,0.0,0.0,0.0,0.0,0.0,0.0,0.0,0.0,0.0,0.0,0.0,0.0,0.0,0.0,0.0,0.0,0.0,0.0,0.0,0.0,0.0,0.0,0.0,0.0,0.0,0.0,0.0,0.0,0.0,0.0,0.0,0.0,0.0,0.0,0.0,0.0,0.0,0.0,0.0,0.0,0.0,0.0,0.0,0.0,0.0,0.0,0.0,0.0,0.0,0.0,0.0,0.0,0.0,-0.4517,-0.4662,-0.4823,-0.4972,-0.4148,-0.3786,-0.3951,0.0,0.0,0.0,0.0,0.0,0.0,0.0,0.0,0.0,0.0,0.0,0.0,0.0,0.0,0.0,0.0,0.0,0.0,0.0,0.0,0.0,0.0,0.0,0.0,0.0,0.0,0.0,0.0,0.0,0.0,0.0,0.0,0.0,0.0,0.0,0.0,0.0,0.0,0.0,0.0,0.0,0.0,0.0,0.0,0.0,0.0,0.0,0.0,0.0,0.0,0.0,0.0,0.0,0.0,0.0,0.0,0.0,0.0,0.0,0.0,0.0,0.0,0.0,0.0,0.0,0.0,0.0,0.0,0.0,0.0,0.0,0.0,0.0,0.0,0.0,0.0,0.0,0.0,0.0,0.0,0.0,0.0,0.0,0.0,0.0,0.0,0.0,0.0,0.0,0.0,0.0,0.0,0.0,0.0,0.0,0.0,0.0,0.0,0.0,0.0,0.0,0.0,0.0,0.0,0.0,0.0,0.0,0.0,-0.4801,-0.5238,-0.5154,-0.4523,-0.4455,-0.4134,0.0,0.0,0.0,0.0,0.0,0.0,0.0,0.0,0.0,0.0,0.0,0.0,0.0,0.0,0.0,0.0,0.0,0.0,0.0,0.0,0.0,0.0,0.0,0.0,0.0,0.0,0.0,0.0,0.0,0.0,0.0,0.0,0.0,0.0,0.0,0.0,0.0,0.0,0.0,0.0,0.0,0.0,0.0,0.0,0.0,0.0,0.0,0.0,0.0,0.0,0.0,0.0,0.0,0.0,0.0,0.0,0.0,0.0,0.0,0.0,0.0,0.0,0.0,0.0,0.0,0.0,0.0,0.0,0.0,0.0,0.0,0.0,0.0,0.0,0.0,0.0,0.0,0.0,0.0,0.0,0.0,0.0,0.0,0.0,0.0,0.0,0.0,0.0,0.0,0.0,0.0,0.0,0.0,0.0,0.0,0.0,0.0,0.0,0.0,0.0,0.0,0.0,0.0,0.0,0.0,0.0,0.0,0.0,0.0,-0.4862,-0.5827,-0.6037,-0.5388,-0.4922,-0.4619,0.0,0.0,0.0,0.0,0.0,0.0,0.0,0.0,0.0,0.0,0.0,0.0,0.0,0.0,0.0,0.0,0.0,0.0,0.0,0.0,0.0,0.0,0.0,0.0,0.0,0.0,0.0,0.0,0.0,0.0,0.0,0.0,0.0,0.0,0.0,0.0,0.0,0.0,0.0,0.0,0.0,0.0,0.0,0.0,0.0,0.0,0.0,0.0,0.0,0.0,0.0,0.0,0.0,0.0,0.0,0.0,0.0,0.0,0.0,0.0,0.0,0.0,0.0,0.0,0.0,0.0,0.0,0.0,0.0,0.0,0.0,0.0,0.0,0.0,0.0,0.0,0.0,0.0,0.0,0.0,0.0,0.0,0.0,0.0,0.0,0.0,0.0,0.0,0.0,0.0,0.0,0.0,0.0,0.0,0.0,0.0,0.0,0.0,0.0,0.0,0.0,0.0,0.0,0.0,0.0,0.0,0.0,0.0,-0.5272,-0.5231,-0.6317,-0.6663,-0.6127,-0.5656,-0.5185,0.0,0.0,0.0,0.0,0.0,0.0,0.0,0.0,0.0,0.0,0.0,0.0,0.0,0.0,0.0,0.0,0.0,0.0,0.0,0.0,0.0,0.0,0.0,0.0,0.0,0.0,0.0,0.0,0.0,0.0,0.0,0.0,0.0,0.0,0.0,0.0,0.0,0.0,0.0,0.0,0.0,0.0,0.0,0.0,0.0,0.0,0.0,0.0,0.0,0.0,0.0,0.0,0.0,0.0,0.0,0.0,0.0,0.0,0.0,0.0,0.0,0.0,0.0,0.0,0.0,0.0,0.0,0.0,0.0,0.0,0.0,0.0,0.0,0.0,0.0,0.0,0.0,0.0,0.0,0.0,0.0,0.0,0.0,0.0,0.0,0.0,0.0,0.0,0.0,0.0,0.0,0.0,0.0,0.0,0.0,0.0,0.0,0.0,0.0,0.0,0.0,0.0,0.0,0.0,0.0,0.0,0.0,0.0,-0.5489,-0.58,-0.6751,-0.7093,-0.6705,-0.638,-0.5758,0.0,0.0,0.0,0.0,0.0,0.0,0.0,0.0,0.0,0.0,0.0,0.0,0.0,0.0,0.0,0.0,0.0,0.0,0.0,0.0,0.0,0.0,0.0,0.0,0.0,0.0,0.0,0.0,0.0,0.0,0.0,0.0,0.0,0.0,0.0,0.0,0.0,0.0,0.0,0.0,0.0,0.0,0.0,0.0,0.0,0.0,0.0,0.0,0.0,0.0,0.0,0.0,0.0,0.0,0.0,0.0,0.0,0.0,0.0,0.0,0.0,0.0,0.0,0.0,0.0,0.0,0.0,0.0,0.0,0.0,0.0,0.0,0.0,0.0,0.0,0.0,0.0,0.0,0.0,0.0,0.0,0.0,0.0,0.0,0.0,0.0,0.0,0.0,0.0,0.0,0.0,0.0,0.0,0.0,0.0,0.0,0.0,0.0,0.0,0.0,0.0,0.0,0.0,0.0,0.0,0.0,0.0,0.0,-0.5735,-0.5814,-0.6983,-0.7316,-0.6705,-0.6434,-0.6019,0.0,0.0,0.0,0.0,0.0,0.0,0.0,0.0,0.0,0.0,0.0,0.0,0.0,0.0,0.0,0.0,0.0,0.0,0.0,0.0,0.0,0.0,0.0,0.0,0.0,0.0,0.0,0.0,0.0,0.0,0.0,0.0,0.0,0.0,0.0,0.0,0.0,0.0,0.0,0.0,0.0,0.0,0.0,0.0,0.0,0.0,0.0,0.0,-0.2305,0.0,0.0,0.0,0.0,0.0,0.0,0.0,0.0,0.0,0.0,0.0,0.0,0.0,0.0,0.0,0.0,0.0,0.0,0.0,0.0,0.0,0.0,0.0,0.0,0.0,0.0,0.0,0.0,0.0,0.0,0.0,0.0,0.0,0.0,0.0,0.0,0.0,0.0,0.0,0.0,0.0,0.0,0.0,0.0,0.0,0.0,0.0,0.0,0.0,0.0,0.0,0.0,0.0,0.0,0.0,0.0,0.0,0.0,0.0,-0.6021,-0.6462,-0.7112,-0.7383,-0.7162,-0.6734,-0.6241,0.0,0.0,0.0,0.0,0.0,0.0,0.0,0.0,0.0,0.0,0.0,0.0,0.0,0.0,0.0,0.0,0.0,0.0,0.0,0.0,0.0,0.0,0.0,0.0,0.0,0.0,0.0,0.0,0.0,0.0,0.0,0.0,0.0,0.0,0.0,0.0,0.0,0.0,0.0,0.0,0.0,0.0,0.0,0.0,0.0,0.0,0.0,0.0,0.0,0.0,0.0,0.0,0.0,0.0,0.0,0.0,0.0,0.0,0.0,0.0,0.0,0.0,0.0,0.0,0.0,0.0,0.0,0.0,0.0,0.0,0.0,0.0,0.0,0.0,0.0,0.0,0.0,0.0,0.0,0.0,0.0,0.0,0.0,0.0,0.0,0.0,0.0,0.0,0.0,0.0,0.0,0.0,0.0,0.0,0.0,0.0,0.0,0.0,0.0,0.0,0.0,0.0,0.0,0.0,0.0,0.0,0.0,-0.5515,-0.6226,-0.7076,-0.7216,-0.7381,-0.7594,-0.7019,-0.6464,-0.5925,0.0,0.0,0.0,0.0,0.0,0.0,0.0,0.0,0.0,0.0,0.0,0.0,0.0,0.0,0.0,0.0,0.0,0.0,0.0,0.0,0.0,0.0,0.0,0.0,0.0,0.0,0.0,0.0,0.0,0.0,0.0,0.0,0.0,0.0,0.0,0.0,0.0,0.0,-0.3045,-0.3008,0.0,0.0,0.0,0.0,0.0,0.0,0.0,0.0,-0.2789,0.0,0.0,0.0,0.0,0.0,0.0,0.0,0.0,0.0,0.0,0.0,0.0,0.0,0.0,0.0,0.0,0.0,0.0,0.0,0.0,0.0,0.0,0.0,0.0,0.0,0.0,0.0,0.0,0.0,0.0,0.0,0.0,0.0,0.0,0.0,0.0,0.0,0.0,0.0,0.0,0.0,0.0,0.0,0.0,0.0,0.0,0.0,0.0,0.0,0.0,0.0,0.0,0.0,0.0,0.0,0.0,-0.4896,-0.5491,-0.6105,-0.6775,-0.7328,-0.7522,-0.7293,-0.6902,-0.645,-0.5933,0.0,0.0,0.0,0.0,0.0,0.0,0.0,0.0,0.0,0.0,0.0,0.0,0.0,0.0,0.0,0.0,0.0,0.0,0.0,0.0,0.0,0.0,0.0,0.0,0.0,0.0,0.0,0.0,0.0,0.0,0.0,0.0,0.0,0.0,0.0,0.0,0.0,0.0,0.0,-0.3894,-0.3964,0.0,0.0,0.0,0.0,0.0,0.0,0.0,0.0,-0.2911,0.0,0.0,0.0,0.0,0.0,0.0,0.0,0.0,0.0,0.0,0.0,0.0,0.0,0.0,0.0,0.0,0.0,0.0,0.0,0.0,0.0,0.0,0.0,0.0,0.0,0.0,0.0,0.0,0.0,0.0,0.0,0.0,0.0,0.0,0.0,0.0,0.0,0.0,0.0,0.0,0.0,0.0,0.0,0.0,0.0,0.0,0.0,0.0,0.0,0.0,0.0,0.0,0.0,0.0,0.0,-0.4967,-0.5809,-0.6494,-0.6953,-0.7446,-0.7538,-0.7193,-0.6735,-0.631,0.0,0.0,0.0,0.0,0.0,0.0,0.0,0.0,0.0,0.0,0.0,0.0,0.0,0.0,0.0,0.0,0.0,0.0,0.0,0.0,0.0,0.0,0.0,0.0,0.0,0.0,0.0,0.0,0.0,0.0,0.0,0.0,0.0,0.0,0.0,0.0,0.0,0.0,0.0,0.0,-0.4208,-0.433,-0.4402,0.0,0.0,0.0,0.0,0.0,0.0,-0.3538,-0.3392,0.0,0.0,0.0,0.0,0.0,0.0,0.0,0.0,0.0,0.0,0.0,0.0,0.0,0.0,0.0,0.0,0.0,0.0,0.0,0.0,0.0,0.0,0.0,0.0,0.0,0.0,0.0,0.0,0.0,0.0,0.0,0.0,0.0,0.0,0.0,0.0,0.0,0.0,0.0,0.0,0.0,0.0,0.0,0.0,0.0,0.0,0.0,0.0,0.0,0.0,0.0,0.0,0.0,0.0,0.0,-0.4987,-0.6053,-0.6786,-0.7084,-0.749,-0.7508,-0.7114,-0.6636,-0.6202,0.0,0.0,0.0,0.0,0.0,0.0,0.0,0.0,0.0,0.0,0.0,0.0,0.0,0.0,0.0,0.0,0.0,0.0,0.0,0.0,0.0,0.0,0.0,0.0,0.0,0.0,0.0,0.0,0.0,0.0,0.0,0.0,0.0,0.0,0.0,0.0,0.0,0.0,0.0,0.0,0.0,-0.4799,-0.4934,-0.4846,0.0,0.0,0.0,0.0,-0.4247,-0.4113,0.0,0.0,0.0,0.0,0.0,0.0,0.0,0.0,0.0,0.0,0.0,0.0,0.0,0.0,0.0,0.0,0.0,0.0,0.0,0.0,0.0,0.0,0.0,0.0,0.0,0.0,0.0,0.0,0.0,0.0,0.0,0.0,0.0,0.0,0.0,0.0,0.0,0.0,0.0,0.0,0.0,0.0,0.0,0.0,0.0,0.0,0.0,0.0,0.0,0.0,0.0,0.0,0.0,0.0,0.0,0.0,-0.4844,-0.5824,-0.6496,-0.6768,-0.7377,-0.7406,-0.6786,-0.6688,-0.6307,0.0,0.0,0.0,0.0,0.0,0.0,0.0,0.0,0.0,0.0,0.0,0.0,0.0,0.0,0.0,0.0,0.0,0.0,0.0,0.0,0.0,0.0,0.0,0.0,0.0,0.0,0.0,0.0,0.0,0.0,0.0,0.0,0.0,0.0,0.0,0.0,0.0,0.0,0.0,0.0,0.0,-0.5874,-0.577,-0.5502,-0.5406,0.0,0.0,-0.5028,-0.5554,-0.5161,0.0,0.0,0.0,0.0,0.0,0.0,0.0,0.0,0.0,0.0,0.0,0.0,0.0,0.0,0.0,0.0,0.0,0.0,0.0,0.0,0.0,0.0,0.0,0.0,0.0,0.0,0.0,0.0,0.0,0.0,0.0,0.0,0.0,0.0,0.0,0.0,0.0,0.0,0.0,0.0,0.0,0.0,0.0,0.0,0.0,0.0,0.0,0.0,0.0,0.0,0.0,0.0,0.0,0.0,0.0,-0.4637,-0.4933,-0.5968,-0.6589,-0.6691,-0.7176,-0.7179,-0.6713,-0.6178,-0.5778,0.0,0.0,0.0,0.0,0.0,0.0,0.0,0.0,0.0,0.0,0.0,0.0,0.0,0.0,0.0,0.0,0.0,0.0,0.0,0.0,0.0,0.0,0.0,0.0,0.0,0.0,0.0,0.0,0.0,0.0,0.0,0.0,0.0,0.0,0.0,0.0,0.0,0.0,0.0,0.0,0.0,0.0,-0.6328,-0.6293,0.0,0.0,0.0,-0.6072,-0.6019,0.0,0.0,0.0,0.0,0.0,0.0,0.0,0.0,0.0,0.0,0.0,0.0,0.0,0.0,0.0,0.0,0.0,0.0,0.0,0.0,0.0,0.0,0.0,0.0,0.0,0.0,0.0,0.0,0.0,0.0,0.0,0.0,0.0,0.0,0.0,0.0,0.0,0.0,0.0,0.0,0.0,0.0,0.0,0.0,0.0,0.0,0.0,0.0,0.0,0.0,0.0,0.0,0.0,0.0,0.0,0.0,0.0,-0.5195,-0.623,-0.6801,-0.6829,-0.7059,-0.7091,-0.684,-0.5986,0.0,0.0,0.0,0.0,0.0,0.0,0.0,0.0,0.0,0.0,0.0,0.0,0.0,0.0,0.0,0.0,0.0,0.0,0.0,0.0,0.0,0.0,0.0,0.0,0.0,0.0,0.0,-0.3365,0.0,0.0,0.0,0.0,0.0,0.0,0.0,0.0,0.0,0.0,0.0,0.0,0.0,0.0,-0.6403,-0.6992,-0.7091,-0.7095,0.0,0.0,-0.7085,-0.6582,-0.6782,-0.6614,0.0,0.0,0.0,0.0,0.0,0.0,0.0,0.0,0.0,0.0,0.0,0.0,0.0,0.0,0.0,0.0,0.0,0.0,0.0,0.0,0.0,0.0,0.0,0.0,0.0,0.0,0.0,0.0,0.0,0.0,0.0,0.0,0.0,0.0,0.0,0.0,0.0,0.0,0.0,0.0,0.0,0.0,0.0,0.0,0.0,0.0,0.0,0.0,0.0,0.0,0.0,0.0,0.0,0.0,0.0,-0.5671,-0.6523,-0.7041,-0.7162,-0.7195,-0.7216,-0.7251,-0.6524,-0.61,0.0,0.0,0.0,0.0,0.0,0.0,0.0,0.0,0.0,0.0,0.0,0.0,0.0,0.0,0.0,0.0,0.0,0.0,0.0,0.0,0.0,0.0,0.0,0.0,0.0,0.0,0.0,0.0,0.0,0.0,0.0,0.0,0.0,0.0,0.0,0.0,0.0,0.0,0.0,0.0,0.0,-0.7,-0.7961,-0.7794,-0.7787,0.0,0.0,-0.7938,-0.7643,-0.7623,-0.7241,-0.6021,0.0,0.0,0.0,0.0,0.0,0.0,0.0,0.0,0.0,0.0,0.0,0.0,0.0,0.0,0.0,0.0,0.0,0.0,0.0,0.0,0.0,0.0,0.0,0.0,0.0,0.0,0.0,0.0,0.0,0.0,0.0,0.0,0.0,0.0,0.0,0.0,0.0,0.0,0.0,0.0,0.0,0.0,0.0,0.0,0.0,0.0,0.0,0.0,0.0,0.0,0.0,0.0,0.0,-0.5495,-0.5884,-0.666,-0.7248,-0.7606,-0.7548,-0.7512,-0.755,-0.6786,-0.6285,0.0,0.0,0.0,0.0,0.0,0.0,0.0,0.0,0.0,0.0,0.0,0.0,0.0,0.0,0.0,0.0,0.0,0.0,0.0,0.0,0.0,0.0,0.0,0.0,0.0,0.0,0.0,0.0,-0.4693,-0.4771,-0.5168,0.0,0.0,0.0,0.0,0.0,0.0,0.0,0.0,0.0,0.0,-0.7866,-0.8156,-0.8169,0.0,0.0,-0.8611,-0.8488,-0.8329,-0.822,-0.7805,-0.6905,-0.6508,0.0,0.0,0.0,0.0,0.0,0.0,0.0,0.0,0.0,0.0,0.0,0.0,0.0,0.0,0.0,0.0,0.0,0.0,0.0,0.0,0.0,0.0,0.0,0.0,0.0,0.0,0.0,0.0,0.0,0.0,0.0,0.0,0.0,0.0,0.0,0.0,0.0,0.0,0.0,0.0,0.0,0.0,0.0,0.0,0.0,0.0,0.0,0.0,0.0,0.0,0.0,0.0,-0.5733,-0.627,-0.6915,-0.7549,-0.8175,-0.7866,-0.7789,-0.7974,-0.7095,-0.6533,0.0,0.0,0.0,0.0,0.0,0.0,0.0,0.0,0.0,0.0,0.0,0.0,0.0,0.0,0.0,0.0,0.0,0.0,0.0,0.0,0.0,0.0,0.0,0.0,0.0,0.0,0.0,0.0,-0.5399,-0.5389,-0.5326,0.0,0.0,0.0,0.0,0.0,0.0,0.0,0.0,0.0,0.0,-0.8435,-0.852,-0.8635,-0.8754,-0.8948,-0.9015,-0.8962,-0.8743,-0.8683,-0.8322,-0.7451,0.0,0.0,0.0,0.0,0.0,0.0,0.0,0.0,0.0,0.0,0.0,0.0,0.0,0.0,0.0,0.0,0.0,0.0,0.0,0.0,0.0,0.0,0.0,0.0,0.0,0.0,0.0,0.0,0.0,0.0,-0.545,0.0,0.0,0.0,0.0,0.0,0.0,0.0,0.0,0.0,0.0,0.0,0.0,0.0,0.0,0.0,0.0,0.0,0.0,0.0,0.0,0.0,0.0,0.0,-0.6863,-0.7341,-0.7974,-0.8733,-0.8079,-0.8035,-0.8627,-0.7524,-0.6855,-0.678,0.0,0.0,0.0,0.0,0.0,0.0,0.0,0.0,0.0,0.0,0.0,0.0,0.0,0.0,0.0,0.0,0.0,0.0,0.0,0.0,0.0,0.0,0.0,0.0,0.0,0.0,-0.5544,-0.5654,-0.5539,0.0,0.0,0.0,0.0,0.0,0.0,0.0,0.0,0.0,0.0,-0.8402,-0.8648,-0.9206,-0.9226,-0.9338,-0.9563,-0.9588,-0.9391,-0.8826,-0.898,-0.8763,0.0,0.0,0.0,0.0,0.0,0.0,0.0,0.0,0.0,0.0,0.0,0.0,0.0,0.0,0.0,0.0,0.0,0.0,0.0,0.0,0.0,0.0,0.0,0.0,0.0,0.0,0.0,-0.5909,-0.6029,0.0,0.0,0.0,0.0,0.0,0.0,0.0,0.0,0.0,0.0,0.0,-0.8486,-0.8505,0.0,0.0,0.0,0.0,0.0,0.0,0.0,0.0,0.0,0.0,0.0,0.0,-0.63,-0.6957,-0.7399,-0.8149,-0.9206,-0.863,-0.85,-0.8931,-0.8189,-0.7454,-0.6819,0.0,0.0,0.0,0.0,0.0,0.0,0.0,0.0,0.0,0.0,0.0,0.0,0.0,0.0,0.0,0.0,0.0,0.0,0.0,0.0,0.0,0.0,0.0,0.0,0.0,-0.5562,0.0,0.0,0.0,0.0,0.0,0.0,0.0,0.0,0.0,0.0,0.0,-0.8695,-0.8914,-0.9779,-1.036,-1.0311,-1.0446,-1.0563,0.0,0.0,0.0,0.0,0.0,0.0,0.0,0.0,0.0,0.0,0.0,0.0,0.0,0.0,-0.8045,-0.6701,-0.6236,-0.6187,-0.6557,0.0,0.0,0.0,0.0,0.0,0.0,0.0,0.0,0.0,0.0,0.0,0.0,0.0,0.0,-0.699,0.0,-0.7297,0.0,0.0,0.0,0.0,0.0,0.0,0.0,0.0,-0.9568,-0.9783,-0.9482,-0.9467,-0.9317,0.0,-0.8635,-0.783,0.0,0.0,0.0,0.0,0.0,0.0,0.0,0.0,-0.652,-0.7191,-0.7766,-0.8565,-0.9573,-0.9075,-0.8926,-0.9194,-0.8393,-0.7678,-0.7052,-0.6179,-0.5644,0.0,0.0,0.0,0.0,0.0,0.0,0.0,0.0,0.0,0.0,0.0,0.0,0.0,0.0,0.0,0.0,0.0,0.0,0.0,0.0,0.0,0.0,0.0,-0.6031,0.0,0.0,0.0,0.0,0.0,0.0,0.0,0.0,0.0,-0.8257,-0.9059,-0.968,-0.9773,-1.0718,-1.125,-1.0841,0.0,0.0,0.0,0.0,0.0,0.0,0.0,-0.9385,-0.9466,-0.9196,-0.8913,-0.8721,-0.8894,-0.9148,-0.943,0.0,0.0,-0.8036,-0.7558,-0.7533,-0.808,-0.8107,-0.8135,-0.8384,-0.8604,-0.8732,0.0,0.0,0.0,0.0,0.0,0.0,0.0,0.0,-0.7913,-0.801,0.0,-0.8445,0.0,0.0,0.0,0.0,0.0,-0.9865,0.0,0.0,-1.07,-1.0868,-1.0794,-1.0057,-0.9872,-1.0249,-1.0235,-0.9773,-0.8916,-0.7755,0.0,0.0,0.0,0.0,0.0,0.0,-0.7041,-0.7673,-0.8478,-0.9266,-0.9962,-0.9403,-0.9194,-0.9405,-0.8204,-0.7524,-0.7462,-0.6597,-0.5941,-0.5544,-0.5109,0.0,0.0,0.0,0.0,0.0,0.0,0.0,0.0,0.0,0.0,0.0,0.0,0.0,0.0,0.0,0.0,0.0,0.0,0.0,0.0,-0.6334,0.0,0.0,0.0,0.0,0.0,0.0,0.0,0.0,0.0,0.0,-0.9162,-0.9849,-1.0508,-1.088,0.0,0.0,0.0,0.0,-1.1259,-1.128,-1.1255,-1.113,-1.0889,-1.1011,-1.091,-1.0156,0.0,0.0,-0.9673,-0.9812,-0.9987,-1.0025,-1.0265,-1.0415,-1.0082,-0.936,-0.9052,-0.9538,-0.9397,-0.9266,-0.9514,-0.9829,-1.0103,-1.0008,0.0,0.0,0.0,0.0,-0.9397,-0.9628,-1.0133,-0.9752,-0.962,-0.9675,-0.9757,0.0,0.0,0.0,0.0,0.0,0.0,-1.0935,-1.1408,-1.2154,-1.234,-1.2089,-1.2282,-1.2095,-1.1567,-1.1231,-1.0775,-1.0221,-0.9568,-0.8421,-0.6842,0.0,0.0,0.0,0.0,-0.7879,-0.8646,-0.9066,-0.9601,-1.0254,-0.95,-0.8942,-0.8566,-0.8208,-0.7849,-0.7491,-0.6929,-0.6385,-0.5941,-0.5278,0.0,0.0,0.0,0.0,0.0,0.0,0.0,0.0,0.0,0.0,0.0,0.0,0.0,0.0,0.0,0.0,0.0,0.0,0.0,-0.6221,-0.6412,-0.6708,0.0,0.0,0.0,0.0,0.0,0.0,0.0,0.0,0.0,-1.0753,-1.1318,-1.1696,0.0,0.0,-1.2426,-1.23,-1.237,-1.2392,-1.2426,0.0,0.0,0.0,-1.1261,-1.0892,-1.0868,-1.059,-1.0295,-0.995,-0.9964,-1.0145,-1.061,-1.0586,-1.0624,-1.0985,-1.066,-1.0412,-1.071,-1.0729,-1.0697,-1.0778,-1.0902,-1.0938,-1.1623,-1.0744,-1.0588,-1.0738,-1.1076,-1.1055,-1.133,-1.1751,-1.144,-1.1201,-1.1075,-1.117,-1.0999,-1.0646,-1.0749,0.0,0.0,0.0,-1.2488,-1.3058,-1.3453,-1.3503,-1.3293,-1.3467,-1.3288,-1.2727,-1.2225,-1.1869,-1.1618,-1.0974,-0.9856,-0.8328,0.0,0.0,-0.7675,-0.8093,-0.8614,-0.9201,-0.9603,-0.9986,-1.0365,-0.9647,-0.8927,-0.8233,-0.8201,-0.8052,-0.7778,-0.7139,-0.6664,-0.638,-0.5584,-0.5244,0.0,0.0,0.0,0.0,0.0,0.0,0.0,0.0,0.0,0.0,0.0,-0.4372,0.0,0.0,0.0,0.0,-0.5485,-0.701,-0.7495,-0.767,0.0,0.0,0.0,0.0,0.0,0.0,0.0,-0.9629,-1.0269,-1.0927,-1.1728,-1.2207,-1.249,-1.2462,-1.2739,-1.291,-1.291,0.0,-1.291,-1.291,-1.2627,-1.2426,-1.2397,-1.1967,-1.1622,-1.1545,-1.1116,-1.0744,-1.0561,-1.0557,-1.071,-1.0985,-1.0943,-1.0947,-1.1352,-1.1226,-1.1091,-1.1251,-1.1297,-1.1297,-1.1297,-1.1297,-1.1297,-1.335,-1.3662,-1.2957,-1.2616,-1.2572,-1.2858,-1.2984,-1.2966,-1.296,-1.2758,-1.2441,-1.2675,-1.2342,-1.1631,-1.217,0.0,-1.3366,-1.4106,-1.4572,-1.489,-1.4569,-1.4385,-1.4329,-1.4007,-1.3839,-1.3775,-1.3287,-1.3022,-1.2896,-1.2091,-1.1183,-1.0283,-0.9493,-0.8946,-0.8612,-0.8994,-0.93,-0.9508,-1.0125,-1.0442,-1.0373,-0.9795,-0.9097,-0.8275,-0.8205,-0.8144,-0.8123,-0.7232,-0.6748,-0.6727,-0.5956,-0.5511,-0.5486,0.0,0.0,0.0,0.0,0.0,0.0,0.0,0.0,0.0,0.0,0.0,0.0,0.0,0.0,0.0,-0.7277,0.0,-0.9172,-0.9535,0.0,0.0,0.0,-0.9053,-0.9792,-0.9798,-1.0078,-1.0897,0.0,0.0,-1.2257,0.0,-1.291,-1.291,-1.291,-1.291,-1.291,-1.291,-1.291,-1.291,-1.291,-1.291,-1.2861,-1.2808,-1.2623,-1.2141,-1.1737,-1.1434,-1.136,-1.1372,-1.1423,-1.1452,-1.1347,-1.1352,-1.1377,-1.1372,-1.1297,-1.1347,-1.1318,-1.1297,-1.1297,-1.1297,-1.1297,-1.3977,-1.4209,-1.4707,-1.4504,-1.3899,-1.4243,-1.44,-1.4406,-1.44,-1.4349,-1.4261,-1.4324,-1.4231,-1.4056,-1.4189,-1.4335,-1.4513,-1.4702,-1.4828,-1.4915,-1.5224,-1.5159,-1.4792,-1.5072,-1.5007,-1.4624,-1.4495,-1.4072,-1.3449,-1.3208,-1.2648,-1.1794,-1.123,-1.0389,-0.9318,-0.9712,-1.0154,-1.0541,-1.0686,-1.0612,-1.0241,-0.9764,-0.9263,-0.8751,-0.8051,-0.7664,-0.7643,-0.6757,-0.6266,-0.6267,-0.5873,-0.5614,-0.5492,-0.5214,0.0,0.0,0.0,0.0,0.0,0.0,0.0,0.0,0.0,-0.5731,-0.5494,0.0,-0.5946,0.0,-0.8441,-1.0511,-0.9585,-0.9544,0.0,0.0,-1.0576,-1.0653,-1.195,-1.1567,-1.1394,-1.1839,-1.2082,-1.233,-1.269,-1.2842,-1.291,-1.291,-1.291,-1.291,-1.291,-1.291,-1.291,-1.291,-1.291,-1.291,-1.291,-1.291,-1.272,-1.226,-1.2082,-1.197,-1.1832,-1.166,-1.1648,-1.2051,-1.1703,-1.1578,-1.2081,-1.1723,-1.1452,-1.1648,-1.1502,-1.1297,-1.1297,-1.1297,-1.1297,-1.5012,-1.533,-1.5828,-1.5757,-1.5305,-1.5524,-1.5611,-1.5605,-1.5625,-1.5487,-1.5236,-1.5016,-1.5028,-1.5248,-1.5261,-1.5393,-1.5619,-1.5605,-1.5605,-1.5644,-1.5925,-1.5894,-1.5644,-1.5919,-1.5894,-1.5605,-1.5368,-1.5022,-1.4533,-1.3906,-1.3361,-1.2852,-1.2019,-1.1218,-1.0466,-1.0497,-1.0634,-1.0895,-1.09,-1.0659,-1.0206,-0.9747,-0.9314,-0.8901,-0.8187,-0.7804,-0.7794,-0.711,-0.6634,-0.6422,-0.6071,-0.5827,-0.5728,-0.5492,-0.5522,0.0,0.0,0.0,0.0,0.0,0.0,0.0,0.0,0.0,0.0,0.0,-0.7666,-0.8144,-1.0882,-1.2256,-1.134,-1.1475,-1.1999,-1.2878,-1.2389,-1.2321,-1.3137,-1.2659,-1.2342,-1.2479,-1.252,-1.2607,-1.2876,-1.291,-1.291,-1.291,-1.291,-1.291,-1.291,-1.291,-1.291,-1.291,-1.291,-1.291,-1.291,-1.2954,-1.29,-1.2666,-1.2676,-1.2657,-1.2403,-1.2266,-1.226,-1.2421,-1.2006,-1.1703,-1.2126,-1.1902,-1.1603,-1.1598,-1.1598,-1.1502,-1.1326,-1.1297,-1.1297,-1.6113,-1.6506,-1.6506,-1.6506,-1.6506,-1.6506,-1.6506,-1.6506,-1.6506,-1.6224,-1.5795,-1.5377,-1.5447,-1.5896,-1.5888,-1.6147,-1.6573,-1.6543,-1.6506,-1.6506,-1.6506,-1.6506,-1.6506,-1.6506,-1.6506,-1.6481,-1.6026,-1.5785,-1.5672,-1.4467,-1.3818,-1.3655,-1.2482,-1.1844,-1.1747,-1.1236,-1.0957,-1.09,-1.09,-1.069,-1.0288,-0.9839,-0.938,-0.8968,-0.8476,-0.8156,-0.8103,-0.7667,-0.7255,-0.6879,-0.6478,-0.6174,-0.5952,-0.5975,-0.6529,0.0,-0.7098,0.0,0.0,0.0,0.0,0.0,0.0,0.0,0.0,-0.874,-0.9914,-1.2177,-1.3612,-1.4179,-1.3565,-1.3988,-1.4339,-1.4365,-1.4031,-1.3754,-1.3679,-1.333,-1.3035,-1.291,-1.291,-1.291,-1.291,-1.291,-1.291,-1.291,-1.291,-1.291,-1.291,-1.291,-1.291,-1.291,-1.291,-1.291,-1.291,-1.3012,-1.308,-1.3118,-1.3195,-1.3252,-1.2953,-1.2929,-1.288,-1.2613,-1.22,-1.1947,-1.2017,-1.1997,-1.1773,-1.1598,-1.1748,-1.1753,-1.1398,-1.1297,-1.1297,-1.6262,-1.6506,-1.6506,-1.6506,-1.6506,-1.6506,-1.6506,-1.6506,-1.6506,-1.6459,-1.6373,-1.6643,-1.6828,-1.6918,-1.6905,-1.697,-1.7052,-1.6665,-1.6506,-1.6506,-1.6506,-1.6506,-1.6506,-1.6506,-1.6506,-1.6494,-1.6394,-1.616,-1.5781,-1.5498,-1.4997,-1.4243,-1.3608,-1.308,-1.2627,0.0,0.0,0.0,-1.09,-1.0864,-1.0747,-1.0309,-0.9845,-0.9386,-0.8627,0.0,-0.7638,-0.7183,-0.7018,-0.7192,-0.7225,0.0,0.0,0.0,0.0,0.0,0.0,0.0,0.0,0.0,0.0,0.0,-0.9855,-1.0185,-1.0281,-1.0729,-1.1773,-1.3543,-1.4553,-1.4974,-1.4639,-1.4412,-1.4464,-1.4797,-1.4473,-1.4163,-1.4149,-1.3757,-1.3353,-1.2934,-1.291,-1.291,-1.291,-1.291,-1.291,-1.291,-1.291,-1.291,-1.291,-1.291,-1.291,-1.291,-1.291,-1.291,-1.291,-1.2929,-1.3007,-1.3137,-1.3204,-1.3295,-1.3372,-1.3175,-1.3011,-1.288,-1.2358,-1.2116,-1.2633,-1.2329,-1.1981,-1.22,-1.2076,-1.1778,-1.1398,-1.1297,-1.1297,-1.6392,0.0,-1.6506,-1.6506,0.0,-1.6506,-1.6506,-1.6506,-1.6506,-1.6506,-1.6515,-1.6757,-1.6863,-1.6842,-1.6863,-1.6989,-1.7171,-1.6941,-1.6949,-1.7137,-1.6928,-1.6863,-1.6829,-1.6607,-1.6506,-1.6506,-1.6506,-1.638,-1.6129,-1.5662,-1.5204,-1.4743,-1.3769,-1.3174,-1.2868,-1.2048,-1.1364,-1.0886,-1.09,-1.09,-1.089,-1.0438,-1.0082,-0.9829,0.0,0.0,0.0,0.0,0.0,0.0,0.0,0.0,0.0,0.0,0.0,-0.9022,-0.8751,-0.8619,-0.88,-0.9331,-0.9961,-1.0599,-1.1502,-1.2129,-1.2372,-1.2444,-1.3229,-1.4966,-1.5806,-1.6042,-1.5594,-1.5241,-1.5139,-1.5333,-1.4965,-1.4609,-1.4302,-1.3889,-1.3406,-1.2997,-1.291,-1.291,-1.291,-1.291,-1.291,-1.291,-1.291,-1.291,-1.291,-1.291,-1.291,-1.291,-1.291,-1.2929,-1.2983,-1.3036,-1.3089,-1.3271,-1.3367,-1.3438,-1.3592,-1.342,-1.3242,-1.3021,-1.255,-1.2314,-1.2448,-1.2339,-1.2234,-1.2297,-1.2263,-1.1977,-1.1448,-1.1297,-1.1297,-1.6472,-1.6506,-1.6506,-1.6506,-1.6506,-1.6506,-1.6506,-1.6506,0.0,0.0,0.0,-1.6659,-1.6686,-1.665,-1.6695,-1.6899,-1.7192,-1.7122,-1.7289,-1.7673,-1.7255,-1.7136,-1.7171,-1.6714,-1.6506,-1.6506,-1.6506,-1.6472,-1.6352,-1.5591,-1.5147,-1.488,-1.3749,-1.3055,-1.2875,-1.2131,-1.1493,-1.104,-1.0947,-1.09,-1.0895,-1.0533,-1.0283,-1.0195,-0.9512,-0.9082,-0.8994,-0.8569,-0.8163,-0.783,-0.7993,-0.8263,-0.8628,-0.8462,-0.8861,-0.9962,-0.9636,-0.9691,-1.0392,-1.0915,-1.135,-1.1716,-1.2807,-1.368,-1.4164,-1.3919,-1.4421,-1.6109,-1.6834,-1.6928,-1.6318,-1.5972,-1.5764,-1.5681,-1.5238,-1.4749,-1.424,-1.3781,-1.332,-1.2978,-1.291,-1.291,-1.291,-1.291,-1.291,-1.291,-1.291,-1.291,-1.291,-1.291,-1.291,-1.291,-1.291,-1.2934,-1.3027,-1.3133,-1.3223,-1.3343,-1.3443,-1.3563,-1.3586,-1.3615,-1.3467,-1.3189,-1.2822,-1.2594,-1.2433,-1.2462,-1.244,-1.2266,-1.2297,-1.2175,-1.1494,-1.1297,-1.1297,-1.6457,-1.6506,-1.6506,-1.6506,-1.6506,-1.6506,-1.6506,-1.6506,-1.6506,-1.6506,-1.6543,-1.7304,-1.7427,-1.7136,-1.7468,-1.7448,-1.7171,-1.6778,-1.6842,0.0,-1.6808,-1.6814,-1.715,-1.6729,-1.6506,-1.6506,-1.6506,-1.6293,-1.5926,-1.5772,-1.5311,-1.457,-1.4284,-1.3759,-1.2939,-1.2442,-1.198,-1.1509,-1.1116,-1.09,-1.09,-1.0843,-1.0616,-1.0216,-1.0077,-0.9819,-0.9422,-0.902,-0.8888,-0.9038,-0.8912,-0.9099,-0.9647,-0.9641,-0.9992,-1.0753,-1.0607,-1.0747,-1.1349,-1.1469,-1.1995,-1.3027,-1.3764,-1.4382,-1.4887,-1.4993,-1.5435,-1.6362,-1.6889,-1.7012,-1.6494,-1.6055,-1.5653,-1.526,-1.4754,-1.4212,-1.3795,-1.3315,-1.3002,-1.2934,-1.291,-1.291,-1.291,-1.291,-1.291,-1.291,-1.291,-1.291,-1.291,-1.291,-1.291,-1.291,-1.291,-1.2905,-1.2954,-1.3022,-1.3152,-1.3223,-1.3348,-1.3491,-1.3592,-1.3615,-1.3539,-1.3496,-1.3122,-1.3025,-1.3208,-1.2871,-1.2583,-1.2547,-1.2322,-1.1873,-1.1402,-1.1297,-1.1297,-1.6479,-1.6506,-1.6506,-1.6506,-1.6506,-1.6506,-1.6506,-1.6537,-1.6772,-1.6729,-1.658,-1.7179,-1.7379,-1.7213,-1.7393,-1.7502,-1.7509,-1.7067,-1.7096,-1.7475,-1.7081,-1.701,-1.713,-1.672,-1.6506,-1.6506,-1.6506,-1.6266,-1.581,-1.5528,-1.5068,-1.4419,-1.4111,-1.3621,-1.2943,-1.2703,-1.2404,-1.198,-1.1271,-1.09,-1.09,-1.09,-1.0783,-1.0572,-1.0345,-1.0102,-0.9886,-0.9469,-0.9366,-0.9715,-0.9813,-1.0073,-1.0516,-1.0725,-1.0966,-1.128,-1.1242,-1.1422,-1.2011,-1.231,-1.2881,-1.3803,-1.406,-1.4531,-1.5365,-1.5558,-1.5944,-1.6657,-1.6601,-1.6472,-1.6472,-1.6072,-1.5709,-1.5497,-1.4795,-1.4229,-1.3936,-1.332,-1.291,-1.291,-1.291,-1.291,-1.291,-1.291,-1.291,-1.291,-1.291,-1.291,-1.291,-1.291,-1.291,-1.291,-1.291,-1.2929,-1.2997,-1.3084,-1.319,-1.329,-1.342,-1.352,-1.3592,-1.3615,-1.351,-1.3314,-1.3112,-1.3059,-1.3193,-1.2808,-1.2539,-1.2353,-1.2175,-1.1773,-1.1427,-1.1297,-1.1297,-1.6506,-1.6506,-1.6506,-1.6506,-1.6506,-1.6506,-1.6506,-1.6537,-1.7017,-1.6989,-1.6757,-1.713,-1.724,-1.7046,-1.713,-1.731,-1.7441,-1.7186,-1.7275,-1.7598,-1.7227,-1.7094,-1.713,-1.6735,-1.6506,-1.6506,-1.6506,-1.6266,-1.5788,-1.5339,-1.4794,-1.4233,-1.381,-1.3411,-1.307,-1.2956,-1.2729,-1.2405,-1.153,-1.1069,-1.104,-1.0957,-1.09,-1.0879,-1.0564,-1.035,-1.0329,-0.9988,-0.9941,-1.0245,-1.0544,-1.0849,-1.1097,-1.1331,-1.1565,-1.1747,-1.1747,-1.1964,-1.2538,-1.2966,-1.3533,-1.4299,-1.4234,-1.4699,-1.5861,-1.589,-1.6087,-1.6579,-1.6182,-1.5963,-1.6191,-1.6029,-1.572,-1.5457,-1.4789,-1.4183,-1.3954,-1.331,-1.291,-1.291,-1.291,-1.291,-1.291,-1.291,-1.291,-1.291,-1.291,-1.291,-1.291,-1.291,-1.291,-1.291,-1.291,-1.2959,-1.3075,-1.3147,-1.3247,-1.3372,-1.3515,-1.3592,-1.3615,-1.3615,-1.3515,-1.3242,-1.3189,-1.316,-1.2991,-1.2774,-1.2511,-1.2262,-1.2015,-1.1773,-1.1398,-1.1297,-1.1297,-1.6506,-1.6506,-1.6506,-1.6506,-1.6506,-1.6506,-1.6506,-1.6571,-1.701,-1.7178,-1.7143,-1.7564,-1.7304,-1.6686,-1.7031,-1.7046,-1.6708,-1.658,-1.6814,-1.7171,-1.6793,-1.6772,-1.7109,-1.6729,-1.6506,-1.6506,-1.6506,-1.625,-1.5788,-1.5322,-1.4617,-1.3776,-1.3615,-1.36,-1.3483,-1.3116,-1.2884,-1.2827,-1.1975,-1.1524,-1.1534,-1.1107,-1.09,-1.09,-1.0864,-1.0824,-1.0821,-1.0734,-1.0699,-1.0752,-1.0948,-1.1078,-1.1115,-1.1102,-1.145,-1.2253,-1.2165,-1.2372,-1.3029,-1.3179,-1.3609,-1.443,-1.4474,-1.5144,-1.6731,-1.6195,-1.5763,-1.6019,-1.5914,-1.5836,-1.5875,-1.5836,-1.5491,-1.4789,-1.4449,-1.3983,-1.3296,-1.2959,-1.291,-1.291,-1.291,-1.291,-1.291,-1.291,-1.291,-1.291,-1.291,-1.291,-1.291,-1.291,-1.291,-1.291,-1.291,-1.2959,-1.308,-1.3171,-1.3271,-1.3391,-1.3515,-1.3592,-1.3615,-1.3615,-1.3568,-1.3491,-1.3491,-1.3486,-1.3409,-1.3213,-1.2749,-1.2267,-1.1985,-1.1744,-1.1398,-1.1297,-1.1297,-1.6506,-1.6506,-1.6506,-1.6506,-1.6506,-1.6506,-1.6506,-1.6565,-1.6983,-1.7046,-1.6892,-1.7489,-1.7591,-1.7297,-1.7468,-1.7304,-1.692,-1.6622,-1.6586,-1.6765,-1.658,-1.6607,-1.6757,-1.6607,-1.6506,-1.6506,-1.6506,-1.6266,-1.5744,-1.504,-1.4292,-1.3687,-1.3615,-1.3615,-1.3595,-1.34,-1.3313,-1.3287,-1.2699,-1.2265,-1.1954,-1.1287,-1.09,-1.0919,-1.1107,-1.1258,-1.1274,-1.1446,-1.1656,-1.1838,-1.1921,-1.2083,-1.2322,-1.2317,-1.2463,-1.2822,-1.2785,-1.2883,-1.3185,-1.351,-1.3989,-1.4558,-1.4885,-1.5465,-1.6323,-1.6599,-1.654,-1.5978,-1.5836,-1.5814,-1.5814,-1.5814,-1.5631,-1.5187,-1.4697,-1.4136,-1.3771,-1.3224,-1.291,-1.291,-1.291,-1.291,-1.291,-1.291,-1.291,-1.291,-1.291,-1.291,-1.291,-1.291,-1.291,-1.2905,-1.2954,-1.3032,-1.3104,-1.3224,-1.3319,-1.3391,-1.3515,-1.3615,-1.3615,-1.3615,-1.3615,-1.3615,-1.3615,-1.3615,-1.3586,-1.3261,-1.2842,-1.2374,-1.1816,-1.1469,-1.1322,-1.1297,-1.1297,-1.6506,-1.6506,-1.6506,-1.6506,-1.6506,-1.6506,-1.6506,-1.6571,-1.6983,-1.7004,-1.6799,-1.7489,-1.774,-1.7639,-1.7625,-1.7482,-1.7164,-1.6729,-1.6506,-1.6506,-1.6506,-1.6506,-1.6506,-1.6506,-1.6506,-1.6506,-1.6506,-1.6191,-1.5595,-1.4994,-1.4287,-1.371,-1.3615,-1.3615,-1.3615,-1.3615,-1.3615,-1.355,-1.3132,-1.2772,-1.2417,-1.1662,-1.1145,-1.0959,-1.1295,-1.1497,-1.1497,-1.1957,-1.236,-1.2573,-1.2685,-1.2902,-1.3163,-1.321,-1.321,-1.3223,-1.3366,-1.3458,-1.3458,-1.3985,-1.4492,-1.4888,-1.5271,-1.5672,-1.6157,-1.6723,-1.6704,-1.6154,-1.5881,-1.5814,-1.5814,-1.5814,-1.5742,-1.5586,-1.4812,-1.4276,-1.4053,-1.3358,-1.291,-1.291,-1.291,-1.291,-1.291,-1.291,-1.291,-1.291,-1.291,-1.291,-1.2939,-1.3003,-1.3091,-1.3135,-1.3323,-1.3402,-1.3207,-1.3262,-1.3372,-1.3472,-1.3544,-1.3615,-1.3615,-1.3615,-1.3615,-1.3615,-1.3615,-1.3586,-1.3586,-1.3285,-1.2895,-1.2432,-1.1873,-1.1393,-1.1326,-1.1326,-1.1326,-1.6506,-1.6506,-1.6506,-1.6506,-1.6506,-1.6506,-1.6506,-1.6515,-1.6968,-1.7157,-1.7144,-1.7612,-1.7591,-1.7261,-1.7296,-1.7247,-1.7136,-1.6714,-1.6506,-1.6506,-1.6506,-1.6506,-1.6506,-1.6506,-1.6506,-1.6506,-1.6506,-1.6054,-1.521,-1.5198,-1.4681,-1.3663,-1.3615,-1.3615,-1.3615,-1.3615,-1.3615,-1.3569,-1.3173,-1.2894,-1.2805,-1.2381,-1.1735,-1.1065,-1.1314,-1.1571,-1.1603,-1.221,-1.2609,-1.2603,-1.2954,-1.317,-1.321,-1.321,-1.321,-1.3298,-1.374,-1.4041,-1.4097,-1.4563,-1.506,-1.5506,-1.5504,-1.5799,-1.6549,-1.6278,-1.6126,-1.6414,-1.6007,-1.5814,-1.5814,-1.5814,-1.5631,-1.5266,-1.4674,-1.4142,-1.3739,-1.3272,-1.2959,-1.291,-1.291,-1.291,-1.291,-1.291,-1.291,-1.2886,-1.2886,-1.2886,-1.2939,-1.3203,-1.3398,-1.3659,-1.3986,-1.4235,-1.3454,-1.3561,-1.3626,-1.3613,-1.3723,-1.3641,-1.3621,-1.3615,-1.3615,-1.3615,-1.3615,-1.3586,-1.3534,-1.3319,-1.2934,-1.2481,-1.1993,-1.1594,-1.1398,-1.1448,-1.1423,-1.6506,-1.6506,-1.6506,-1.6506,-1.6506,-1.6506,-1.6506,-1.6515,-1.6665,-1.675,-1.6877,-1.7489,-1.7578,-1.7205,-1.7475,-1.7269,-1.6778,-1.658,-1.6506,-1.6506,-1.6506,-1.6506,-1.6506,-1.6506,-1.6506,-1.6506,-1.6506,-1.601,-1.5193,-1.5153,-1.4651,-1.3776,-1.3615,-1.3615,-1.3615,-1.3615,-1.3615,-1.3595,-1.3434,-1.3204,-1.2925,-1.2733,-1.2215,-1.1454,-1.1918,-1.2198,-1.2198,-1.2714,-1.3001,-1.2989,-1.3123,-1.321,-1.321,-1.321,-1.3547,-1.4174,-1.4167,-1.4254,-1.4614,-1.511,-1.5473,-1.5666,-1.5841,-1.6025,-1.6296,-1.6063,-1.5881,-1.5985,-1.5925,-1.5814,-1.5814,-1.5814,-1.5742,-1.5485,-1.4806,-1.4229,-1.3959,-1.3392,-1.291,-1.291,-1.291,-1.291,-1.291,-1.291,-1.291,-1.2876,-1.2598,-1.2597,-1.2827,-1.2986,-1.3241,-1.3691,-1.4186,-1.4539,-1.4363,-1.4358,-1.4403,-1.416,-1.405,-1.3869,-1.3786,-1.3652,-1.3621,-1.3644,-1.3644,-1.371,-1.3705,-1.3671,-1.3242,-1.273,-1.2221,-1.181,-1.1519,-1.1548,-1.1494,-1.6506,-1.6506,-1.6506,-1.6506,-1.6506,-1.6506,-1.6506,-1.6506,-1.6506,-1.6506,-1.6622,-1.7137,-1.7227,-1.7046,-1.7269,-1.7089,-1.6549,-1.6506,-1.6506,-1.6506,-1.6506,-1.6506,-1.6506,-1.6506,-1.6429,-1.6266,-1.6157,-1.568,-1.4966,-1.4886,-1.4449,-1.3634,-1.3615,-1.3615,-1.3615,-1.3615,-1.3615,-1.3615,-1.3615,-1.3431,-1.3165,-1.3108,-1.2819,-1.2403,-1.2793,-1.2866,-1.2496,-1.3103,-1.3372,-1.3229,-1.321,-1.321,-1.3217,-1.3554,-1.408,-1.4752,-1.4739,-1.4771,-1.5148,-1.5669,-1.5936,-1.5934,-1.6089,-1.6194,-1.6134,-1.5931,-1.5814,-1.5814,-1.5814,-1.5814,-1.5814,-1.5814,-1.5814,-1.5675,-1.488,-1.4299,-1.4224,-1.3425,-1.2944,-1.2886,-1.291,-1.291,-1.291,-1.291,-1.2983,-1.3076,-1.2749,-1.2782,-1.314,-1.3396,-1.3559,-1.4139,-1.4728,-1.5138,-1.5238,-1.5373,-1.5023,-1.4738,-1.4298,-1.4102,-1.3881,-1.3731,-1.365,-1.3697,-1.3768,-1.3839,-1.3899,-1.3884,-1.3542,-1.3054,-1.2574,-1.2138,-1.188,-1.1648,-1.1641,-1.6506,-1.6506,-1.6506,-1.6506,-1.6506,-1.6506,-1.6506,-1.6506,-1.6506,-1.6506,-1.6522,-1.6607,-1.668,-1.6552,-1.668,-1.6558,-1.6528,-1.6506,-1.6506,-1.6506,-1.6506,-1.6506,-1.6506,-1.6506,-1.6272,-1.5854,-1.5484,-1.5023,-1.4512,-1.4508,-1.4229,-1.3705,-1.3615,-1.3615,-1.3615,-1.3615,-1.3615,-1.3615,-1.3615,-1.3595,-1.3606,-1.3535,-1.347,-1.3461,-1.3914,-1.3612,-1.2355,-1.346,-1.3866,-1.3397,-1.3311,-1.3235,-1.3491,-1.4212,-1.4871,-1.5053,-1.5405,-1.5624,-1.5737,-1.6149,-1.6385,-1.6333,-1.6284,-1.6144,-1.6072,-1.5897,-1.5814,-1.5814,-1.5814,-1.5814,-1.5814,-1.5748,-1.577,-1.5697,-1.4863,-1.4258,-1.4095,-1.3353,-1.2749,-1.2876,-1.291,-1.291,-1.291,-1.291,-1.3037,-1.3295,-1.3305,-1.3401,-1.3808,-1.4152,-1.4751,-1.5159,-1.5426,-1.5682,-1.6041,-1.6319,-1.5742,-1.5225,-1.4707,-1.4335,-1.4082,-1.3921,-1.3768,-1.3792,-1.4057,-1.415,-1.421,-1.4147,-1.375,-1.3265,-1.2832,-1.2455,-1.2131,-1.19,-1.1854,-1.6506,-1.6506,-1.6506,-1.6506,-1.6506,-1.6506,-1.6506,-1.6506,-1.6506,-1.6506,-1.6571,-1.6842,-1.6793,-1.6644,-1.6814,-1.6793,-1.6522,-1.6506,-1.6506,-1.6506,-1.6506,-1.6506,-1.6506,-1.6506,-1.6266,-1.5794,-1.5361,-1.4897,-1.4483,-1.4408,-1.4152,-1.3705,-1.3615,-1.3615,-1.3615,-1.3615,-1.3615,-1.3615,-1.3615,-1.3615,-1.3639,-1.3943,-1.3968,-1.379,-1.4716,-1.4758,-1.3749,-1.4279,-1.4532,-1.4331,-1.4356,-1.4356,-1.4431,-1.4701,-1.5236,-1.5869,-1.5775,-1.5888,-1.6205,-1.6381,-1.65,-1.6436,-1.6297,-1.6194,-1.6122,-1.5925,-1.5814,-1.5814,-1.5814,-1.5814,-1.577,-1.5497,-1.548,-1.5776,-1.484,-1.4147,-1.4035,-1.3286,-1.2852,-1.2886,-1.291,-1.291,-1.291,-1.291,-1.3116,-1.3427,-1.3283,-1.3321,-1.3973,-1.44,-1.4644,-1.5177,-1.564,-1.61,-1.6278,-1.6371,-1.6065,-1.5597,-1.5137,-1.4592,-1.4338,-1.4134,-1.3975,-1.4022,-1.4267,-1.443,-1.4489,-1.4385,-1.4037,-1.3629,-1.3267,-1.2841,-1.2353,-1.2194,-1.2193,-1.6506,-1.6506,-1.6506,-1.6506,-1.6506,-1.6506,-1.6506,-1.6506,-1.6506,-1.6506,-1.6565,-1.6793,-1.6799,-1.6601,-1.6814,-1.6778,-1.6528,-1.6506,-1.6506,-1.6506,-1.6506,-1.6506,-1.6414,-1.6098,-1.5834,-1.5467,-1.4863,-1.4414,-1.4111,-1.4082,-1.3928,-1.3634,-1.3615,-1.3615,-1.3615,-1.3615,-1.3615,-1.3615,-1.3615,-1.3681,-1.3928,-1.4233,-1.434,-1.4379,-1.5241,-1.543,-1.4919,-1.5251,-1.5305,-1.5028,-1.5072,-1.511,-1.4953,-1.5241,-1.58,-1.6252,-1.6252,-1.617,-1.6463,-1.6494,-1.6463,-1.6377,-1.6275,-1.615,-1.6041,-1.5852,-1.5814,-1.5814,-1.5814,-1.5814,-1.5748,-1.5385,-1.5272,-1.5497,-1.4485,-1.3795,-1.3491,-1.305,-1.2779,-1.2803,-1.2852,-1.291,-1.291,-1.3091,-1.3276,-1.3555,-1.3588,-1.3728,-1.4439,-1.4746,-1.512,-1.543,-1.5811,-1.6156,-1.6335,-1.635,-1.6278,-1.5962,-1.5572,-1.5034,-1.46,-1.4414,-1.424,-1.439,-1.4587,-1.4748,-1.4829,-1.4875,-1.468,-1.4203,-1.3614,-1.3243,-1.2849,-1.2701,-1.264,-1.6506,-1.6506,-1.6506,-1.6506,-1.6506,-1.6506,-1.6506,-1.6506,-1.6506,-1.6506,-1.65,-1.6543,-1.6543,-1.6506,-1.6558,-1.6549,-1.6506,-1.6506,-1.6506,-1.6506,-1.6506,-1.6506,-1.642,-1.5657,-1.5266,-1.5034,-1.417,-1.371,-1.371,-1.3681,-1.3615,-1.3615,-1.3615,-1.3615,-1.3615,-1.3615,-1.3615,-1.3615,-1.3663,-1.3928,-1.4344,-1.4507,-1.4697,-1.5101,-1.5594,-1.585,-1.583,-1.6108,-1.5957,-1.5229,-1.5537,-1.5556,-1.5317,-1.5963,-1.6431,-1.6522,-1.6488,-1.6456,-1.65,-1.6506,-1.6414,-1.6275,-1.6216,-1.6085,-1.5897,-1.5836,-1.5814,-1.5814,-1.5814,-1.5814,-1.5732,-1.5289,-1.5017,-1.4772,-1.392,-1.3156,-1.2495,-1.2578,-1.2705,-1.2754,-1.2832,-1.291,-1.293,-1.3208,-1.3588,-1.4002,-1.435,-1.4808,-1.5279,-1.548,-1.5752,-1.596,-1.6083,-1.6218,-1.6374,-1.6387,-1.6322,-1.6132,-1.5917,-1.5631,-1.5097,-1.4869,-1.469,-1.481,-1.4958,-1.5097,-1.5188,-1.5279,-1.4891,-1.4177,-1.3757,-1.3575,-1.3271,-1.2916,-1.2774,-1.6506,-1.6506,-1.6506,-1.6506,-1.6506,-1.6506,-1.6506,-1.6506,-1.6506,-1.6506,-1.6506,-1.6506,-1.6506,-1.6506,-1.6506,-1.6506,-1.6506,-1.6506,-1.6506,-1.6506,-1.6506,-1.6506,-1.6328,-1.5546,-1.5091,-1.4926,-1.4106,-1.3615,-1.3615,-1.3615,-1.3615,-1.3615,-1.3615,-1.3615,-1.3615,-1.3615,-1.3615,-1.3692,-1.4022,-1.421,-1.4489,-1.5108,-1.5478,-1.564,-1.6064,-1.6287,-1.6315,-1.6436,-1.6434,-1.613,-1.6208,-1.6231,-1.6076,-1.6325,-1.6506,-1.6506,-1.6506,-1.6506,-1.6506,-1.6506,-1.6436,-1.6362,-1.6237,-1.6122,-1.5979,-1.5852,-1.5814,-1.5814,-1.5814,-1.5814,-1.5681,-1.5028,-1.4253,-1.3367,-1.3247,-1.3084,-1.2696,-1.2652,-1.273,-1.2837,-1.2881,-1.2886,-1.2939,-1.3276,-1.363,-1.4038,-1.4541,-1.5031,-1.5543,-1.5817,-1.5928,-1.6072,-1.6205,-1.6311,-1.6379,-1.6402,-1.6358,-1.6244,-1.6225,-1.6358,-1.5886,-1.5529,-1.5362,-1.5325,-1.5515,-1.5681,-1.5693,-1.5749,-1.498,-1.4286,-1.3779,-1.3486,-1.2981,-1.2602,-1.2631,-1.6506,-1.6506,-1.6506,-1.6506,-1.6506,-1.6506,-1.6506,-1.6506,-1.6506,-1.6506,-1.6506,-1.6506,-1.6506,-1.6506,-1.6506,-1.6506,-1.6506,-1.6506,-1.6506,-1.6457,-1.6293,-1.6201,-1.5954,-1.5255,-1.4811,-1.472,-1.3994,-1.3663,-1.3615,-1.3615,-1.3615,-1.3615,-1.3615,-1.3615,-1.3615,-1.3615,-1.3615,-1.371,-1.414,-1.4471,-1.4743,-1.5417,-1.586,-1.6064,-1.6386,-1.6506,-1.6506,-1.6506,-1.6506,-1.6494,-1.65,-1.6506,-1.6506,-1.6506,-1.6506,-1.6506,-1.6506,-1.6506,-1.6506,-1.6472,-1.642,-1.6324,-1.6194,-1.6044,-1.5935,-1.5859,-1.5814,-1.5814,-1.5814,-1.5814,-1.5631,-1.4863,-1.3813,-1.2929,-1.2852,-1.2847,-1.25,-1.2529,-1.2627,-1.2725,-1.2827,-1.2779,-1.2656,-1.3237,-1.3642,-1.396,-1.4671,-1.5225,-1.5743,-1.5889,-1.6053,-1.6197,-1.6283,-1.6379,-1.6527,-1.655,-1.6653,-1.6548,-1.6759,-1.6911,-1.6596,-1.6203,-1.6023,-1.5954,-1.6107,-1.6164,-1.6125,-1.5962,-1.5439,-1.4747,-1.4035,-1.3361,-1.2909,-1.2528,-1.2565,-1.6506,-1.6506,-1.6506,-1.6506,-1.6506,-1.6506,-1.6506,-1.6506,-1.6506,-1.6506,-1.6506,-1.6506,-1.6506,-1.6506,-1.6506,-1.6506,-1.6506,-1.6506,-1.6506,-1.6343,-1.6042,-1.5728,-1.5617,-1.4892,-1.4518,-1.4373,-1.3881,-1.3639,-1.3615,-1.3615,-1.3615,-1.3615,-1.3615,-1.3615,-1.3615,-1.3615,-1.3615,-1.3705,-1.4134,-1.4605,-1.5011,-1.5534,-1.597,-1.6371,-1.6457,-1.6506,-1.6506,-1.6506,-1.6506,-1.6506,-1.6506,-1.6506,-1.6506,-1.6506,-1.6506,-1.6506,-1.6506,-1.6506,-1.6506,-1.6463,-1.6377,-1.6253,-1.6116,-1.5957,-1.5875,-1.5836,-1.5814,-1.5814,-1.5764,-1.5586,-1.5266,-1.4593,-1.3752,-1.289,-1.2622,-1.2421,-1.2249,-1.2352,-1.2529,-1.2554,-1.2759,-1.2603,-1.2669,-1.3065,-1.3827,-1.3858,-1.4562,-1.5116,-1.5621,-1.5946,-1.6139,-1.6322,-1.6407,-1.6465,-1.6612,-1.6754,-1.6885,-1.6979,-1.7363,-1.7489,-1.7209,-1.6895,-1.6678,-1.6578,-1.6401,-1.6353,-1.6343,-1.6071,-1.5577,-1.4852,-1.3896,-1.3402,-1.3013,-1.2688,-1.2597,-1.6506,-1.6506,-1.6506,-1.6506,-1.6506,-1.6506,-1.6506,-1.6506,-1.6506,-1.6506,-1.6506,-1.6506,-1.6506,-1.6506,-1.6506,-1.6506,-1.6506,-1.6506,-1.6506,-1.6392,-1.5607,-1.5305,-1.5147,-1.4622,-1.4402,-1.4228,-1.3858,-1.3621,-1.3615,-1.3615,-1.3615,-1.3615,-1.3615,-1.3615,-1.3615,-1.3615,-1.3615,-1.3687,-1.4116,-1.4622,-1.5096,-1.5557,-1.6014,-1.6457,-1.6506,-1.6506,-1.6506,-1.6506,-1.6506,-1.6506,-1.6506,-1.6506,-1.6506,-1.6506,-1.6506,-1.6506,-1.6506,-1.6506,-1.6506,-1.6479,-1.6436,-1.6362,-1.6203,-1.61,-1.5979,-1.583,-1.5792,-1.5748,-1.5463,-1.4943,-1.4339,-1.3947,-1.3406,-1.2886,-1.2647,-1.2573,-1.2451,-1.2451,-1.2573,-1.2725,-1.2754,-1.273,-1.2671,-1.2739,-1.3294,-1.3776,-1.4353,-1.4934,-1.545,-1.5931,-1.6192,-1.6379,-1.6584,-1.6669,-1.6795,-1.6998,-1.7217,-1.7351,-1.7711,-1.7914,-1.7651,-1.7425,-1.7156,-1.6819,-1.6504,-1.6497,-1.6488,-1.5799,-1.5237,-1.4501,-1.381,-1.3275,-1.2854,-1.2688,-1.2712,-1.6506,-1.6506,-1.6506,-1.6506,-1.6506,-1.6506,-1.6506,-1.6506,-1.6506,-1.6506,-1.6506,-1.6506,-1.6506,-1.6506,-1.6506,-1.6506,-1.6506,-1.6506,-1.6506,-1.6284,-1.5568,-1.5136,-1.4903,-1.4391,-1.4028,-1.397,-1.3758,-1.3615,-1.3615,-1.3615,-1.3615,-1.3615,-1.3615,-1.3615,-1.3615,-1.3615,-1.3615,-1.3716,-1.414,-1.4628,-1.5108,-1.5557,-1.6036,-1.6408,-1.6506,-1.6506,-1.6506,-1.6506,-1.6506,-1.6506,-1.6506,-1.6506,-1.6506,-1.6506,-1.6506,-1.6506,-1.6506,-1.6506,-1.6506,-1.6457,-1.6414,-1.6405,-1.6275,-1.6138,-1.5951,-1.5752,-1.553,-1.5395,-1.4977,-1.4398,-1.371,-1.3539,-1.3238,-1.2842,-1.2647,-1.2578,-1.2529,-1.2554,-1.2627,-1.2779,-1.2803,-1.2475,-1.2365,-1.2526,-1.2624,-1.3086,-1.3802,-1.4416,-1.5317,-1.5773,-1.6192,-1.6459,-1.6731,-1.6924,-1.701,-1.7228,-1.754,-1.7706,-1.7898,-1.8035,-1.7931,-1.7713,-1.7534,-1.7139,-1.6727,-1.655,-1.6415,-1.5655,-1.498,-1.4432,-1.3803,-1.3131,-1.2689,-1.2535,-1.2726,-1.6506,-1.6506,-1.6506,-1.6506,-1.6506,-1.6506,-1.6506,-1.6506,-1.6506,-1.6506,-1.6506,-1.6506,-1.6506,-1.6506,-1.6506,-1.6506,-1.6506,-1.6506,-1.6506,-1.6377,-1.5524,-1.5159,-1.488,-1.4199,-1.3692,-1.3615,-1.3615,-1.3615,-1.3615,-1.3615,-1.3615,-1.3615,-1.3615,-1.3615,-1.3615,-1.3615,-1.3615,-1.3692,-1.3999,-1.4443,-1.488,-1.5316,-1.5728,-1.6244,-1.6321,-1.6408,-1.6457,-1.6506,-1.6506,-1.6506,-1.6506,-1.6506,-1.6506,-1.6506,-1.6506,-1.6506,-1.6506,-1.6506,-1.65,-1.6457,-1.6414,-1.6392,-1.6182,-1.605,-1.5863,-1.5473,-1.521,-1.4983,-1.4634,-1.4059,-1.3549,-1.3358,-1.3128,-1.2822,-1.2632,-1.2558,-1.2578,-1.2676,-1.273,-1.271,-1.2759,-1.2554,-1.2294,-1.2268,-1.2299,-1.2426,-1.3168,-1.3977,-1.4893,-1.5589,-1.5994,-1.641,-1.6676,-1.7222,-1.7396,-1.7501,-1.781,-1.7898,-1.8057,-1.8084,-1.8084,-1.7971,-1.7706,-1.7286,-1.6959,-1.6682,-1.6229,-1.5561,-1.4955,-1.4417,-1.3963,-1.3459,-1.2978,-1.2468,-1.2762,-1.6506,-1.6506,-1.6506,-1.6506,-1.6506,-1.6506,-1.6506,-1.6506,-1.6506,-1.6506,-1.6506,-1.6506,-1.6506,-1.6506,-1.6506,-1.6506,-1.6506,-1.6506,-1.6506,-1.6349,-1.5574,-1.5114,-1.4903,-1.4106,-1.3639,-1.3615,-1.3615,-1.3615,-1.3615,-1.3615,-1.3615,-1.3615,-1.3615,-1.3615,-1.3615,-1.3615,-1.3615,-1.3615,-1.3781,-1.4087,-1.4507,-1.4806,-1.5175,-1.5838,-1.5954,-1.6129,-1.6408,-1.6485,-1.6506,-1.6506,-1.6506,-1.6506,-1.6506,-1.6506,-1.6506,-1.6506,-1.6506,-1.6506,-1.65,-1.6506,-1.6479,-1.6358,-1.6054,-1.5746,-1.554,-1.5068,-1.4772,-1.4686,-1.4292,-1.371,-1.3084,-1.306,-1.2997,-1.2856,-1.2779,-1.2759,-1.2779,-1.2705,-1.2652,-1.2505,-1.2583,-1.2607,-1.2265,-1.2093,-1.2232,-1.2383,-1.2865,-1.3719,-1.4648,-1.5243,-1.5679,-1.6107,-1.6537,-1.7217,-1.7832,-1.7887,-1.803,-1.8002,-1.8084,-1.8084,-1.8084,-1.8084,-1.7848,-1.7496,-1.6872,-1.6273,-1.5825,-1.5352,-1.4783,-1.4166,-1.3951,-1.3798,-1.3248,-1.2767,-1.2964,-1.6506,-1.6506,-1.6506,-1.6506,-1.6506,-1.6506,-1.6506,-1.6506,-1.6506,-1.6506,-1.6506,-1.6506,-1.6506,-1.6506,-1.6506,-1.6506,-1.6485,-1.6506,-1.6506,-1.6306,-1.5603,-1.5119,-1.4977,-1.4064,-1.371,-1.3615,-1.3615,-1.3615,-1.3615,-1.3615,-1.3615,-1.3615,-1.3615,-1.3615,-1.3615,-1.3615,-1.3615,-1.3615,-1.3639,-1.3858,-1.4373,-1.4587,-1.5051,-1.5316,-1.5684,-1.5898,-1.6101,-1.6429,-1.65,-1.6506,-1.6506,-1.6506,-1.6506,-1.6485,-1.6506,-1.6506,-1.6506,-1.6506,-1.6506,-1.6506,-1.6506,-1.6423,-1.5976,-1.569,-1.54,-1.4852,-1.424,-1.3928,-1.3763,-1.3272,-1.2954,-1.291,-1.291,-1.2856,-1.27,-1.2549,-1.2426,-1.2224,-1.2146,-1.2146,-1.2451,-1.2377,-1.1914,-1.1913,-1.2149,-1.2401,-1.2673,-1.3489,-1.4435,-1.5016,-1.5533,-1.6461,-1.7011,-1.7435,-1.7969,-1.803,-1.8084,-1.8084,-1.8084,-1.8084,-1.8084,-1.8084,-1.8024,-1.7815,-1.7051,-1.6221,-1.558,-1.5147,-1.4537,-1.4015,-1.3958,-1.3806,-1.3396,-1.3144,-1.3323,-1.6506,-1.6506,-1.6506,-1.6506,-1.6506,-1.6506,-1.6506,-1.6506,-1.6506,-1.6506,-1.6506,-1.6506,-1.6506,-1.6485,-1.6386,-1.6293,-1.625,-1.6197,-1.6154,-1.5973,-1.5328,-1.4954,-1.4697,-1.4181,-1.3615,-1.3615,-1.3615,-1.3615,-1.3615,-1.3615,-1.3615,-1.3615,-1.3615,-1.3615,-1.3615,-1.3615,-1.3615,-1.3615,-1.3615,-1.3858,-1.4233,-1.4697,-1.4971,-1.5034,-1.5506,-1.5816,-1.5904,-1.6107,-1.638,-1.6429,-1.6436,-1.6402,-1.6472,-1.6408,-1.6408,-1.6479,-1.6506,-1.6472,-1.6386,-1.6479,-1.6392,-1.607,-1.5844,-1.5601,-1.5153,-1.4374,-1.3605,-1.307,-1.2934,-1.2949,-1.291,-1.291,-1.2832,-1.2686,-1.2431,-1.218,-1.1947,-1.1744,-1.164,-1.1814,-1.2249,-1.2146,-1.1681,-1.1748,-1.2004,-1.2393,-1.2664,-1.3415,-1.4333,-1.4997,-1.5705,-1.6926,-1.7601,-1.7826,-1.8084,-1.8057,-1.8084,-1.8084,-1.8084,-1.8084,-1.8084,-1.8084,-1.8024,-1.7958,-1.7291,-1.6466,-1.5743,-1.5094,-1.4717,-1.4373,-1.4152,-1.3933,-1.3772,-1.3543,-1.3502,-1.6506,-1.6506,-1.6506,-1.6506,-1.6506,-1.6506,-1.6506,-1.6506,-1.6506,-1.6506,-1.6506,-1.6506,-1.65,-1.6365,-1.602,-1.5668,-1.5434,-1.5395,-1.5446,-1.535,-1.4857,-1.4558,-1.4419,-1.391,-1.3639,-1.3615,-1.3615,-1.3615,-1.3615,-1.3615,-1.3615,-1.3615,-1.3615,-1.3615,-1.3615,-1.3615,-1.3615,-1.3615,-1.3615,-1.3663,-1.3787,-1.4228,-1.4443,-1.4686,-1.522,-1.5706,-1.5706,-1.5838,-1.6014,-1.6358,-1.607,-1.6107,-1.6337,-1.6086,-1.6173,-1.6365,-1.6457,-1.6303,-1.6064,-1.6157,-1.6082,-1.5597,-1.526,-1.4966,-1.4496,-1.3931,-1.3281,-1.2978,-1.291,-1.291,-1.291,-1.2876,-1.2652,-1.2455,-1.2303,-1.1893,-1.156,-1.1154,-1.1053,-1.1053,-1.1355,-1.156,-1.1456,-1.1644,-1.1879,-1.2296,-1.2778,-1.3526,-1.4437,-1.5323,-1.6035,-1.7241,-1.7826,-1.8057,-1.8193,-1.8166,-1.8187,-1.8166,-1.816,-1.816,-1.822,-1.822,-1.8166,-1.793,-1.7352,-1.6833,-1.6135,-1.5565,-1.5094,-1.4661,-1.4344,-1.4336,-1.4405,-1.413,-1.3717,-1.6451,-1.6506,-1.6506,-1.6506,-1.6506,-1.6506,-1.6506,-1.6506,-1.6506,-1.6506,-1.6506,-1.6506,-1.6365,-1.6026,-1.5607,-1.53,-1.5136,-1.5068,-1.5091,-1.4977,-1.461,-1.4402,-1.4285,-1.3881,-1.3615,-1.3615,-1.3615,-1.3615,-1.3615,-1.3615,-1.3615,-1.3615,-1.3615,-1.3615,-1.3663,-1.3615,-1.3615,-1.3615,-1.3615,-1.3615,-1.3663,-1.381,-1.3981,-1.3999,-1.468,-1.5136,-1.5355,-1.5406,-1.564,-1.591,-1.5651,-1.5778,-1.6092,-1.5822,-1.5327,-1.4795,-1.5423,-1.569,-1.58,-1.5762,-1.5463,-1.517,-1.4834,-1.446,-1.3912,-1.3505,-1.3127,-1.2929,-1.2905,-1.291,-1.2808,-1.2603,-1.2377,-1.2175,-1.1898,-1.1385,-1.0947,-1.0639,-1.0409,-1.0413,-1.049,-1.0821,-1.12,-1.1514,-1.1748,-1.2061,-1.2817,-1.3751,-1.5024,-1.6407,-1.701,-1.7638,-1.7969,-1.8144,-1.8253,-1.8307,-1.8377,-1.8377,-1.8398,-1.8398,-1.8431,-1.8404,-1.8323,-1.8302,-1.8061,-1.7407,-1.6624,-1.5882,-1.525,-1.4868,-1.4485,-1.4465,-1.4396,-1.4167,-1.375,-1.6321,-1.6506,-1.6506,-1.6506,-1.6506,-1.6506,-1.6506,-1.6506,-1.6506,-1.6506,-1.6457,-1.6337,-1.5998,-1.5484,-1.5074,-1.4829,-1.4686,-1.4731,-1.4731,-1.4576,-1.4419,-1.4204,-1.4041,-1.3729,-1.3615,-1.3615,-1.3615,-1.3615,-1.3615,-1.3615,-1.3644,-1.3697,-1.3739,-1.3787,-1.3781,-1.3763,-1.3721,-1.3615,-1.3615,-1.3615,-1.3639,-1.3776,-1.3758,-1.3876,-1.421,-1.4685,-1.4886,-1.4932,-1.5159,-1.5423,-1.5187,-1.5294,-1.5778,-1.5316,-1.4588,-1.417,-1.4472,-1.4909,-1.5153,-1.522,-1.4989,-1.4691,-1.446,-1.4022,-1.3621,-1.3348,-1.3247,-1.3074,-1.2997,-1.2963,-1.2779,-1.2426,-1.2022,-1.1644,-1.1213,-1.0702,-1.0322,-1.037,-1.0204,-1.0068,-1.02,-1.0413,-1.0795,-1.1305,-1.1635,-1.1889,-1.2741,-1.3898,-1.5365,-1.6951,-1.7591,-1.7998,-1.8187,-1.8302,-1.8383,-1.8464,-1.8512,-1.856,-1.8581,-1.8581,-1.856,-1.856,-1.8506,-1.8506,-1.8458,-1.77,-1.6742,-1.6065,-1.5386,-1.4882,-1.4462,-1.4364,-1.424,-1.4066,-1.3654,-1.5982,-1.6506,-1.6506,-1.6506,-1.6506,-1.6506,-1.6506,-1.6506,-1.6506,-1.65,-1.6386,-1.5998,-1.5305,-1.4709,-1.4489,-1.421,-1.3776,-1.3705,-1.3829,-1.3823,-1.3658,-1.3758,-1.3705,-1.3681,-1.3615,-1.3615,-1.3639,-1.3663,-1.3639,-1.3734,-1.3815,-1.3926,-1.3868,-1.4098,-1.4093,-1.3905,-1.3744,-1.3644,-1.3615,-1.3615,-1.3729,-1.3899,-1.3999,-1.3871,-1.4414,-1.4886,-1.45,-1.4471,-1.4651,-1.5074,-1.4686,-1.4599,-1.4949,-1.4703,-1.4087,-1.3852,-1.3781,-1.4199,-1.4449,-1.472,-1.4536,-1.4006,-1.371,-1.3744,-1.3565,-1.3583,-1.3488,-1.3301,-1.3089,-1.2949,-1.2715,-1.2372,-1.1769,-1.1393,-1.0989,-1.0629,-1.0429,-1.0582,-1.0391,-0.9939,-1.0016,-1.0442,-1.0731,-1.1276,-1.1569,-1.1843,-1.2854,-1.3994,-1.5466,-1.6918,-1.7674,-1.8187,-1.8417,-1.8545,-1.8566,-1.8619,-1.8646,-1.8667,-1.8721,-1.8694,-1.864,-1.8634,-1.8667,-1.8506,-1.8344,-1.7617,-1.6944,-1.6288,-1.5609,-1.4882,-1.4444,-1.44,-1.4382,-1.4323,-1.3646,-1.6241,-1.6506,-1.6506,-1.6506,-1.6506,-1.6506,-1.6506,-1.6506,-1.6506,-1.6315,-1.6042,-1.5294,-1.4749,-1.4396,-1.4022,-1.3805,-1.3615,-1.3615,-1.3615,-1.3615,-1.3615,-1.3615,-1.3615,-1.3615,-1.3615,-1.3663,-1.3739,-1.3844,-1.3868,-1.3905,-1.421,-1.4291,-1.3981,-1.3834,-1.3834,-1.3928,-1.3763,-1.3673,-1.3615,-1.3615,-1.3639,-1.3729,-1.3805,-1.3734,-1.3823,-1.4292,-1.4298,-1.4035,-1.4269,-1.4391,-1.4158,-1.4176,-1.4246,-1.4035,-1.3847,-1.3634,-1.3615,-1.3739,-1.3852,-1.4129,-1.3959,-1.3823,-1.3615,-1.3621,-1.3612,-1.3597,-1.3525,-1.3329,-1.3016,-1.2759,-1.2671,-1.2076,-1.1448,-1.1171,-1.0867,-1.0531,-1.048,-1.0637,-1.0659,-1.0255,-1.0502,-1.0879,-1.1116,-1.1348,-1.1566,-1.1846,-1.2981,-1.4156,-1.5544,-1.6809,-1.7595,-1.8254,-1.8519,-1.8673,-1.8706,-1.8732,-1.8753,-1.878,-1.8827,-1.8801,-1.8774,-1.8833,-1.8833,-1.8587,-1.8209,-1.7518,-1.6927,-1.6482,-1.5748,-1.4852,-1.4515,-1.4467,-1.4476,-1.4485,-1.3696,-1.6126,-1.63,-1.6451,-1.6506,-1.6506,-1.6506,-1.6506,-1.6506,-1.6506,-1.6141,-1.5557,-1.4875,-1.4402,-1.4122,-1.3805,-1.3634,-1.3615,-1.3615,-1.3615,-1.3615,-1.3615,-1.3663,-1.3697,-1.3744,-1.3805,-1.3834,-1.3886,-1.3991,-1.4127,-1.4168,-1.4285,-1.4257,-1.4017,-1.3823,-1.4106,-1.3947,-1.3852,-1.3768,-1.3716,-1.3663,-1.3639,-1.3615,-1.3634,-1.3615,-1.3687,-1.38,-1.397,-1.3858,-1.3834,-1.3947,-1.3852,-1.3663,-1.3639,-1.3615,-1.3615,-1.3621,-1.3673,-1.3673,-1.3615,-1.3615,-1.3615,-1.3615,-1.3615,-1.3615,-1.3615,-1.3592,-1.3515,-1.3247,-1.2827,-1.2505,-1.248,-1.1848,-1.1352,-1.1099,-1.0773,-1.0462,-1.0539,-1.0641,-1.0714,-1.0629,-1.0951,-1.1238,-1.144,-1.1671,-1.1966,-1.2269,-1.3071,-1.4171,-1.5362,-1.6549,-1.7543,-1.8133,-1.8567,-1.8715,-1.8845,-1.8866,-1.886,-1.8887,-1.8934,-1.8966,-1.8966,-1.894,-1.8715,-1.8354,-1.7897,-1.739,-1.683,-1.6218,-1.5473,-1.4709,-1.454,-1.4421,-1.4485,-1.4421,-1.3731,-1.5457,-1.5854,-1.63,-1.6457,-1.6457,-1.6506,-1.6506,-1.65,-1.6457,-1.5994,-1.5283,-1.5017,-1.4512,-1.3881,-1.3687,-1.3615,-1.3615,-1.3615,-1.3615,-1.3615,-1.3615,-1.3763,-1.3863,-1.3934,-1.3981,-1.4239,-1.4239,-1.4215,-1.4373,-1.4181,-1.4204,-1.4298,-1.4176,-1.4053,-1.4897,-1.4748,-1.4407,-1.4038,-1.3934,-1.3787,-1.3692,-1.3663,-1.3692,-1.3734,-1.3692,-1.3758,-1.3787,-1.3716,-1.3692,-1.371,-1.3739,-1.3668,-1.3673,-1.3687,-1.3687,-1.3668,-1.3844,-1.3821,-1.3634,-1.3615,-1.3639,-1.3615,-1.3615,-1.3615,-1.3615,-1.3563,-1.3433,-1.3146,-1.2608,-1.2249,-1.1977,-1.1648,-1.1326,-1.1074,-1.0769,-1.0697,-1.0799,-1.0871,-1.0989,-1.1011,-1.1267,-1.1548,-1.1753,-1.1981,-1.2362,-1.2783,-1.3357,-1.4281,-1.5416,-1.6558,-1.7665,-1.8245,-1.8708,-1.8815,-1.8946,-1.8972,-1.8993,-1.9019,-1.9019,-1.9019,-1.8821,-1.8629,-1.8348,-1.8038,-1.7551,-1.6988,-1.6428,-1.5865,-1.5176,-1.4595,-1.4412,-1.4352,-1.4421,-1.4173,-1.3355,-1.565,-1.5794,-1.5629,-1.5756,-1.6042,-1.6365,-1.6506,-1.6436,-1.6179,-1.5844,-1.5467,-1.496,-1.4512,-1.4087,-1.3729,-1.3615,-1.3615,-1.3615,-1.3615,-1.3615,-1.3615,-1.3644,-1.3768,-1.3962,-1.4085,-1.4197,-1.4267,-1.4448,-1.4581,-1.4391,-1.4599,-1.476,-1.453,-1.4391,-1.4176,-1.3994,-1.3829,-1.3739,-1.3739,-1.3739,-1.3839,-1.3868,-1.3934,-1.4075,-1.3915,-1.3821,-1.3821,-1.3716,-1.3639,-1.3687,-1.3763,-1.3868,-1.3868,-1.3886,-1.3905,-1.381,-1.3897,-1.3797,-1.3815,-1.3863,-1.3768,-1.3692,-1.3639,-1.3639,-1.3615,-1.3615,-1.3391,-1.29,-1.2206,-1.1923,-1.1828,-1.1548,-1.1297,-1.1272,-1.112,-1.12,-1.1276,-1.1372,-1.1444,-1.141,-1.1535,-1.1694,-1.1877,-1.2234,-1.2612,-1.3386,-1.4018,-1.4673,-1.5698,-1.6917,-1.8068,-1.8522,-1.8898,-1.8969,-1.9019,-1.9019,-1.9019,-1.9019,-1.9019,-1.9019,-1.8768,-1.8402,-1.7929,-1.7567,-1.7073,-1.6549,-1.584,-1.5216,-1.4916,-1.454,-1.4194,-1.3975,-1.395,-1.3485,-1.2673,-1.57,-1.5551,-1.5406,-1.5406,-1.5617,-1.6042,-1.6337,-1.6423,-1.6179,-1.597,-1.5662,-1.4977,-1.4535,-1.428,-1.3881,-1.3615,-1.3615,-1.3615,-1.3615,-1.3615,-1.3615,-1.3758,-1.3905,-1.4051,-1.4314,-1.4361,-1.4523,-1.4731,-1.4806,-1.4811,-1.4789,-1.4789,-1.4926,-1.4553,-1.4204,-1.4111,-1.4181,-1.4158,-1.4111,-1.4098,-1.4109,-1.4085,-1.4062,-1.408,-1.401,-1.3873,-1.3926,-1.3873,-1.3763,-1.3876,-1.3999,-1.4127,-1.415,-1.4104,-1.4122,-1.4051,-1.4028,-1.4028,-1.4192,-1.415,-1.4033,-1.3797,-1.375,-1.3692,-1.3639,-1.3615,-1.3276,-1.2715,-1.1859,-1.1669,-1.1653,-1.1402,-1.1372,-1.1372,-1.1423,-1.1477,-1.1502,-1.1573,-1.1698,-1.1665,-1.1685,-1.1843,-1.2002,-1.246,-1.2866,-1.3777,-1.4674,-1.5377,-1.6081,-1.7267,-1.8253,-1.8598,-1.8945,-1.9013,-1.9019,-1.9019,-1.9019,-1.9019,-1.9019,-1.9019,-1.8661,-1.83,-1.771,-1.7073,-1.6492,-1.584,-1.5079,-1.4567,-1.4561,-1.4224,-1.3662,-1.3537,-1.348,-1.2891,-1.2116,-1.554,-1.5193,-1.5567,-1.5445,-1.5221,-1.5585,-1.6048,-1.6485,-1.6408,-1.6163,-1.5822,-1.5277,-1.4794,-1.4378,-1.3852,-1.3615,-1.3644,-1.3639,-1.3663,-1.3663,-1.3692,-1.3947,-1.4186,-1.4355,-1.4518,-1.4748,-1.4909,-1.4891,-1.5011,-1.4829,-1.4628,-1.4587,-1.4789,-1.4628,-1.4605,-1.4645,-1.4697,-1.4489,-1.4419,-1.4378,-1.4361,-1.4226,-1.4221,-1.4215,-1.408,-1.4028,-1.4057,-1.4062,-1.4145,-1.4257,-1.4396,-1.4402,-1.4355,-1.4215,-1.4285,-1.4355,-1.4419,-1.4443,-1.4541,-1.443,-1.4319,-1.4109,-1.4062,-1.3892,-1.3668,-1.3544,-1.3233,-1.2623,-1.1843,-1.1648,-1.1477,-1.1452,-1.1427,-1.1477,-1.1528,-1.1553,-1.1573,-1.1648,-1.1803,-1.1852,-1.1873,-1.1977,-1.2101,-1.2485,-1.3169,-1.4264,-1.5267,-1.635,-1.7038,-1.7633,-1.8412,-1.8492,-1.8782,-1.8995,-1.9019,-1.9019,-1.9019,-1.9019,-1.9019,-1.8966,-1.8602,-1.8186,-1.7573,-1.6877,-1.5931,-1.525,-1.4799,-1.4572,-1.4536,-1.407,-1.3502,-1.313,-1.307,-1.2458,-1.181,-1.5534,-1.5079,-1.4892,-1.4731,-1.4702,-1.5091,-1.574,-1.6358,-1.5856,-1.5724,-1.6222,-1.5096,-1.4702,-1.4811,-1.4017,-1.3687,-1.3692,-1.3797,-1.3868,-1.3868,-1.3839,-1.4098,-1.4309,-1.4448,-1.4605,-1.4794,-1.4932,-1.5006,-1.5068,-1.488,-1.4875,-1.4949,-1.4909,-1.4909,-1.4926,-1.5011,-1.4834,-1.4685,-1.4593,-1.4616,-1.461,-1.4505,-1.4541,-1.4535,-1.4402,-1.435,-1.4384,-1.4314,-1.4373,-1.4425,-1.4564,-1.4633,-1.461,-1.472,-1.488,-1.4834,-1.4651,-1.4471,-1.4633,-1.4656,-1.4564,-1.45,-1.4482,-1.3975,-1.3658,-1.3377,-1.3166,-1.2486,-1.1947,-1.1728,-1.1632,-1.1578,-1.1578,-1.1628,-1.1678,-1.1703,-1.1748,-1.1828,-1.1957,-1.1977,-1.2002,-1.2116,-1.222,-1.2652,-1.3427,-1.4623,-1.578,-1.6895,-1.7784,-1.8319,-1.8608,-1.8656,-1.874,-1.8989,-1.9019,-1.9019,-1.9019,-1.9019,-1.9019,-1.8934,-1.8623,-1.8153,-1.749,-1.668,-1.5729,-1.5157,-1.4775,-1.4636,-1.4536,-1.41,-1.3567,-1.307,-1.2573,-1.1962,-1.1445,-1.5794,-1.5339,-1.4886,-1.4576,-1.4419,-1.4483,-1.5068,-1.5718,-1.535,-1.5463,-1.5802,-1.4869,-1.4564,-1.4628,-1.3994,-1.3615,-1.3615,-1.3716,-1.3792,-1.3815,-1.3968,-1.4168,-1.4326,-1.4518,-1.4674,-1.484,-1.4977,-1.5097,-1.5119,-1.5119,-1.5091,-1.5068,-1.5119,-1.5119,-1.5091,-1.5068,-1.4971,-1.4811,-1.4725,-1.4777,-1.4777,-1.4777,-1.484,-1.4886,-1.4725,-1.4656,-1.4679,-1.4558,-1.4558,-1.4656,-1.4834,-1.4857,-1.488,-1.5017,-1.5091,-1.5023,-1.488,-1.4766,-1.4863,-1.4886,-1.4811,-1.4771,-1.4777,-1.4217,-1.3629,-1.3209,-1.2852,-1.2372,-1.2076,-1.1857,-1.1782,-1.1753,-1.1753,-1.1773,-1.1823,-1.1873,-1.1952,-1.2031,-1.2056,-1.2076,-1.2146,-1.2235,-1.2496,-1.2929,-1.3704,-1.495,-1.6042,-1.7022,-1.7889,-1.8556,-1.8782,-1.8887,-1.8929,-1.9019,-1.9019,-1.9019,-1.9019,-1.9019,-1.9019,-1.8881,-1.8596,-1.7902,-1.7017,-1.626,-1.5492,-1.5059,-1.4715,-1.4636,-1.4492,-1.4061,-1.3567,-1.2913,-1.227,-1.1538,-1.108,-1.6201,-1.575,-1.5255,-1.4691,-1.4274,-1.3858,-1.4176,-1.4926,-1.4897,-1.5034,-1.5017,-1.4553,-1.435,-1.4373,-1.3852,-1.3639,-1.3644,-1.3697,-1.3768,-1.3639,-1.3897,-1.415,-1.4425,-1.461,-1.472,-1.4977,-1.5119,-1.5119,-1.5119,-1.5119,-1.5119,-1.5119,-1.5119,-1.5119,-1.5119,-1.5119,-1.5045,-1.5,-1.4977,-1.5006,-1.4977,-1.4886,-1.4725,-1.4754,-1.4656,-1.4581,-1.4697,-1.4766,-1.4834,-1.4994,-1.5085,-1.5085,-1.5085,-1.5085,-1.5091,-1.5091,-1.5023,-1.5023,-1.5023,-1.5023,-1.4932,-1.4903,-1.4926,-1.4328,-1.3718,-1.3305,-1.2973,-1.2421,-1.2051,-1.1981,-1.1932,-1.1882,-1.1877,-1.1902,-1.1927,-1.1977,-1.2002,-1.2051,-1.2076,-1.2146,-1.2309,-1.2407,-1.2588,-1.3041,-1.4122,-1.5334,-1.6369,-1.7295,-1.8043,-1.8744,-1.8911,-1.9019,-1.9019,-1.9019,-1.9019,-1.9019,-1.9019,-1.9019,-1.8993,-1.8741,-1.8375,-1.749,-1.6469,-1.5816,-1.5216,-1.4981,-1.472,-1.4636,-1.4517,-1.4228,-1.3666,-1.2826,-1.2058,-1.1358,-1.0898,-1.6222,-1.5722,-1.4915,-1.428,-1.3805,-1.3663,-1.3734,-1.3965,-1.3965,-1.4408,-1.4829,-1.4269,-1.4022,-1.4233,-1.3829,-1.3615,-1.3644,-1.3744,-1.3892,-1.3868,-1.3973,-1.4179,-1.4494,-1.4541,-1.472,-1.4977,-1.5119,-1.5119,-1.5119,-1.5119,-1.5119,-1.5119,-1.5119,-1.5119,-1.5119,-1.5119,-1.5119,-1.5119,-1.5119,-1.5119,-1.5068,-1.5068,-1.5006,-1.4983,-1.4932,-1.4909,-1.4977,-1.5,-1.5023,-1.5091,-1.5091,-1.5091,-1.5114,-1.5119,-1.5119,-1.5119,-1.5119,-1.5119,-1.5119,-1.5119,-1.5045,-1.5017,-1.492,-1.4357,-1.3889,-1.3586,-1.3137,-1.2515,-1.2126,-1.2081,-1.2056,-1.2031,-1.2006,-1.2026,-1.2026,-1.2026,-1.2026,-1.2051,-1.2076,-1.224,-1.2422,-1.2632,-1.2817,-1.3554,-1.4616,-1.5667,-1.6698,-1.7618,-1.8316,-1.8959,-1.8947,-1.9019,-1.9019,-1.9019,-1.9019,-1.9019,-1.9019,-1.8934,-1.8881,-1.8548,-1.8098,-1.6984,-1.5869,-1.5454,-1.497,-1.4789,-1.4691,-1.4681,-1.4538,-1.4318,-1.3606,-1.27,-1.2116,-1.1445,-1.0986,-1.6337,-1.5998,-1.5091,-1.4419,-1.3952,-1.371,-1.3615,-1.3615,-1.3615,-1.3899,-1.4339,-1.3894,-1.3781,-1.4046,-1.3734,-1.3615,-1.3639,-1.375,-1.3763,-1.3815,-1.3991,-1.4132,-1.4291,-1.4494,-1.4674,-1.4909,-1.5068,-1.5119,-1.5119,-1.5119,-1.5119,-1.5119,-1.5119,-1.5119,-1.5119,-1.5119,-1.5119,-1.5119,-1.5119,-1.5119,-1.5119,-1.5119,-1.5119,-1.5119,-1.5119,-1.5119,-1.5119,-1.5119,-1.5119,-1.5119,-1.5119,-1.5119,-1.5119,-1.5119,-1.5119,-1.5119,-1.5119,-1.5119,-1.5119,-1.5119,-1.5091,-1.5062,-1.4834,-1.4246,-1.3747,-1.3396,-1.2944,-1.2368,-1.215,-1.2076,-1.2076,-1.2051,-1.2051,-1.2051,-1.2051,-1.2051,-1.2051,-1.2076,-1.2101,-1.215,-1.2528,-1.3062,-1.3459,-1.4322,-1.5416,-1.661,-1.7559,-1.7952,-1.8633,-1.8993,-1.9019,-1.8993,-1.8993,-1.9019,-1.9019,-1.9019,-1.9019,-1.8907,-1.8774,-1.7847,-1.7062,-1.6135,-1.5294,-1.4995,-1.4773,-1.4704,-1.4606,-1.4631,-1.4602,-1.4442,-1.3541,-1.2547,-1.2023,-1.1534,-1.0986,-1.6445,-1.6272,-1.5457,-1.4829,-1.435,-1.3829,-1.3615,-1.3615,-1.3615,-1.3615,-1.3681,-1.3663,-1.3615,-1.3615,-1.3615,-1.3615,-1.3615,-1.3668,-1.3634,-1.371,-1.3915,-1.4104,-1.4291,-1.4477,-1.4679,-1.4857,-1.5023,-1.5068,-1.5119,-1.5119,-1.5119,-1.5119,-1.5119,-1.5119,-1.5119,-1.5119,-1.5119,-1.5119,-1.5119,-1.5119,-1.5119,-1.5119,-1.5119,-1.5119,-1.5119,-1.5119,-1.5119,-1.5119,-1.5119,-1.5119,-1.5119,-1.5119,-1.5119,-1.5119,-1.5119,-1.5119,-1.5119,-1.5119,-1.5119,-1.5119,-1.504,-1.492,-1.4581,-1.4134,-1.3605,-1.318,-1.2706,-1.2387,-1.217,-1.2076,-1.2076,-1.2076,-1.2076,-1.2076,-1.2076,-1.2076,-1.2076,-1.2101,-1.2126,-1.2155,-1.2724,-1.3342,-1.4129,-1.5004,-1.6173,-1.7375,-1.811,-1.851,-1.8825,-1.8927,-1.8987,-1.8966,-1.8972,-1.8993,-1.8993,-1.896,-1.8934,-1.8753,-1.8446,-1.7202,-1.6135,-1.5512,-1.5005,-1.4709,-1.454,-1.4565,-1.4536,-1.4536,-1.451,-1.4506,-1.3442,-1.2481,-1.2178,-1.1659,-1.0923,-1.6287,-1.5888,-1.5322,-1.4829,-1.4378,-1.3829,-1.3615,-1.3615,-1.3615,-1.3615,-1.3615,-1.3615,-1.3615,-1.3615,-1.3615,-1.3615,-1.3615,-1.3615,-1.3615,-1.3663,-1.3897,-1.4104,-1.4309,-1.4523,-1.4789,-1.4949,-1.5068,-1.5091,-1.5119,-1.5119,-1.5119,-1.5119,-1.5119,-1.5119,-1.5119,-1.5119,-1.5119,-1.5119,-1.5119,-1.5119,-1.5119,-1.5119,-1.5119,-1.5119,-1.5119,-1.5119,-1.5119,-1.5119,-1.5119,-1.5119,-1.5119,-1.5119,-1.5119,-1.5119,-1.5119,-1.5119,-1.5119,-1.5119,-1.5119,-1.5023,-1.492,-1.4628,-1.4251,-1.3842,-1.3396,-1.305,-1.2618,-1.2244,-1.2076,-1.2076,-1.2076,-1.2076,-1.2076,-1.2076,-1.2076,-1.2076,-1.2076,-1.2121,-1.217,-1.2524,-1.3032,-1.3643,-1.4273,-1.5319,-1.6539,-1.7548,-1.8149,-1.8552,-1.8823,-1.8898,-1.8848,-1.8795,-1.8747,-1.8972,-1.8993,-1.8827,-1.8774,-1.8587,-1.8088,-1.6816,-1.582,-1.5187,-1.4745,-1.4565,-1.4485,-1.4515,-1.4485,-1.4485,-1.4485,-1.4327,-1.3286,-1.2447,-1.2174,-1.1748,-1.1052]}]]